[[{"header":{"parameterUnit":"m.s-1","parameterCategory":1,"la1":30.6,"la2":28.766,"lo1":-90.7593,"lo2":-88.6598,"dy":0.0162,"dx":0.0183,"nx":116,"ny":114,"refTime":"2023-05-17T00:00:00:Z","depth":0,"parameterNumber":2,"parameterNumberName":"U-component_of_WINDS"},"data":[0.0,0.0,0.0,0.0,0.0,0.0,0.0,0.0,0.0,0.0,0.0,0.0,0.0,0.0,0.0,0.0,0.0,0.0,0.0,0.0,0.0,0.0,0.0,0.0,0.0,0.0,0.0,0.0,0.0,0.0,0.0,0.0,0.0,0.0,0.0,0.0,0.0,0.0,0.0,0.0,0.0,0.0,0.0,0.0,0.0,0.0,0.0,0.0,0.0,0.0,0.0,0.0,0.0,0.0,0.0,0.0,0.0,0.0,0.0,0.0,0.0,0.0,0.0,0.0,0.0,0.0,0.0,0.0,0.0,0.0,0.0,0.0,0.0,0.0,0.0,0.0,0.0,0.0,0.0,0.0,0.0,0.0,0.0,0.0,0.0,0.0,0.0,0.0,0.0,0.0,0.0,0.0,0.0,0.0,0.0,0.0,0.0,0.0,0.0,0.0,0.0,0.0,0.0,0.0,0.0,0.0,0.0,0.0,0.0,0.0,0.0,0.0,0.0,0.0,0.0,0.0,0.0,0.0,0.0,0.0,0.0,0.0,0.0,0.0,0.0,0.0,0.0,0.0,0.0,0.0,0.0,0.0,0.0,0.0,0.0,0.0,0.0,0.0,0.0,0.0,0.0,0.0,0.0,0.0,0.0,0.0,0.0,0.0,0.0,0.0,0.0,0.0,0.0,0.0,0.0,0.0,0.0,0.0,0.0,0.0,0.0,0.0,0.0,0.0,0.0,0.0,0.0,0.0,0.0,0.0,0.0,0.0,0.0,0.0,0.0,0.0,0.0,0.0,0.0,0.0,0.0,0.0,0.0,0.0,0.0,0.0,0.0,0.0,0.0,0.0,0.0,0.0,0.0,0.0,0.0,0.0,0.0,0.0,0.0,0.0,0.0,0.0,0.0,0.0,0.0,0.0,0.0,0.0,0.0,0.0,0.0,0.0,0.0,0.0,0.0,0.0,0.0,0.0,0.0,0.0,0.0,0.0,0.0,0.0,0.0,0.0,0.0,0.0,0.0,0.0,0.0,0.0,0.0,0.0,0.0,0.0,0.0,0.0,0.0,0.0,0.0,0.0,0.0,0.0,0.0,0.0,0.0,0.0,0.0,0.0,0.0,0.0,0.0,0.0,0.0,0.0,0.0,0.0,0.0,0.0,0.0,0.0,0.0,0.0,0.0,0.0,0.0,0.0,0.0,0.0,0.0,0.0,0.0,0.0,0.0,0.0,0.0,0.0,0.0,0.0,0.0,0.0,0.0,0.0,0.0,0.0,0.0,0.0,0.0,0.0,0.0,0.0,0.0,0.0,0.0,0.0,0.0,0.0,0.0,0.0,0.0,0.0,0.0,0.0,0.0,0.0,0.0,0.0,0.0,0.0,0.0,0.0,0.0,0.0,0.0,0.0,0.0,0.0,0.0,0.0,0.0,0.0,0.0,0.0,0.0,0.0,0.0,0.0,0.0,0.0,0.0,0.0,0.0,0.0,0.0,0.0,0.0,0.0,0.0,0.0,0.0,0.0,0.0,0.0,0.0,0.0,0.0,0.0,0.0,0.0,0.0,0.0,0.0,0.0,0.0,0.0,0.0,0.0,0.0,0.0,0.0,0.0,0.0,0.0,0.0,0.0,0.0,0.0,0.0,0.0,0.0,0.0,0.0,0.0,0.0,0.0,0.0,0.0,0.0,0.0,0.0,0.0,0.0,0.0,0.0,0.0,0.0,0.0,0.0,0.0,0.0,0.0,0.0,0.0,0.0,0.0,0.0,0.0,0.0,0.0,0.0,0.0,0.0,0.0,0.0,0.0,0.0,0.0,0.0,0.0,0.0,0.0,0.0,0.0,0.0,0.0,0.0,0.0,0.0,0.0,0.0,0.0,0.0,0.0,0.0,0.0,0.0,0.0,0.0,0.0,0.0,0.0,0.0,0.0,0.0,0.0,0.0,0.0,0.0,0.0,0.0,0.0,0.0,0.0,0.0,0.0,0.0,0.0,0.0,0.0,0.0,0.0,0.0,0.0,0.0,0.0,0.0,0.0,0.0,0.0,0.0,0.0,0.0,0.0,0.0,0.0,0.0,0.0,0.0,0.0,0.0,0.0,0.0,0.0,0.0,0.0,0.0,0.0,0.0,0.0,0.0,0.0,0.0,0.0,0.0,0.0,0.0,0.0,0.0,0.0,0.0,0.0,0.0,0.0,0.0,0.0,0.0,0.0,0.0,0.0,0.0,0.0,0.0,0.0,0.0,0.0,0.0,0.0,0.0,0.0,0.0,0.0,0.0,0.0,0.0,0.0,0.0,0.0,0.0,0.0,0.0,0.0,0.0,0.0,0.0,0.0,0.0,0.0,0.0,0.0,0.0,0.0,0.0,0.0,0.0,0.0,0.0,0.0,0.0,0.0,0.0,0.0,0.0,0.0,0.0,0.0,0.0,0.0,0.0,0.0,0.0,0.0,0.0,0.0,0.0,0.0,0.0,0.0,0.0,0.0,0.0,0.0,0.0,0.0,0.0,0.0,0.0,0.0,0.0,0.0,0.0,0.0,0.0,0.0,0.0,0.0,0.0,0.0,0.0,0.0,0.0,0.0,0.0,0.0,0.0,0.0,0.0,0.0,0.0,0.0,0.0,0.0,0.0,0.0,0.0,0.0,0.0,0.0,0.0,0.0,0.0,0.0,0.0,0.0,0.0,0.0,0.0,0.0,0.0,0.0,0.0,0.0,0.0,0.0,0.0,0.0,0.0,0.0,0.0,0.0,0.0,0.0,0.0,0.0,0.0,0.0,0.0,0.0,0.0,0.0,0.0,0.0,0.0,0.0,0.0,0.0,0.0,0.0,0.0,0.0,0.0,0.0,0.0,0.0,0.0,0.0,0.0,0.0,0.0,0.0,0.0,0.0,0.0,0.0,0.0,0.0,0.0,0.0,0.0,0.0,0.0,0.0,0.0,0.0,0.0,0.0,0.0,0.0,0.0,0.0,0.0,0.0,0.0,0.0,0.0,0.0,0.0,0.0,0.0,0.0,0.0,0.0,0.0,0.0,0.0,0.0,0.0,0.0,0.0,0.0,0.0,0.0,0.0,0.0,0.0,0.0,0.0,0.0,0.0,0.0,0.0,0.0,0.0,0.0,0.0,0.0,0.0,0.0,0.0,0.0,0.0,0.0,0.0,0.0,0.0,0.0,0.0,0.0,0.0,0.0,0.0,0.0,0.0,0.0,0.0,0.0,0.0,0.0,0.0,0.0,0.0,0.0,0.0,0.0,0.0,0.0,0.0,0.0,0.0,0.0,0.0,0.0,0.0,0.0,0.0,0.0,0.0,0.0,0.0,0.0,0.0,0.0,0.0,0.0,0.0,0.0,0.0,0.0,0.0,0.0,0.0,0.0,0.0,0.0,0.0,0.0,0.0,0.0,0.0,0.0,0.0,0.0,0.0,0.0,0.0,0.0,0.0,0.0,0.0,0.0,0.0,0.0,0.0,0.0,0.0,0.0,0.0,0.0,0.0,0.0,0.0,0.0,0.0,0.0,0.0,0.0,0.0,0.0,0.0,0.0,0.0,0.0,0.0,0.0,0.0,0.0,0.0,0.0,0.0,0.0,0.0,0.0,0.0,0.0,0.0,0.0,0.0,0.0,0.0,0.0,0.0,0.0,0.0,0.0,0.0,0.0,0.0,0.0,0.0,0.0,0.0,0.0,0.0,0.0,0.0,0.0,0.0,0.0,0.0,0.0,0.0,0.0,0.0,0.0,0.0,0.0,0.0,0.0,0.0,0.0,0.0,0.0,0.0,0.0,0.0,0.0,0.0,0.0,0.0,0.0,0.0,0.0,0.0,0.0,0.0,0.0,0.0,0.0,0.0,0.0,0.0,0.0,0.0,0.0,0.0,0.0,0.0,0.0,0.0,0.0,0.0,0.0,0.0,0.0,0.0,0.0,0.0,0.0,0.0,0.0,0.0,0.0,0.0,0.0,0.0,0.0,0.0,0.0,0.0,0.0,0.0,0.0,0.0,0.0,0.0,0.0,0.0,0.0,0.0,0.0,0.0,0.0,0.0,0.0,0.0,0.0,0.0,0.0,0.0,0.0,0.0,0.0,0.0,0.0,0.0,0.0,0.0,0.0,0.0,0.0,0.0,0.0,0.0,0.0,0.0,0.0,0.0,0.0,0.0,0.0,0.0,0.0,0.0,0.0,0.0,0.0,0.0,0.0,0.0,0.0,0.0,0.0,0.0,0.0,0.0,0.0,0.0,0.0,0.0,0.0,0.0,0.0,0.0,0.0,0.0,0.0,0.0,0.0,0.0,0.0,0.0,0.0,0.0,0.0,0.0,0.0,0.0,0.0,0.0,0.0,0.0,0.0,0.0,0.0,0.0,0.0,0.0,0.0,0.0,0.0,0.0,0.0,0.0,0.0,0.0,0.0,0.0,0.0,0.0,0.0,0.0,0.0,0.0,0.0,0.0,0.0,0.0,0.0,0.0,0.0,0.0,0.0,0.0,0.0,0.0,0.0,0.0,0.0,0.0,0.0,0.0,0.0,0.0,0.0,0.0,0.0,0.0,0.0,0.0,0.0,0.0,0.0,0.0,0.0,0.0,0.0,0.0,0.0,0.0,0.0,0.0,0.0,0.0,0.0,0.0,0.0,0.0,0.0,0.0,0.0,0.0,0.0,0.0,0.0,0.0,0.0,0.0,0.0,0.0,0.0,0.0,0.0,0.0,0.0,0.0,0.0,0.0,0.0,0.0,0.0,0.0,0.0,0.0,0.0,0.0,0.0,0.0,0.0,0.0,0.0,0.0,0.0,0.0,0.0,0.0,0.0,0.0,0.0,0.0,0.0,0.0,0.0,0.0,0.0,0.0,0.0,0.0,0.0,0.0,0.0,0.0,0.0,0.0,0.0,0.0,0.0,0.0,0.0,0.0,0.0,0.0,0.0,0.0,0.0,0.0,0.0,0.0,0.0,0.0,0.0,0.0,0.0,0.0,0.0,0.0,0.0,0.0,0.0,0.0,0.0,0.0,0.0,0.0,0.0,0.0,0.0,0.0,0.0,0.0,0.0,0.0,0.0,0.0,0.0,0.0,0.0,0.0,0.0,0.0,0.0,0.0,0.0,0.0,0.0,0.0,0.0,0.0,0.0,0.0,0.0,0.0,0.0,0.0,0.0,0.0,0.0,0.0,0.0,0.0,0.0,0.0,0.0,0.0,0.0,0.0,0.0,0.0,0.0,0.0,0.0,0.0,0.0,0.0,0.0,0.0,0.0,0.0,0.0,0.0,0.0,0.0,0.0,0.0,0.0,0.0,0.0,0.0,0.0,0.0,0.0,0.0,0.0,0.0,0.0,0.0,0.0,0.0,0.0,0.0,0.0,0.0,0.0,0.0,0.0,0.0,0.0,0.0,0.0,0.0,0.0,0.0,0.0,0.0,0.0,0.0,0.0,0.0,0.0,0.0,0.0,0.0,0.0,0.0,0.0,0.0,0.0,0.0,0.0,0.0,0.0,0.0,0.0,0.0,0.0,0.0,0.0,0.0,0.0,0.0,0.0,0.0,0.0,0.0,0.0,0.0,0.0,0.0,0.0,0.0,0.0,0.0,0.0,0.0,0.0,0.0,0.0,0.0,0.0,0.0,0.0,0.0,0.0,0.0,0.0,0.0,0.0,0.0,0.0,0.0,0.0,0.0,0.0,0.0,0.0,0.0,0.0,0.0,0.0,0.0,0.0,0.0,0.0,0.0,0.0,0.0,0.0,0.0,0.0,0.0,0.0,0.0,0.0,0.0,0.0,0.0,0.0,0.0,0.0,0.0,0.0,0.0,0.0,0.0,0.0,0.0,0.0,0.0,0.0,0.0,0.0,0.0,0.0,0.0,0.0,0.0,0.0,0.0,0.0,0.0,0.0,0.0,0.0,0.0,0.0,0.0,0.0,0.0,0.0,0.0,0.0,0.0,0.0,0.0,0.0,0.0,0.0,0.0,0.0,0.0,0.0,0.0,0.0,0.0,0.0,0.0,0.0,0.0,0.0,0.0,0.0,0.0,0.0,0.0,0.0,0.0,0.0,0.0,0.0,0.0,0.0,0.0,0.0,0.0,0.0,0.0,0.0,0.0,0.0,0.0,0.0,-1.2473,0.0,0.0,0.0,0.0,0.0,0.0,0.0,0.0,0.0,0.0,0.0,0.0,0.0,0.0,0.0,0.0,0.0,0.0,0.0,0.0,0.0,0.0,0.0,0.0,0.0,0.0,0.0,0.0,0.0,0.0,0.0,0.0,0.0,0.0,0.0,0.0,0.0,0.0,0.0,0.0,0.0,0.0,0.0,0.0,0.0,0.0,0.0,0.0,0.0,0.0,0.0,0.0,0.0,0.0,0.0,0.0,0.0,0.0,0.0,0.0,0.0,0.0,0.0,0.0,0.0,0.0,0.0,0.0,0.0,0.0,0.0,0.0,0.0,0.0,0.0,0.0,0.0,0.0,0.0,0.0,0.0,0.0,0.0,0.0,0.0,0.0,0.0,0.0,0.0,0.0,0.0,0.0,0.0,0.0,0.0,0.0,0.0,0.0,0.0,0.0,0.0,0.0,0.0,0.0,0.0,0.0,0.0,0.0,0.0,0.0,0.0,0.0,0.0,0.0,0.0,0.0,-1.2605,0.0,0.0,0.0,0.0,0.0,0.0,0.0,0.0,0.0,0.0,0.0,0.0,0.0,0.0,0.0,0.0,0.0,0.0,0.0,0.0,0.0,0.0,0.0,0.0,0.0,0.0,0.0,0.0,0.0,0.0,0.0,0.0,0.0,0.0,0.0,0.0,0.0,0.0,0.0,0.0,0.0,0.0,0.0,0.0,0.0,0.0,0.0,0.0,0.0,0.0,0.0,0.0,0.0,0.0,0.0,0.0,0.0,0.0,0.0,0.0,0.0,0.0,0.0,0.0,0.0,0.0,0.0,0.0,0.0,0.0,0.0,0.0,0.0,0.0,0.0,0.0,0.0,0.0,0.0,0.0,0.0,0.0,0.0,0.0,0.0,0.0,0.0,0.0,0.0,0.0,0.0,0.0,0.0,0.0,0.0,0.0,0.0,0.0,0.0,0.0,0.0,0.0,0.0,0.0,0.0,0.0,0.0,0.0,-1.1836,-1.2297,-1.2406,-1.2787,-1.3042,-1.3163,-1.256,-1.2345,-1.2373,-1.2842,0.0,0.0,0.0,0.0,0.0,0.0,0.0,0.0,0.0,0.0,0.0,0.0,0.0,0.0,0.0,0.0,0.0,0.0,0.0,0.0,0.0,0.0,0.0,0.0,0.0,0.0,0.0,0.0,0.0,0.0,0.0,0.0,0.0,0.0,0.0,0.0,0.0,-1.0495,-1.0525,-1.0008,-1.0151,-1.0905,-1.0888,0.0,0.0,0.0,0.0,0.0,0.0,0.0,0.0,0.0,0.0,0.0,0.0,0.0,0.0,0.0,0.0,0.0,0.0,0.0,0.0,0.0,0.0,0.0,0.0,0.0,0.0,0.0,0.0,0.0,0.0,0.0,0.0,0.0,0.0,0.0,0.0,0.0,0.0,0.0,0.0,0.0,0.0,0.0,-0.9925,-1.0145,0.0,0.0,0.0,0.0,0.0,0.0,0.0,0.0,0.0,0.0,0.0,0.0,0.0,-1.0824,-1.097,-1.1302,-1.1421,-1.1326,-1.1654,-1.2137,-1.2795,-1.2513,-1.2804,-1.3401,-1.2984,0.0,-1.327,-1.2977,0.0,0.0,0.0,0.0,0.0,0.0,0.0,0.0,0.0,0.0,0.0,0.0,0.0,0.0,0.0,0.0,0.0,0.0,0.0,0.0,0.0,0.0,0.0,0.0,0.0,0.0,0.0,0.0,0.0,0.0,0.0,0.0,0.0,0.0,0.0,0.0,-1.0284,-0.9677,-0.8603,-0.8255,-0.7935,-0.7568,-0.7526,-0.9088,-1.1699,-1.1528,0.0,0.0,0.0,0.0,0.0,0.0,0.0,0.0,0.0,0.0,0.0,0.0,0.0,0.0,0.0,0.0,0.0,0.0,0.0,0.0,0.0,0.0,0.0,0.0,0.0,0.0,0.0,0.0,0.0,0.0,0.0,0.0,0.0,0.0,0.0,0.0,0.0,0.0,0.0,-0.9632,-0.9619,-0.9602,-0.9528,-0.9615,0.0,0.0,0.0,0.0,0.0,0.0,0.0,0.0,0.0,-1.0615,-1.0724,-1.0776,-1.0783,-1.093,-1.1004,-1.0953,-1.198,-1.2481,-1.2632,-1.336,-1.3637,-1.3496,-1.3311,-1.3213,-1.3135,-1.3098,-1.3242,-1.353,0.0,0.0,0.0,0.0,-1.4931,-1.5407,0.0,0.0,0.0,0.0,0.0,0.0,0.0,0.0,0.0,0.0,0.0,0.0,0.0,0.0,0.0,-0.6645,0.0,0.0,0.0,0.0,0.0,0.0,0.0,0.0,0.0,0.0,0.0,-0.9978,-0.9711,-0.8834,-0.7423,-0.6996,-0.6402,-0.5713,-0.5679,-0.7438,-1.0394,-1.0256,-1.088,0.0,0.0,0.0,0.0,0.0,0.0,0.0,0.0,0.0,0.0,0.0,0.0,0.0,0.0,0.0,0.0,0.0,0.0,0.0,0.0,0.0,0.0,0.0,0.0,0.0,0.0,0.0,0.0,0.0,0.0,0.0,0.0,0.0,0.0,0.0,0.0,0.0,0.0,-0.9497,-0.9388,-0.907,-0.9302,-0.9571,0.0,0.0,0.0,0.0,0.0,0.0,-1.0477,-1.0864,-1.1093,-1.0988,-1.0995,-1.0982,-1.0782,-1.0782,-1.0782,-1.0846,-1.2132,-1.2757,-1.2685,-1.3956,-1.4212,-1.3662,-1.3555,-1.3271,-1.2949,-1.3299,-1.3448,-1.3529,-1.4352,-1.4836,-1.5051,-1.5068,-1.5623,-1.6217,0.0,0.0,0.0,0.0,0.0,0.0,0.0,0.0,0.0,0.0,0.0,0.0,0.0,0.0,-0.7405,-0.7534,-0.7849,-0.7944,0.0,0.0,0.0,0.0,0.0,0.0,0.0,0.0,0.0,-1.0556,-0.9159,-0.8633,-0.892,-0.7278,-0.6496,-0.641,-0.6274,-0.6604,-0.7285,-0.7779,-0.8791,-1.0225,0.0,0.0,0.0,0.0,0.0,0.0,0.0,0.0,0.0,0.0,0.0,0.0,0.0,0.0,0.0,0.0,0.0,0.0,0.0,0.0,0.0,0.0,0.0,0.0,0.0,0.0,0.0,0.0,0.0,0.0,0.0,0.0,0.0,0.0,0.0,0.0,0.0,0.0,0.0,-0.8991,-0.9389,0.0,0.0,0.0,0.0,-0.9813,-1.061,-1.1078,-1.1093,-1.1265,-1.1397,-1.1356,-1.1356,-1.1363,-1.1383,-1.1383,-1.1383,-1.1383,-1.1927,-1.2606,-1.3337,-1.3558,-1.3802,-1.4029,-1.3682,-1.3271,-1.2978,-1.3521,-1.3426,-1.2977,-1.3622,-1.4207,-1.471,-1.4733,-1.546,-1.6464,0.0,0.0,0.0,0.0,0.0,0.0,0.0,0.0,0.0,0.0,0.0,0.0,0.0,-0.7693,-0.8114,-0.8234,-0.8778,-0.8786,-0.7961,0.0,0.0,0.0,0.0,0.0,0.0,0.0,-1.0907,-1.1603,-1.1146,-1.0858,-1.0751,-1.0121,-0.9044,-0.7581,-0.7629,-0.7238,-0.6573,-0.6343,-0.7087,-0.8419,-0.9228,-0.9796,0.0,0.0,0.0,0.0,0.0,0.0,0.0,0.0,0.0,0.0,0.0,0.0,0.0,0.0,0.0,0.0,0.0,0.0,0.0,0.0,0.0,0.0,0.0,0.0,0.0,0.0,0.0,0.0,0.0,0.0,0.0,0.0,0.0,0.0,0.0,0.0,0.0,-1.0064,-1.0543,0.0,-1.0959,-1.0926,-1.1024,-1.1286,-1.1518,-1.1689,-1.188,-1.213,-1.2278,-1.2278,-1.2278,-1.2184,-1.1991,-1.1991,-1.1991,-1.1984,-1.2582,-1.2931,-1.2976,-1.338,-1.367,-1.3747,-1.3608,-1.344,-1.3281,-1.3511,-1.3313,-1.2968,-1.3552,-1.3909,-1.419,-1.5005,-1.5543,-1.5964,0.0,0.0,0.0,0.0,0.0,0.0,0.0,0.0,0.0,0.0,0.0,-0.6726,-0.749,-0.825,-0.8777,-0.897,-0.9447,-0.9323,-0.8449,0.0,0.0,0.0,0.0,0.0,0.0,-1.084,-1.1418,-1.2417,-1.2214,-1.2041,-1.1916,-1.1506,-1.0468,-0.8967,-0.8608,-0.7927,-0.692,-0.6152,-0.6154,-0.688,-0.7699,-0.8597,-0.9469,0.0,0.0,0.0,0.0,0.0,0.0,0.0,0.0,0.0,0.0,0.0,0.0,0.0,0.0,0.0,0.0,0.0,0.0,0.0,0.0,0.0,0.0,0.0,0.0,0.0,0.0,0.0,0.0,0.0,0.0,0.0,0.0,0.0,0.0,0.0,-1.076,-1.1049,-1.1577,-1.2019,-1.2173,-1.2096,-1.2177,-1.2456,-1.2641,-1.2806,-1.2899,-1.3186,-1.3253,-1.3053,-1.3046,-1.2859,-1.2458,-1.2452,-1.2405,-1.2298,-1.2927,-1.3085,-1.2862,-1.3316,-1.3585,-1.37,-1.3633,-1.357,-1.3516,-1.3662,-1.3389,-1.2929,-1.3334,-1.3637,-1.3909,-1.4915,-1.541,-1.5676,0.0,0.0,0.0,0.0,0.0,0.0,0.0,0.0,0.0,0.0,-0.6297,-0.6904,-0.7815,-0.8692,-0.9385,-0.9686,-0.9693,-0.9584,-0.9219,-0.9179,0.0,0.0,0.0,0.0,-1.0559,-1.1446,-1.226,-1.2876,-1.2302,-1.2099,-1.2351,-1.1225,-1.067,-1.0449,-0.9283,-0.8673,-0.8315,-0.7104,-0.6237,-0.5854,-0.6748,-0.8164,-0.9535,0.0,0.0,0.0,0.0,0.0,0.0,0.0,0.0,0.0,0.0,0.0,0.0,0.0,0.0,0.0,0.0,0.0,0.0,0.0,0.0,0.0,0.0,0.0,0.0,0.0,0.0,0.0,0.0,0.0,0.0,0.0,0.0,0.0,-1.0394,-1.1052,-1.1636,-1.195,-1.2498,-1.2775,-1.2412,-1.2919,-1.3267,-1.3267,-1.4055,-1.4409,-1.4115,-1.4369,-1.4249,-1.3579,-1.3559,-1.336,-1.2842,-1.2829,-1.2681,-1.2311,-1.2792,-1.3057,-1.3105,-1.3288,-1.3596,-1.4025,-1.3758,-1.3598,-1.3574,-1.3984,-1.3662,-1.29,-1.29,-1.3248,-1.3862,-1.4468,-1.505,-1.5676,0.0,0.0,0.0,0.0,0.0,0.0,0.0,0.0,0.0,0.0,-0.6834,-0.7869,-0.8286,-0.9233,-0.9993,-1.0294,-0.9927,-0.9568,-0.9297,0.0,0.0,0.0,0.0,0.0,-1.1502,-1.2168,-1.3003,-1.4028,-1.3848,-1.3976,-1.4255,-1.3692,-1.2924,-1.198,-1.1544,-1.0304,-0.8606,-0.8225,-0.7469,-0.6556,-0.638,-0.6794,-0.7566,0.0,0.0,0.0,0.0,0.0,0.0,0.0,0.0,0.0,0.0,0.0,0.0,0.0,0.0,0.0,0.0,0.0,0.0,0.0,0.0,0.0,0.0,0.0,0.0,0.0,0.0,0.0,0.0,0.0,0.0,0.0,0.0,-1.1321,-1.1302,-1.2134,-1.2939,-1.3453,-1.4032,-1.4322,-1.4242,-1.4382,-1.4482,-1.4482,-1.471,-1.471,-1.4416,-1.4476,-1.4249,-1.3579,-1.3559,-1.3467,-1.3086,-1.2936,-1.2782,-1.2694,-1.2401,-1.2565,-1.3237,-1.2763,-1.3282,-1.4619,-1.4222,-1.4174,-1.4443,-1.4561,-1.4102,-1.334,-1.334,-1.3244,-1.3238,-1.3826,-1.4732,-1.5676,0.0,0.0,0.0,0.0,0.0,0.0,0.0,0.0,0.0,0.0,-0.7176,-0.8153,-0.8448,-0.9236,-0.9866,-1.0167,-1.0051,-0.9783,-0.9314,0.0,0.0,0.0,0.0,-1.1671,-1.2435,-1.3118,-1.3888,-1.4703,-1.4703,-1.4796,-1.4963,-1.4783,-1.4346,-1.3561,-1.2931,-1.1608,-0.974,-0.9213,-0.8344,-0.7166,-0.6754,-0.6859,-0.731,-0.7164,-0.7537,-0.7996,-0.7695,-0.783,-0.8046,-0.7789,0.0,0.0,0.0,0.0,0.0,0.0,0.0,0.0,0.0,0.0,0.0,0.0,0.0,0.0,0.0,0.0,0.0,0.0,0.0,0.0,0.0,0.0,0.0,0.0,-1.1929,-1.2506,-1.2929,-1.33,-1.3841,-1.4549,-1.4937,-1.5197,-1.5311,-1.5331,-1.5331,-1.5331,-1.5331,-1.5197,-1.4903,-1.489,-1.4676,-1.4208,-1.4075,-1.3874,-1.3581,-1.3273,-1.306,-1.2933,-1.2465,-1.2597,-1.3078,-1.2365,-1.2925,-1.4455,-1.4073,-1.42,-1.4795,-1.4971,-1.4541,0.0,0.0,0.0,0.0,0.0,-1.4538,-1.5632,0.0,0.0,0.0,0.0,0.0,0.0,0.0,0.0,0.0,0.0,0.0,-0.8006,-0.8446,-0.8911,-0.9385,-0.9613,-1.0014,-1.0008,0.0,0.0,0.0,-1.1605,-1.2424,-1.3012,-1.3573,-1.4345,-1.4933,-1.5064,-1.5064,-1.5064,-1.5064,-1.503,-1.5017,-1.501,-1.387,-1.266,-1.1466,-1.026,-0.8975,-0.7771,-0.7543,-0.7647,-0.7966,-0.7229,-0.7568,-0.8513,-0.7931,-0.7741,-0.7643,-0.7377,0.0,0.0,0.0,0.0,0.0,0.0,0.0,0.0,0.0,0.0,0.0,0.0,0.0,0.0,0.0,0.0,0.0,0.0,0.0,0.0,0.0,0.0,0.0,0.0,-1.3324,-1.3781,-1.4863,-1.4589,-1.4576,-1.5351,-1.5444,-1.5545,-1.5805,-1.5832,-1.5832,-1.5832,-1.5832,-1.5705,-1.5411,0.0,0.0,0.0,0.0,-1.4429,-1.4135,-1.3841,-1.3547,-1.3253,-1.2946,-1.2856,-1.2954,-1.2317,-1.2855,-1.4123,-1.376,-1.4135,-1.4961,-1.5332,-1.498,-1.4107,-1.3691,-1.3252,-1.2968,-1.3637,-1.4595,-1.5543,0.0,0.0,0.0,0.0,0.0,0.0,0.0,0.0,0.0,-0.6477,-0.7546,-0.8282,-0.826,-0.9044,-0.9526,-0.9289,-0.9538,-1.0074,0.0,0.0,-1.1584,-1.4407,-1.4617,-1.4967,-1.5715,-1.6345,-1.6337,-1.5665,-1.5665,-1.5665,-1.5658,-1.5424,-1.5311,-1.5304,-1.4883,-1.3948,-1.2757,-1.1461,-1.0265,-0.906,-0.8027,-0.7497,-0.7279,-0.6986,-0.6986,-0.7066,-0.6742,-0.6641,-0.6673,-0.6854,-0.7175,-0.7413,-0.726,0.0,0.0,0.0,0.0,0.0,0.0,0.0,0.0,0.0,0.0,0.0,0.0,0.0,0.0,0.0,0.0,0.0,0.0,0.0,0.0,-1.3393,-1.4206,-1.479,-1.5251,-1.5418,-1.5551,-1.5725,-1.5745,-1.5765,-1.5818,-1.5832,-1.5832,-1.5832,-1.5832,-1.5705,-1.5411,-1.5398,-1.5264,-1.4977,-1.491,-1.4736,-1.4442,-1.4148,-1.3854,-1.3554,0.0,0.0,-1.3931,-1.3404,-1.4018,-1.5495,-1.5115,-1.5258,-1.582,-1.5908,-1.543,-1.458,-1.3809,-1.3252,-1.3017,-1.4107,-1.4652,-1.5017,0.0,0.0,0.0,0.0,0.0,0.0,0.0,0.0,0.0,0.0,-0.7784,-0.8536,-0.8981,-0.9278,-0.9465,-0.9614,-0.9765,0.0,0.0,-1.2235,-1.3373,-1.6061,-1.5819,-1.6329,-1.7699,-1.7522,-1.7235,-1.6763,-1.6763,-1.6386,-1.5825,-1.5678,-1.5611,-1.5605,-1.5464,-1.4731,-1.3496,-1.2836,-1.189,-1.0564,-0.934,-0.8669,-0.8489,-0.7619,-0.7217,-0.7122,-0.6898,-0.6776,-0.6671,-0.6776,-0.6825,-0.6895,-0.67,-0.6591,-0.6583,0.0,0.0,0.0,0.0,0.0,0.0,0.0,0.0,0.0,0.0,0.0,0.0,0.0,0.0,-1.1005,0.0,0.0,-1.3225,-1.4396,-1.501,-1.5444,-1.5591,-1.5738,-1.5832,-1.5832,-1.5832,-1.5832,-1.5832,-1.5832,-1.5832,-1.5832,-1.5832,-1.5765,-1.5618,-1.5611,-1.5545,-1.5398,-1.5257,-1.511,-1.4957,-1.4669,-1.4449,-1.4302,-1.3861,-1.3811,-1.4106,-1.3572,-1.4109,-1.5429,-1.5249,-1.5647,-1.6396,-1.6396,-1.5889,-1.5059,-1.4629,-1.4072,-1.3608,-1.4609,-1.4982,-1.515,0.0,0.0,0.0,0.0,0.0,0.0,0.0,0.0,0.0,0.0,-0.8018,-0.8732,-0.9575,-0.9442,-0.9431,0.0,0.0,0.0,0.0,-1.3738,-1.5038,-1.7588,-1.7187,-1.7706,-1.9487,-1.8811,-1.8326,-1.8056,-1.8056,-1.7404,-1.6197,-1.6197,-1.6015,-1.5832,-1.5832,-1.5242,-1.4268,-1.3974,-1.3295,-1.2139,-1.0877,-1.0386,-1.0258,-0.8913,-0.8153,-0.7658,-0.7448,-0.7255,-0.7058,-0.679,-0.6522,-0.6281,-0.6156,-0.6186,-0.6298,-0.6666,-0.6675,0.0,0.0,0.0,0.0,0.0,0.0,0.0,0.0,0.0,-1.1168,-1.0785,-1.1508,-1.2645,-1.3688,-1.3999,-1.4405,-1.5444,-1.5712,-1.5832,-1.5832,-1.5832,-1.5832,-1.5832,-1.5832,-1.5832,-1.5832,-1.5832,-1.5832,-1.5832,-1.5832,-1.5832,-1.5832,-1.5832,-1.5832,-1.5832,-1.5605,-1.5451,-1.5398,-1.5164,-1.5017,-1.4957,-1.4482,-1.4195,-1.4075,-1.3601,-1.4036,-1.5217,-1.5513,-1.6043,-1.6855,-1.6768,-1.626,-1.5537,-1.5537,-1.5068,-1.441,-1.5007,-1.5308,-1.5549,0.0,0.0,0.0,0.0,0.0,0.0,0.0,0.0,0.0,0.0,0.0,0.0,0.0,0.0,0.0,0.0,0.0,0.0,-1.3753,-1.4028,-1.5878,-1.9985,-1.9916,-2.0161,-2.1025,-2.0908,-2.0395,-1.9314,-1.9314,-1.868,-1.7505,-1.7505,-1.685,-1.5832,-1.5832,-1.573,-1.5534,-1.4364,-1.3782,-1.3584,-1.2237,-1.1658,-1.1648,-1.1507,-0.9934,-0.7936,-0.7519,-0.719,-0.6926,-0.6756,-0.6586,-0.6444,-0.6427,-0.6366,-0.6434,-0.7205,0.0,-0.7362,-0.8905,-0.8788,-0.8489,-0.9473,-0.9716,-1.0161,0.0,0.0,-1.3061,-1.2699,-1.2901,-1.3357,-1.4129,-1.4175,-1.4595,-1.6016,-1.5979,-1.5832,-1.5832,-1.5832,-1.5832,-1.5832,-1.5832,-1.5832,-1.5832,-1.5832,-1.5832,-1.5832,-1.5832,-1.5832,-1.5832,-1.5832,-1.5832,-1.5832,-1.5798,-1.5658,-1.5398,-1.5364,-1.5217,-1.4963,-1.4897,-1.4589,-1.4082,-1.4015,-1.4764,-1.6146,-1.7174,-1.7533,-1.7285,-1.6894,-1.6436,-1.5986,-1.5986,-1.5693,-1.5233,-1.5159,-1.5545,-1.6131,0.0,0.0,0.0,0.0,0.0,0.0,0.0,0.0,0.0,0.0,0.0,0.0,0.0,0.0,0.0,0.0,0.0,0.0,-1.3874,-1.4993,-1.7129,-2.0439,-2.0281,-2.0756,-2.2287,-2.1658,-2.1025,-2.0576,-2.0576,-1.9943,-1.8772,-1.8056,-1.7412,-1.685,-1.6109,-1.5832,-1.5737,-1.5242,-1.5045,-1.4854,-1.359,-1.3102,-1.2978,-1.1842,-1.0557,-0.9313,-0.9344,-0.8597,0.0,0.0,-0.7242,-0.7183,-0.7038,-0.6931,-0.7086,-0.8196,-0.8253,0.0,-0.892,-0.9972,0.0,0.0,-1.1453,-1.2334,-1.2522,-1.3477,-1.4209,-1.3938,-1.4483,-1.5114,-1.5448,-1.553,-1.5725,0.0,-1.6166,-1.6086,-1.6086,-1.5939,-1.5832,-1.5832,-1.5832,-1.5832,-1.5832,-1.5832,-1.5832,-1.5832,-1.5832,-1.5832,-1.5832,-1.5832,-1.5832,-1.5832,-1.5832,-1.5772,-1.5651,-1.5651,-1.5585,-1.5464,-1.5297,-1.4997,-1.4589,-1.4416,-1.474,-1.5678,-1.7146,-1.7571,-1.7181,-1.7639,-1.7441,-1.6836,-1.6836,-1.6562,-1.6135,-1.5982,-1.617,-1.662,0.0,0.0,0.0,0.0,0.0,0.0,0.0,0.0,0.0,0.0,0.0,0.0,0.0,0.0,0.0,0.0,0.0,0.0,0.0,-1.541,-1.7471,-1.9922,-2.0141,-2.0997,-2.2853,-2.2161,-2.1756,-2.1756,-2.1756,-2.1212,-1.9943,-1.9131,-1.8319,-1.7692,-1.6763,-1.6109,-1.5832,-1.5832,-1.5832,-1.573,-1.4752,-1.4374,-1.4084,-1.2541,-1.1348,-1.0491,-1.0403,-0.9448,0.0,0.0,-0.7831,-0.7808,-0.7713,-0.7692,-0.7922,-0.9188,-0.9553,-0.9568,-0.9826,0.0,0.0,-1.2056,-1.3016,-1.4005,-1.3801,-1.4662,-1.5431,-1.5158,-1.5789,-1.6393,-1.6393,-1.65,-1.652,-1.6306,-1.6273,-1.6246,-1.6166,-1.6039,-1.5919,-1.5838,-1.5832,-1.5832,-1.5832,-1.5832,-1.5832,-1.5832,-1.5832,-1.5832,-1.5832,-1.5832,-1.5832,-1.5832,-1.5832,-1.5832,-1.5832,-1.5832,-1.5832,-1.5825,-1.5618,-1.5364,-1.507,-1.5116,-1.5319,-1.574,-1.7295,-1.7821,-1.7714,-1.8452,-1.832,-1.7559,-1.7559,-1.7217,-1.6713,-1.6597,-1.685,-1.7263,0.0,0.0,0.0,0.0,0.0,0.0,0.0,0.0,0.0,0.0,0.0,0.0,0.0,0.0,0.0,0.0,0.0,0.0,0.0,-1.4666,-1.655,-1.8594,-1.9922,-2.1211,-2.25,-2.2843,-2.3047,-2.3047,-2.3047,-2.2403,-2.1203,-2.1203,-1.9943,-1.7692,-1.7692,-1.6943,-1.5832,-1.5832,-1.5832,-1.5832,-1.573,-1.5398,-1.4923,-1.4249,-1.2804,-1.0986,-0.9765,0.0,0.0,0.0,-0.8265,-0.8147,-0.8469,-0.8673,0.0,-1.004,-1.1085,-1.2001,0.0,0.0,-1.2056,-1.4166,-1.4263,-1.4266,-1.5886,-1.644,-1.666,-1.6687,-1.6693,-1.6693,-1.6693,-1.6473,-1.6286,-1.6273,-1.6273,-1.6172,-1.5885,-1.6086,-1.6152,-1.5865,-1.5832,-1.5832,0.0,-1.5832,-1.5832,-1.5832,-1.5832,-1.5832,-1.5832,-1.5832,-1.5832,-1.5832,-1.5832,-1.5832,-1.5832,-1.5832,-1.5832,-1.5832,-1.5818,-1.5665,-1.5371,-1.621,-1.6737,-1.7082,-1.8186,-1.8856,-1.9268,-1.9268,-1.8769,-1.7988,-1.7988,-1.748,-1.6728,-1.6699,-1.7357,-1.8136,0.0,0.0,0.0,0.0,0.0,0.0,0.0,0.0,0.0,0.0,0.0,0.0,0.0,0.0,0.0,0.0,0.0,0.0,0.0,-1.4292,-1.57,-1.7536,-1.8664,-1.9756,-2.0771,-2.1504,-2.2021,-2.2305,-2.2305,-2.2272,-2.2092,-2.1273,-2.0607,-2.0034,-1.8411,-1.7505,-1.7037,-1.6204,-1.5718,-1.5504,-1.5117,-1.473,-1.4341,-1.3379,-1.2335,-1.1268,0.0,0.0,0.0,0.0,-0.8934,-0.8972,-0.8986,-0.916,-0.963,-1.0979,-1.2096,-1.2937,0.0,0.0,-1.4099,-1.5208,-1.549,-1.5732,-1.672,-1.678,-1.676,-1.6961,-1.6823,-1.6628,-1.6427,-1.6404,-1.6334,-1.6334,-1.63,-1.6239,-1.6139,-1.6373,-1.638,-1.5885,-1.6005,0.0,0.0,0.0,0.0,-1.5832,-1.5832,-1.5832,-1.5832,-1.5832,-1.5832,-1.5832,-1.5832,-1.5832,-1.5832,-1.5832,-1.5832,-1.5825,-1.5631,-1.5491,-1.5384,-1.5535,-1.5514,-1.5454,-1.7282,-1.792,-1.7679,-1.908,-1.9365,-1.8857,-1.8857,-1.8682,-1.8389,-1.8105,-1.8552,-1.9137,0.0,0.0,0.0,0.0,0.0,0.0,0.0,0.0,0.0,0.0,0.0,0.0,0.0,0.0,0.0,0.0,0.0,0.0,0.0,0.0,-1.4844,-1.6195,-1.7352,-1.8388,-1.9261,-1.9856,-2.0358,-2.0643,-2.0575,-2.0644,-2.0908,-2.0217,-1.9834,-1.9582,-1.807,-1.7067,-1.6625,-1.5377,-1.4872,-1.4897,-1.4296,-1.3971,-1.3698,-1.2825,-1.2014,0.0,0.0,0.0,0.0,-0.9791,-0.9678,-0.9592,-0.9658,-0.9967,-1.0588,-1.1951,-1.2787,-1.3398,-1.417,-1.4668,-1.5205,-1.6121,-1.6446,-1.6687,-1.7061,-1.7001,-1.68,-1.6573,-1.6539,-1.6423,-1.5892,-1.5793,-1.5835,-1.5949,-1.5937,-1.5992,-1.6099,-1.6453,-1.6567,-1.6186,-1.6313,0.0,0.0,0.0,0.0,-1.5845,-1.5925,-1.5985,-1.5985,-1.6086,-1.6099,-1.5992,-1.5985,-1.5939,-1.5832,-1.5832,-1.5832,-1.5825,-1.5645,-1.5551,-1.5545,-1.5357,-1.5549,-1.6119,-1.7368,-1.8061,-1.8364,-1.9649,-1.9893,-1.9512,-1.9512,-1.9424,-1.9248,-1.8975,-1.9213,-1.9492,0.0,0.0,0.0,0.0,0.0,0.0,0.0,0.0,0.0,0.0,0.0,0.0,0.0,0.0,0.0,0.0,0.0,0.0,0.0,0.0,0.0,-1.4655,-1.5987,-1.7063,-1.793,-1.8233,-1.8362,-1.8392,-1.8133,-1.8027,-1.7978,-1.8379,-1.8,-1.6892,-1.6767,-1.6071,-1.4889,-1.3743,-1.3611,-1.4142,-1.3579,-1.3297,-1.3177,-1.2594,0.0,0.0,0.0,0.0,0.0,0.0,0.0,0.0,0.0,-1.1165,-1.1963,-1.2863,-1.3189,-1.3584,-1.5078,-1.532,-1.5411,-1.682,-1.7161,-1.7148,-1.7148,-1.7101,-1.6747,-1.5625,-1.5874,-1.5995,0.0,0.0,-1.5077,-1.529,-1.539,-1.5558,-1.5838,-1.6393,-1.6767,0.0,0.0,0.0,0.0,0.0,0.0,-1.5939,0.0,-1.6293,-1.6293,-1.656,-1.6573,-1.6286,-1.6273,-1.6126,-1.5832,-1.5832,-1.5832,-1.5832,-1.5832,-1.5832,-1.5832,-1.5832,-1.685,-1.8661,-1.8327,-1.9353,-2.115,-2.0781,-2.0371,-2.001,-1.999,-1.9746,-1.9424,-1.9424,-1.9424,-1.9446,0.0,0.0,0.0,0.0,0.0,0.0,0.0,0.0,0.0,0.0,0.0,0.0,0.0,0.0,0.0,0.0,0.0,0.0,0.0,0.0,0.0,0.0,0.0,0.0,0.0,0.0,0.0,-1.7881,-1.7818,-1.7863,-1.8112,-1.8157,-1.8245,-1.8223,-1.7211,-1.6571,-1.6131,-1.4887,-1.4206,-1.4064,0.0,-1.2985,-1.2562,0.0,0.0,0.0,0.0,0.0,0.0,0.0,0.0,0.0,0.0,-1.2343,-1.3312,-1.3827,-1.4462,-1.521,-1.5919,-1.6357,-1.6734,-1.7321,-1.7308,-1.7148,-1.7148,-1.6473,-1.5758,-1.5458,-1.5282,-1.5043,0.0,0.0,0.0,-1.5084,-1.5773,0.0,-1.6473,-1.7188,0.0,0.0,0.0,-1.7528,-1.7081,-1.7034,0.0,0.0,-1.668,-1.6593,-1.6593,-1.6667,-1.6573,-1.6286,-1.6273,-1.6126,-1.5832,-1.5832,-1.5832,-1.5832,-1.5832,-1.5832,-1.5832,-1.5832,-1.6486,-1.7686,-1.8314,-1.9299,-2.0458,-2.0899,-2.1191,-2.1357,-2.1025,-2.1025,-2.1221,-2.1221,-2.1221,-2.1233,0.0,0.0,0.0,0.0,0.0,0.0,0.0,0.0,0.0,0.0,0.0,0.0,0.0,0.0,0.0,0.0,0.0,0.0,0.0,0.0,0.0,0.0,0.0,0.0,0.0,0.0,0.0,0.0,0.0,0.0,-1.612,-1.6325,-1.656,-1.6816,-1.5923,-1.5505,-1.5423,-1.4098,0.0,0.0,0.0,0.0,0.0,0.0,0.0,0.0,0.0,0.0,0.0,0.0,0.0,-1.1833,-1.2419,-1.3184,-1.4052,-1.474,0.0,-1.5903,-1.6518,-1.6901,-1.7215,-1.7508,-1.7368,-1.7116,-1.6789,-1.6142,-1.5335,-1.4789,-1.4798,0.0,0.0,0.0,0.0,0.0,0.0,0.0,-1.6633,-1.7361,-1.7876,0.0,-1.8136,0.0,-1.7776,-1.7736,-1.7736,0.0,-1.7335,-1.7088,-1.7088,-1.7221,-1.7101,-1.6673,-1.6533,-1.6259,-1.5832,-1.5832,-1.5832,-1.5832,-1.5832,-1.5832,-1.5832,-1.5832,-1.6649,-1.8273,0.0,-1.9713,-2.1231,-2.1433,-2.167,-2.1865,-2.1611,-2.167,-2.1885,-2.1885,-2.1885,-2.1899,0.0,0.0,0.0,0.0,0.0,0.0,0.0,0.0,0.0,0.0,0.0,0.0,0.0,0.0,0.0,0.0,0.0,0.0,0.0,0.0,0.0,0.0,0.0,0.0,0.0,0.0,0.0,0.0,0.0,0.0,0.0,0.0,0.0,0.0,0.0,0.0,0.0,0.0,0.0,0.0,0.0,0.0,0.0,0.0,0.0,0.0,0.0,0.0,0.0,0.0,-1.2041,-1.2317,-1.3217,-1.3899,-1.4636,-1.5793,-1.6048,-1.6246,-1.7094,-1.7295,-1.7321,-1.7528,-1.7301,-1.6941,-1.6292,-1.5756,-1.512,-1.4119,0.0,-1.4237,-1.3127,0.0,-1.4,-1.4073,0.0,-1.5431,-1.66,-1.7275,-1.7869,-1.8477,-1.8584,-1.8591,-1.8551,-1.8551,-1.8551,-1.8551,-1.8023,-1.7689,-1.7649,-1.7903,-1.7769,-1.7271,-1.6827,-1.6406,-1.5892,-1.5845,-1.5832,-1.5832,-1.6015,-1.6015,-1.6015,-1.6197,-1.7569,-1.9745,-1.9329,0.0,-2.2568,-2.2139,-2.2002,-2.2041,-2.1992,-2.2002,-2.2051,-2.2051,-2.2051,-2.2041,0.0,0.0,0.0,0.0,0.0,0.0,0.0,0.0,0.0,0.0,-1.0059,-1.0265,0.0,0.0,0.0,0.0,0.0,0.0,0.0,0.0,0.0,0.0,0.0,0.0,0.0,0.0,0.0,0.0,0.0,0.0,0.0,0.0,0.0,0.0,0.0,0.0,0.0,0.0,0.0,0.0,0.0,0.0,0.0,0.0,0.0,0.0,0.0,0.0,0.0,0.0,-1.2998,-1.3494,-1.4388,-1.5275,-1.6066,-1.7042,-1.7345,-1.7422,-1.8083,-1.8076,-1.7842,-1.7635,-1.7001,-1.6434,-1.6281,-1.5169,0.0,0.0,0.0,-1.3671,-1.28,-1.3585,0.0,-1.4125,0.0,0.0,0.0,0.0,-1.8183,0.0,0.0,0.0,0.0,0.0,0.0,0.0,0.0,-1.823,-1.7983,-1.8016,-1.7769,-1.7271,-1.6627,-1.6299,-1.6192,-1.5952,-1.5832,-1.5825,-1.685,-1.7412,-1.7404,-1.8403,-1.9662,-2.1016,-2.0864,0.0,-2.2998,-2.2578,-2.2607,-2.2891,-2.2539,-2.2617,-2.292,-2.292,-2.292,-2.2871,0.0,0.0,0.0,0.0,0.0,0.0,0.0,-0.9266,-0.9744,-1.047,-1.0457,-1.0645,-1.1372,-1.1267,-1.1249,0.0,0.0,0.0,0.0,0.0,0.0,0.0,0.0,0.0,0.0,0.0,0.0,0.0,0.0,0.0,0.0,0.0,0.0,0.0,0.0,0.0,0.0,0.0,0.0,0.0,0.0,0.0,0.0,0.0,0.0,0.0,0.0,0.0,0.0,0.0,-1.3175,-1.368,-1.4804,-1.5685,-1.6413,-1.7141,-1.7462,-1.7682,-1.8136,-1.8156,-1.7969,-1.7662,-1.6807,-1.5954,-1.5748,0.0,0.0,0.0,0.0,-1.3467,-1.2802,0.0,0.0,0.0,0.0,0.0,0.0,0.0,0.0,0.0,0.0,0.0,0.0,0.0,0.0,0.0,0.0,-1.8751,-1.8303,-1.7976,-1.7602,-1.7161,-1.6874,-1.6653,-1.65,-1.687,-1.6996,-1.6996,-1.8125,-1.868,-1.868,-1.9222,-2.0124,-2.1293,-2.1293,0.0,-2.3125,-2.292,-2.2959,-2.3115,-2.292,-2.2959,-2.3135,-2.3135,-2.3135,-2.3105,0.0,0.0,0.0,0.0,0.0,0.0,0.0,-0.9702,-1.0273,-1.0794,-1.0954,-1.1132,-1.1479,-1.1281,-1.1251,0.0,0.0,0.0,0.0,0.0,0.0,0.0,0.0,0.0,0.0,0.0,0.0,0.0,0.0,0.0,0.0,0.0,0.0,0.0,0.0,0.0,0.0,0.0,0.0,0.0,0.0,0.0,0.0,0.0,0.0,0.0,0.0,0.0,0.0,0.0,-1.3187,-1.3541,-1.4727,-1.5616,-1.6299,-1.6893,-1.7367,-1.7793,-1.8023,-1.8096,-1.7969,-1.7662,-1.6653,-1.5633,-1.5173,-1.441,0.0,0.0,-1.3571,-1.3354,-1.2964,0.0,0.0,0.0,0.0,0.0,0.0,0.0,0.0,0.0,0.0,0.0,0.0,0.0,0.0,0.0,0.0,0.0,-1.8517,-1.7916,-1.7475,-1.7248,-1.7181,-1.7041,-1.68,-1.7407,-1.7882,-1.8067,-1.9023,-1.967,-1.9852,-2.0133,-2.0764,-2.1667,-2.1667,0.0,0.0,-2.3135,-2.3135,-2.3135,-2.3135,-2.3135,-2.3135,-2.3135,-2.3135,-2.3135,0.0,0.0,0.0,0.0,0.0,0.0,0.0,-1.0056,-1.0602,-1.1265,-1.1356,-1.1452,-1.1645,-1.1712,-1.1653,0.0,0.0,0.0,0.0,0.0,0.0,0.0,0.0,0.0,0.0,0.0,0.0,0.0,0.0,0.0,0.0,0.0,0.0,0.0,0.0,0.0,0.0,0.0,0.0,0.0,0.0,0.0,0.0,0.0,0.0,0.0,0.0,0.0,0.0,0.0,0.0,-1.3476,-1.4016,-1.5018,-1.6,-1.6532,0.0,0.0,-1.8326,-1.8257,-1.7969,-1.7662,-1.65,-1.5388,-1.5218,0.0,0.0,-1.395,-1.3759,-1.343,-1.3218,-1.3204,0.0,0.0,0.0,0.0,0.0,0.0,0.0,0.0,0.0,0.0,0.0,0.0,0.0,0.0,0.0,0.0,-1.851,-1.7916,-1.7569,-1.7542,-1.7288,-1.7237,-1.7108,-1.6652,-1.7036,-1.8067,-1.9023,-2.0034,-2.1203,-2.2315,-2.2862,-2.295,-2.295,0.0,0.0,-2.3135,-2.3135,-2.3135,-2.3135,-2.3135,-2.3135,-2.3135,-2.3135,-2.3135,0.0,0.0,0.0,0.0,0.0,0.0,-0.9852,-1.0562,-1.1168,-1.1437,-1.1533,-1.1571,-1.1571,-1.1708,-1.1756,-1.1645,0.0,0.0,0.0,0.0,0.0,0.0,0.0,0.0,0.0,0.0,0.0,0.0,0.0,0.0,0.0,0.0,0.0,0.0,0.0,0.0,0.0,0.0,0.0,0.0,0.0,0.0,0.0,0.0,0.0,0.0,0.0,0.0,0.0,0.0,0.0,0.0,-1.3402,-1.4162,0.0,0.0,-1.6579,-1.7274,-1.7867,-1.7996,-1.7929,-1.7442,-1.6219,-1.5082,-1.4918,0.0,0.0,-1.3647,-1.3613,-1.3493,-1.34,-1.3372,-1.3567,-1.412,0.0,0.0,0.0,0.0,0.0,0.0,0.0,0.0,0.0,0.0,0.0,0.0,0.0,0.0,-1.8504,-1.809,-1.7776,-1.7589,-1.8011,-1.844,-1.8626,-1.9564,-2.0375,-2.1071,-2.1785,-2.2323,-2.2773,-2.2978,-2.3135,-2.3135,-2.3135,0.0,0.0,-2.3135,-2.3135,-2.3135,-2.3135,-2.3135,-2.3135,-2.3135,-2.3135,-2.3135,0.0,0.0,0.0,0.0,0.0,-1.0155,-1.0199,-1.0927,-1.1485,-1.1485,-1.1571,-1.1608,-1.1522,-1.1634,-1.1671,-1.1645,-1.1314,0.0,0.0,0.0,0.0,0.0,0.0,0.0,0.0,0.0,0.0,-1.1756,0.0,0.0,0.0,0.0,0.0,0.0,0.0,0.0,0.0,0.0,0.0,0.0,0.0,0.0,0.0,0.0,0.0,0.0,0.0,0.0,0.0,0.0,0.0,0.0,0.0,0.0,0.0,0.0,-1.574,-1.6672,-1.686,-1.7281,-1.7549,-1.7128,-1.5947,-1.4867,0.0,0.0,0.0,-1.3456,-1.3511,-1.3511,-1.3511,-1.3511,-1.3639,-1.4096,0.0,-1.4231,0.0,0.0,0.0,0.0,0.0,0.0,0.0,0.0,0.0,0.0,0.0,0.0,-1.8504,-1.821,-1.801,-1.8213,-1.9206,-1.9898,-2.0231,-2.1441,-2.2329,-2.2982,-2.3271,-2.3602,-2.3965,-2.3662,-2.3447,-2.333,-2.333,0.0,0.0,-2.3135,-2.3135,-2.3135,-2.3135,-2.3135,-2.3135,-2.3135,-2.3135,-2.3135,0.0,0.0,0.0,0.0,0.0,0.0,-1.0661,-1.1118,-1.1421,-1.1485,-1.1485,-1.1485,-1.1485,-1.1485,-1.1485,-1.1485,-1.1608,0.0,0.0,0.0,0.0,0.0,0.0,0.0,0.0,0.0,-1.1819,-1.1693,-1.1693,-1.1645,0.0,0.0,0.0,0.0,0.0,0.0,0.0,0.0,0.0,0.0,0.0,0.0,0.0,0.0,0.0,0.0,0.0,0.0,0.0,0.0,0.0,0.0,0.0,0.0,0.0,0.0,-1.4948,-1.6533,-1.5707,-1.6052,-1.6714,-1.6714,-1.5752,-1.4752,0.0,0.0,0.0,-1.3466,-1.3511,-1.3511,-1.3511,-1.3511,-1.37,-1.4221,-1.438,0.0,0.0,0.0,0.0,0.0,0.0,0.0,0.0,0.0,0.0,0.0,0.0,0.0,-1.8504,-1.821,-1.8531,-1.9539,-2.0939,-2.1643,-2.1651,-2.1379,-2.1795,-2.2991,-2.2691,-2.3271,-2.4414,-2.4404,-2.418,0.0,0.0,0.0,0.0,-2.3135,-2.3135,-2.3135,-2.3135,-2.3135,-2.3135,-2.3135,-2.3135,-2.3135,0.0,0.0,0.0,0.0,0.0,0.0,0.0,-1.0709,-1.0996,-1.1378,-1.1202,-1.1151,-1.1452,-1.1485,-1.1485,-1.1485,-1.1522,0.0,0.0,0.0,0.0,0.0,0.0,0.0,0.0,0.0,-1.1745,-1.1571,-1.1571,-1.1459,-1.1298,-1.1298,-1.1223,0.0,0.0,0.0,0.0,0.0,0.0,0.0,0.0,0.0,0.0,0.0,0.0,0.0,0.0,0.0,0.0,0.0,0.0,0.0,0.0,0.0,0.0,-1.2414,0.0,0.0,-1.4764,-1.5159,-1.5504,-1.5291,-1.4633,-1.4057,-1.4279,0.0,0.0,-1.3466,-1.3511,-1.3511,-1.3511,-1.3511,-1.3616,-1.4114,-1.451,0.0,0.0,0.0,0.0,0.0,0.0,0.0,0.0,0.0,0.0,0.0,0.0,0.0,-2.1279,-2.1877,-2.141,-1.9635,-2.0607,-2.1795,-2.3067,-2.3587,-2.4218,-2.4821,-2.4479,-2.4323,-2.4404,-2.4121,-2.376,0.0,0.0,0.0,0.0,-2.3135,-2.3135,-2.3135,-2.3135,-2.3135,-2.3135,-2.3135,-2.3135,-2.3135,0.0,0.0,0.0,0.0,0.0,0.0,0.0,-1.0812,-1.0955,-1.1266,-1.1162,-1.1111,-1.133,-1.1373,-1.1373,-1.1287,-1.1325,0.0,0.0,0.0,0.0,0.0,0.0,0.0,0.0,-1.1671,-1.1685,-1.167,-1.167,-1.1651,-1.1596,-1.1596,-1.1423,-1.1178,-1.1149,0.0,0.0,0.0,0.0,0.0,0.0,0.0,-1.0254,0.0,0.0,0.0,0.0,0.0,0.0,0.0,0.0,0.0,0.0,0.0,0.0,0.0,-1.2592,0.0,0.0,-1.4007,-1.4403,-1.4281,-1.3797,0.0,0.0,0.0,0.0,-1.3297,-1.3417,-1.3511,-1.3511,-1.3571,-1.368,-1.3998,-1.4348,0.0,0.0,0.0,0.0,0.0,0.0,0.0,0.0,0.0,0.0,0.0,0.0,0.0,-2.2461,-2.292,-2.2605,-2.1159,-2.2235,-2.3332,-2.4402,-2.5054,-2.5459,-2.5732,-2.5449,-2.5088,-2.4658,-2.4394,-2.3945,0.0,0.0,0.0,0.0,-2.3135,-2.3135,-2.3135,-2.3135,-2.3135,-2.3135,-2.3551,-2.3714,-2.38,0.0,0.0,0.0,0.0,0.0,0.0,0.0,-1.1115,-1.1105,-1.1136,-1.1239,-1.1217,-1.1078,-1.1136,-1.1099,-1.0916,0.0,0.0,0.0,0.0,0.0,0.0,0.0,0.0,0.0,-1.1485,-1.1588,-1.1853,-1.1853,-1.1974,-1.2146,-1.2146,-1.1836,-1.1297,-1.1236,0.0,0.0,0.0,0.0,0.0,0.0,0.0,0.0,0.0,0.0,0.0,0.0,0.0,0.0,0.0,0.0,0.0,0.0,0.0,0.0,0.0,0.0,0.0,0.0,-1.2803,0.0,0.0,0.0,0.0,0.0,0.0,0.0,0.0,0.0,0.0,-1.3545,-1.3657,-1.3873,-1.4074,-1.4101,0.0,0.0,0.0,0.0,0.0,0.0,0.0,0.0,0.0,0.0,0.0,0.0,0.0,-2.2445,-2.2164,-2.2567,-2.3791,-2.502,-2.5742,-2.5742,-2.5742,-2.5742,-2.5742,-2.5703,-2.5459,-2.5019,-2.499,-2.4531,0.0,0.0,0.0,0.0,-2.3135,-2.3135,-2.3135,-2.3135,-2.3135,-2.3222,-2.4382,-2.4787,-2.4957,0.0,0.0,0.0,0.0,0.0,0.0,0.0,0.0,0.0,0.0,-1.0403,-1.0358,-1.0695,-1.0764,-1.0802,0.0,0.0,0.0,0.0,0.0,0.0,0.0,0.0,0.0,0.0,-1.126,-1.133,-1.145,-1.145,-1.1529,-1.1669,-1.1669,-1.161,-1.1449,-1.1106,-1.0724,0.0,0.0,0.0,0.0,0.0,0.0,0.0,0.0,0.0,0.0,-1.0114,-1.0312,0.0,0.0,0.0,0.0,0.0,0.0,0.0,0.0,-1.1639,-1.1738,-1.1567,0.0,-1.2241,-1.2241,-1.2166,0.0,0.0,0.0,0.0,0.0,0.0,0.0,0.0,0.0,0.0,0.0,0.0,0.0,0.0,0.0,0.0,0.0,0.0,0.0,0.0,0.0,0.0,0.0,0.0,-2.4275,-2.5346,-2.4942,-2.4913,-2.5226,-2.5538,-2.5742,-2.5742,-2.5742,-2.5742,-2.5732,-2.5391,-2.5,-2.456,-2.4238,-2.3799,0.0,0.0,0.0,-2.3135,-2.3135,-2.3135,-2.3135,-2.3135,-2.3135,-2.3222,-2.4382,-2.4787,-2.4957,0.0,0.0,0.0,0.0,0.0,0.0,0.0,0.0,0.0,0.0,0.0,-1.0198,-1.036,-1.0534,0.0,0.0,0.0,0.0,0.0,0.0,0.0,0.0,0.0,0.0,-1.0975,-1.1144,-1.1317,-1.1432,-1.1641,-1.1792,-1.1845,-1.1845,-1.174,-1.1521,-1.0989,-1.0586,0.0,0.0,0.0,0.0,-0.9725,0.0,0.0,0.0,0.0,0.0,-0.9532,-0.9649,0.0,-0.9872,-1.0228,-1.0641,0.0,0.0,0.0,0.0,-1.1239,-1.1477,-1.1326,-1.155,-1.1788,-1.1788,-1.1788,-1.1899,0.0,0.0,0.0,0.0,0.0,0.0,0.0,0.0,0.0,0.0,0.0,0.0,0.0,0.0,0.0,0.0,0.0,0.0,0.0,0.0,0.0,0.0,0.0,-2.5452,-2.6094,-2.5869,-2.5742,-2.5742,-2.5742,-2.5742,-2.5742,-2.5527,-2.5527,-2.5732,-2.5078,-2.4648,-2.4404,-2.3984,-2.3555,0.0,0.0,0.0,-2.3135,-2.3135,-2.3135,-2.3135,-2.3135,-2.3377,-2.4049,-2.5136,-2.587,-2.6438,0.0,0.0,0.0,0.0,0.0,0.0,0.0,0.0,0.0,0.0,0.0,0.0,0.0,0.0,0.0,0.0,0.0,0.0,0.0,0.0,0.0,0.0,0.0,-1.0968,-1.074,-1.1045,-1.1372,-1.1616,-1.2018,-1.2206,-1.2317,-1.2267,-1.2018,-1.1481,-1.0857,-1.0475,0.0,0.0,0.0,0.0,-0.9359,0.0,0.0,0.0,0.0,0.0,0.0,0.0,0.0,-0.9317,-0.956,-0.9826,-0.9962,0.0,0.0,0.0,0.0,0.0,-1.1345,-1.1626,-1.1826,-1.1822,-1.1831,-1.189,-1.195,0.0,0.0,0.0,0.0,0.0,0.0,0.0,0.0,0.0,0.0,0.0,0.0,0.0,0.0,0.0,0.0,0.0,0.0,0.0,0.0,0.0,0.0,-2.6133,-2.5752,-2.5742,-2.5742,-2.5742,-2.5742,-2.5703,-2.5635,-2.5322,-2.5361,-2.5723,-2.4844,-2.4414,-2.4394,-2.3916,-2.3486,-2.3135,0.0,0.0,-2.3135,-2.3135,-2.3135,-2.3135,-2.3135,-2.38,-2.4957,-2.6058,-2.7209,-2.8255,0.0,0.0,0.0,0.0,0.0,0.0,0.0,0.0,0.0,0.0,0.0,0.0,0.0,0.0,0.0,0.0,0.0,0.0,0.0,0.0,0.0,0.0,-1.0505,-1.0636,-1.0842,-1.092,-1.1223,-1.1751,-1.1976,-1.2195,-1.2382,-1.2279,-1.1835,-1.1179,-1.0705,-1.0364,-1.0116,-0.9465,-0.9248,-0.9319,-0.9319,0.0,0.0,0.0,0.0,0.0,0.0,0.0,0.0,-0.9061,-0.9266,-0.9485,-0.964,0.0,0.0,0.0,0.0,0.0,-1.167,-1.1875,-1.202,-1.1842,-1.2081,-1.2398,0.0,0.0,0.0,0.0,0.0,0.0,0.0,0.0,0.0,0.0,0.0,0.0,0.0,0.0,0.0,0.0,0.0,0.0,0.0,0.0,0.0,0.0,0.0,-2.581,-2.5742,-2.5742,-2.5742,-2.5742,-2.5742,-2.5557,-2.5176,-2.5478,-2.5674,-2.5723,-2.4844,-2.4414,-2.4385,-2.3594,-2.3203,-2.3135,0.0,-2.3135,-2.3135,-2.3135,-2.3135,-2.3135,-2.3135,-2.38,-2.4957,-2.6058,-2.7209,-2.8255,0.0,0.0,0.0,0.0,0.0,0.0,0.0,0.0,0.0,0.0,0.0,0.0,0.0,0.0,0.0,0.0,0.0,0.0,0.0,0.0,0.0,-1.0137,-1.0269,-1.0469,-1.0743,-1.0941,-1.124,-1.1527,-1.2004,-1.2133,-1.1893,-1.1841,-1.1606,-1.119,-1.0635,-1.0312,-1.0153,-0.9429,-0.9136,-0.9248,0.0,0.0,0.0,0.0,0.0,0.0,0.0,0.0,0.0,0.0,-0.9054,-0.9165,-0.9215,0.0,0.0,0.0,0.0,0.0,-1.1379,-1.1756,-1.211,-1.1978,-1.2173,-1.239,0.0,0.0,0.0,0.0,0.0,0.0,0.0,0.0,0.0,0.0,0.0,0.0,0.0,0.0,0.0,0.0,0.0,0.0,0.0,0.0,0.0,0.0,0.0,0.0,-2.5742,-2.5742,-2.5625,-2.5381,-2.5371,-2.5166,-2.4717,-2.4922,-2.5029,-2.501,-2.4141,-2.3848,-2.4053,-2.3428,-2.3135,-2.3135,0.0,-2.3135,-2.3135,-2.3135,-2.3464,-2.4049,-2.4049,-2.5041,-2.6685,-2.7867,-2.8621,-2.9106,0.0,0.0,0.0,0.0,0.0,0.0,0.0,0.0,0.0,0.0,0.0,0.0,0.0,0.0,0.0,0.0,0.0,0.0,0.0,0.0,-0.995,-0.995,-1.0049,-1.0257,-1.0601,-1.1032,-1.1269,-1.1379,-1.2028,-1.2052,-1.1557,-1.1557,-1.1455,-1.1292,-1.0565,-1.0273,-1.0221,-0.9383,-0.9056,-0.9177,0.0,0.0,0.0,0.0,0.0,0.0,0.0,0.0,0.0,0.0,0.0,0.0,0.0,0.0,0.0,-0.9844,-1.0358,-1.0989,-1.1226,-1.1617,-1.2035,-1.1998,0.0,0.0,0.0,0.0,0.0,0.0,0.0,0.0,0.0,0.0,0.0,0.0,0.0,0.0,0.0,0.0,0.0,0.0,0.0,0.0,0.0,0.0,0.0,0.0,0.0,0.0,-2.5586,-2.5586,-2.5381,-2.4932,-2.4912,-2.4707,-2.4277,-2.4268,-2.4316,-2.4404,-2.3652,-2.3467,-2.3769,-2.334,-2.3135,-2.3135,-2.3135,-2.3135,-2.3135,-2.3135,-2.38,-2.4787,-2.4787,-2.6108,-2.8255,-2.9365,-2.9792,-2.9792,0.0,0.0,0.0,0.0,0.0,0.0,0.0,0.0,0.0,0.0,0.0,0.0,0.0,0.0,0.0,0.0,0.0,0.0,0.0,0.0,-0.9723,-0.9723,-0.9631,-0.9902,-1.0668,-1.1094,-1.1396,-1.1683,-1.1895,-1.193,-1.1807,-1.1807,-1.161,-1.1292,-1.0471,-1.0183,-1.0221,-0.9383,-0.9056,-0.9177,-0.9056,0.0,0.0,0.0,0.0,0.0,0.0,0.0,0.0,0.0,0.0,0.0,0.0,0.0,-0.966,-0.9927,-1.0494,-1.1201,-1.1652,-1.1647,-1.1574,-1.1514,-1.2185,0.0,-1.3552,-1.3472,0.0,-1.4449,0.0,0.0,0.0,0.0,0.0,0.0,0.0,0.0,0.0,0.0,0.0,0.0,0.0,0.0,0.0,0.0,0.0,0.0,0.0,0.0,-2.5137,-2.5117,-2.4922,-2.4473,-2.4463,-2.4258,-2.3838,-2.3838,-2.4033,-2.4414,-2.3965,-2.376,-2.3769,-2.334,-2.3135,-2.3135,-2.3135,-2.3135,-2.3135,-2.3135,-2.38,-2.4787,-2.4787,-2.6108,-2.8255,-2.9365,-2.9792,-2.9792,0.0,0.0,0.0,0.0,0.0,0.0,0.0,0.0,0.0,0.0,0.0,0.0,0.0,0.0,0.0,0.0,0.0,0.0,0.0,0.0,-0.9554,-0.9457,-0.9658,-0.9958,-1.0436,-1.0695,-1.1039,-1.1578,-1.1566,-1.1662,-1.1788,-1.1601,-1.1413,-1.1242,-1.048,-1.0137,-1.0131,-0.9332,-0.9024,-0.9056,-0.9016,-0.9016,0.0,0.0,0.0,0.0,0.0,0.0,0.0,0.0,-0.8643,-0.8594,-0.8675,-0.9109,-0.966,-0.9844,-1.0398,-1.1048,-1.1293,-1.1562,-1.1733,-1.1715,-1.2082,0.0,0.0,-1.3174,-1.3733,-1.4669,0.0,0.0,0.0,0.0,0.0,0.0,0.0,0.0,0.0,0.0,0.0,0.0,0.0,0.0,0.0,0.0,0.0,0.0,0.0,0.0,-2.4687,-2.4668,-2.4473,-2.4043,-2.4033,-2.3818,-2.3389,-2.3389,-2.3467,-2.3623,-2.3467,-2.3389,-2.3379,-2.3213,-2.3135,-2.3135,-2.3887,-2.4125,-2.4211,-2.4893,-2.588,-2.693,-2.7614,-2.845,-2.9197,-2.9624,-2.9792,-2.9792,0.0,0.0,0.0,0.0,0.0,0.0,0.0,0.0,0.0,0.0,0.0,0.0,0.0,0.0,0.0,0.0,0.0,0.0,-0.9426,-0.9426,-0.9377,-0.9319,-0.9553,-0.9794,-1.0091,-1.0302,-1.074,-1.1427,-1.1326,-1.1404,-1.1661,-1.1396,-1.1216,-1.1071,-1.042,-1.0032,-0.9887,-0.9248,-0.9016,-0.9016,-0.9016,-0.9016,0.0,0.0,0.0,0.0,0.0,0.0,0.0,0.0,-0.8561,-0.8521,-0.8602,-0.9066,-0.966,-0.979,-1.031,-1.082,-1.0922,-1.1337,-1.1631,0.0,0.0,0.0,-1.2702,-1.3273,-1.4052,-1.514,0.0,0.0,0.0,0.0,0.0,0.0,0.0,0.0,0.0,0.0,0.0,0.0,0.0,0.0,0.0,0.0,0.0,0.0,0.0,0.0,0.0,-2.4219,-2.4023,-2.3603,-2.3584,-2.3437,-2.3135,-2.3135,-2.3135,-2.3135,-2.3135,-2.3135,-2.3135,-2.3135,-2.3299,-2.3714,-2.4457,-2.5041,-2.5378,-2.6141,-2.7128,-2.8176,-2.9365,-2.9792,-2.9792,-2.9792,-2.9792,-2.9792,0.0,0.0,0.0,0.0,0.0,0.0,0.0,0.0,0.0,0.0,0.0,0.0,0.0,0.0,0.0,0.0,0.0,0.0,-0.9279,-0.9279,-0.9279,-0.9279,-0.9217,-0.936,-0.9709,-0.9949,-1.0514,-1.1326,-1.1326,-1.1326,-1.1326,-1.1326,-1.1079,-1.0654,-1.0262,-0.9896,-0.9581,-0.9187,-0.9016,-0.9016,-0.9016,-0.9016,-0.9016,0.0,0.0,0.0,0.0,0.0,0.0,0.0,-0.8447,-0.8521,-0.8521,-0.9023,-0.966,-0.9927,-1.0253,-1.0522,-1.0675,-1.097,0.0,0.0,0.0,0.0,-1.354,-1.3881,-1.4516,0.0,0.0,0.0,0.0,0.0,0.0,0.0,0.0,0.0,0.0,0.0,0.0,0.0,0.0,0.0,0.0,0.0,0.0,0.0,0.0,0.0,0.0,-2.3779,-2.3584,-2.3154,-2.3135,-2.3135,-2.3135,-2.3135,-2.3135,-2.3135,-2.3135,-2.3135,-2.3135,-2.3135,-2.3714,-2.4787,-2.4787,-2.5462,-2.6483,-2.6565,-2.7128,-2.8255,-2.9365,-2.9792,-2.9792,-2.9792,-2.9792,-2.9792,0.0,0.0,0.0,0.0,0.0,0.0,0.0,0.0,0.0,0.0,0.0,0.0,0.0,0.0,0.0,0.0,0.0,0.0,-0.9217,-0.9217,-0.9177,-0.9096,-0.9056,-0.9245,-0.9632,-0.9949,-1.0514,-1.1326,-1.1326,-1.1326,-1.1326,-1.1326,-1.1079,-1.0654,-1.0262,-0.9896,-0.9581,-0.9187,-0.9016,-0.9016,-0.9016,-0.9016,-0.9016,0.0,0.0,0.0,0.0,0.0,0.0,0.0,0.0,0.0,-0.8521,-0.9066,-0.979,-0.9935,-1.0446,-1.0972,-1.1074,0.0,0.0,0.0,0.0,0.0,0.0,-1.4649,0.0,0.0,0.0,0.0,0.0,0.0,0.0,0.0,0.0,0.0,0.0,0.0,0.0,0.0,0.0,0.0,0.0,0.0,0.0,0.0,0.0,0.0,0.0,-2.333,-2.3271,-2.3144,-2.3135,-2.3135,-2.3135,-2.3135,-2.3135,-2.3135,-2.3877,-2.3877,-2.3135,-2.3963,-2.4457,-2.4872,-2.6438,-2.7348,-2.7695,-2.8462,-2.904,-2.9365,-2.9702,-2.9792,-2.9792,-2.9792,-2.9792,-2.9792,0.0,0.0,0.0,0.0,0.0,0.0,0.0,0.0,0.0,0.0,0.0,0.0,0.0,0.0,0.0,0.0,0.0,0.0,0.0,-0.9136,-0.9096,-0.9016,-0.9016,-0.9204,-0.9598,-0.9821,-1.0214,-1.0822,-1.0976,-1.113,-1.1318,-1.1122,-1.0942,-1.0702,-1.0118,-0.9812,-0.9581,-0.9187,-0.9016,-0.9016,-0.9016,-0.9016,-0.9016,0.0,0.0,0.0,0.0,0.0,0.0,0.0,0.0,0.0,-0.8651,0.0,-0.9645,-0.9786,-1.0099,-1.0481,-1.0517,0.0,0.0,0.0,0.0,0.0,0.0,0.0,0.0,0.0,0.0,0.0,0.0,0.0,0.0,0.0,0.0,0.0,0.0,0.0,0.0,0.0,0.0,0.0,0.0,0.0,0.0,0.0,0.0,0.0,0.0,-2.3135,-2.3135,-2.3135,-2.3135,-2.3135,-2.3135,-2.3135,-2.3135,-2.3135,-2.4296,-2.4457,-2.38,-2.4967,-2.5703,-2.6191,-2.8016,-2.8767,-2.8858,-2.9534,-2.9792,-2.9792,-2.9792,-2.9792,-2.9792,-2.9792,-2.9792,-2.9792,0.0,0.0,0.0,0.0,0.0,0.0,0.0,0.0,0.0,0.0,0.0,0.0,0.0,0.0,0.0,0.0,0.0,0.0,0.0,0.0,-0.9016,-0.9016,-0.9016,-0.9187,-0.9547,-0.9555,-0.9726,-1.0041,-1.0433,-1.0839,-1.1165,-1.0865,-1.0654,-1.0642,-0.9958,-0.9632,-0.9581,-0.9187,-0.9016,-0.9016,-0.9016,-0.9016,-0.9016,-0.9016,0.0,0.0,0.0,0.0,0.0,0.0,0.0,0.0,-0.8871,-0.9115,-0.9425,-0.9489,-0.9494,-0.9517,0.0,0.0,0.0,0.0,0.0,0.0,0.0,0.0,0.0,0.0,0.0,0.0,0.0,0.0,0.0,0.0,0.0,0.0,0.0,0.0,0.0,0.0,0.0,0.0,0.0,0.0,0.0,0.0,0.0,0.0,0.0,-2.3135,-2.3135,-2.3135,-2.3135,-2.3135,-2.3135,-2.3135,-2.3135,-2.3135,-2.4382,-2.4957,-2.4957,-2.613,-2.7209,-2.8335,-2.9365,-2.9792,-2.9792,-2.9792,-2.9792,-2.9792,-2.9792,-2.9792,-2.9792,-2.9792,-2.9792,-2.9792,0.0,0.0,0.0,0.0,0.0,0.0,0.0,0.0,0.0,0.0,0.0,0.0,0.0,0.0,0.0,0.0,0.0,0.0,0.0,0.0,-0.9016,-0.9016,-0.9016,-0.9059,-0.9144,-0.9144,-0.9332,-0.9718,-1.0041,-1.0254,-1.0386,-1.0569,-1.051,-1.0211,-1.0049,-0.9863,-0.9581,-0.9187,-0.9016,-0.9016,-0.9016,-0.9016,-0.9016,-0.9016,-0.9016,0.0,0.0,0.0,0.0,0.0,0.0,0.0,-0.8773,-0.9056,-0.9409,-0.9406,-0.9622,-0.9903,0.0,0.0,0.0,0.0,0.0,0.0,0.0,0.0,0.0,0.0,0.0,0.0,0.0,0.0,0.0,0.0,0.0,0.0,0.0,0.0,0.0,0.0,0.0,0.0,0.0,0.0,0.0,0.0,0.0,0.0,-2.3135,-2.3135,-2.3135,-2.3135,-2.3135,-2.3135,-2.3135,-2.3135,-2.3135,0.0,-2.5136,-2.6141,-2.6141,-2.7279,-2.8359,-2.9456,-2.9702,-2.9792,-2.9792,-2.9792,-2.9792,-2.9792,-2.9792,-2.9792,-2.9792,-2.9792,-2.9792,-2.9792,0.0,0.0,0.0,0.0,0.0,0.0,0.0,0.0,0.0,0.0,0.0,0.0,0.0,0.0,0.0,0.0,0.0,0.0,0.0,0.0,0.0,-0.9016,-0.9016,-0.9016,-0.9016,-0.9016,-0.9118,-0.9324,-0.947,-0.9742,-1.0092,-1.0297,-1.039,-1.0356,-1.0043,-0.9828,-0.9821,-0.9255,-0.9016,-0.9016,-0.9016,-0.9016,-0.9016,-0.9016,-0.9016,-0.9016,-0.9016,0.0,0.0,0.0,0.0,0.0,0.0,0.0,-0.9216,-0.9222,-0.9436,-0.9707,0.0,0.0,0.0,0.0,0.0,0.0,0.0,0.0,0.0,0.0,0.0,0.0,0.0,0.0,0.0,0.0,0.0,0.0,0.0,0.0,0.0,0.0,0.0,0.0,0.0,0.0,0.0,0.0,0.0,-2.2539,-2.2539,-2.2734,-2.2832,-2.2832,-2.3037,-2.3047,-2.2842,-2.3527,-2.3861,-2.3659,-2.6091,-2.7405,-2.7672,-2.85,-2.9275,-2.9792,-2.9792,-2.9792,-2.9792,-2.9792,-2.9792,-2.9792,-2.9792,-2.9792,-2.9792,-2.9792,-2.9792,-2.9792,0.0,0.0,0.0,0.0,0.0,0.0,0.0,0.0,0.0,0.0,0.0,0.0,0.0,0.0,0.0,0.0,0.0,0.0,0.0,0.0,0.0,-0.8935,-0.8935,-0.8935,-0.8935,-0.8935,-0.8935,-0.8935,-0.8935,0.0,0.0,0.0,-1.0262,-1.0552,-0.9975,-0.9863,-1.0041,-0.9291,-0.9016,-0.9016,-0.9016,-0.9016,-0.9016,-0.9016,-0.9016,-0.9016,-0.9016,-0.9016,-0.9016,-0.9016,0.0,0.0,0.0,0.0,-0.8994,-0.9004,-0.9173,-0.936,0.0,0.0,0.0,0.0,0.0,0.0,0.0,0.0,0.0,0.0,0.0,0.0,0.0,0.0,0.0,0.0,0.0,0.0,0.0,0.0,0.0,0.0,0.0,0.0,0.0,0.0,0.0,0.0,0.0,-2.1885,-2.1885,-2.2217,-2.2402,-2.2402,-2.2744,-2.284,-2.2646,-2.3875,-2.444,-2.4328,-2.6737,-2.8167,-2.88,-2.9277,-2.9503,-2.9503,-2.9503,-2.9553,-2.9641,-2.9641,-2.9704,-2.9792,-2.9792,-2.9792,-2.9792,-2.9792,-2.9792,-2.9792,0.0,0.0,0.0,0.0,0.0,0.0,0.0,0.0,0.0,0.0,0.0,0.0,0.0,0.0,0.0,0.0,0.0,0.0,0.0,0.0,0.0,-0.8724,-0.8724,-0.8724,-0.8724,-0.8724,-0.8724,-0.8724,-0.8724,0.0,0.0,0.0,0.0,-1.0169,0.0,-1.0049,-1.0041,-0.9291,-0.9016,-0.9016,-0.9016,-0.9016,-0.9016,-0.9016,-0.9016,-0.9016,-0.9016,-0.9016,-0.9016,-0.9016,-0.9016,0.0,0.0,0.0,-0.8984,-0.8994,-0.9022,-0.9088,0.0,0.0,0.0,0.0,0.0,0.0,0.0,0.0,0.0,0.0,0.0,0.0,0.0,0.0,0.0,0.0,0.0,0.0,0.0,0.0,0.0,0.0,0.0,0.0,0.0,0.0,0.0,0.0,-2.1924,-2.1885,-2.1885,-2.1934,-2.1973,-2.1973,-2.2021,-2.2406,-2.3184,-2.3398,-2.387,-2.4769,-2.6105,-2.7206,-2.8222,-2.8298,-2.8335,-2.8335,-2.8335,-2.8599,-2.9038,-2.9038,-2.934,-2.9792,-2.9792,-2.9792,-2.9792,-2.9792,-2.9792,-2.9792,0.0,0.0,0.0,0.0,0.0,0.0,0.0,0.0,0.0,0.0,0.0,0.0,0.0,0.0,0.0,0.0,0.0,0.0,0.0,0.0,0.0,-0.8716,-0.8716,-0.8716,-0.8716,-0.8716,-0.8716,-0.8716,0.0,0.0,0.0,-0.9698,-1.0027,0.0,0.0,0.0,-0.9967,-0.9427,-0.9249,-0.935,-0.935,-0.93,-0.9278,-0.9342,-0.93,-0.9278,-0.9334,-0.9478,-0.9572,-0.9418,-0.935,-0.9307,-0.9084,0.0,0.0,0.0,-0.9165,0.0,0.0,0.0,0.0,0.0,0.0,0.0,0.0,0.0,0.0,0.0,0.0,0.0,0.0,0.0,0.0,0.0,0.0,0.0,0.0,0.0,0.0,0.0,0.0,0.0,0.0,0.0,0.0,0.0,-2.1289,-2.1143,-2.1143,-2.1387,-2.1523,-2.1523,-2.2281,-2.2746,-2.2945,-2.4381,-2.5612,-2.6614,-2.687,-2.7199,-2.7632,-2.7318,-2.7519,-2.8109,-2.8109,-2.8411,-2.8925,-2.8925,-2.9277,-2.9792,-2.9792,-2.9792,-2.9792,-2.9792,-2.9792,-2.9792,0.0,0.0,0.0,0.0,0.0,0.0,0.0,0.0,0.0,0.0,0.0,0.0,0.0,0.0,0.0,0.0,0.0,0.0,0.0,0.0,0.0,-0.8643,-0.8643,-0.8643,-0.8643,-0.8643,-0.8643,0.0,0.0,0.0,-0.9237,-0.9559,-0.9935,0.0,-1.0335,-1.0186,0.0,0.0,0.0,-0.9656,-0.9613,-0.955,-0.9474,-0.944,-0.942,-0.9447,-0.9562,-0.9796,-1.0048,-0.9819,-0.9743,-0.9675,-0.929,-0.917,0.0,0.0,0.0,0.0,0.0,0.0,0.0,0.0,0.0,0.0,0.0,0.0,0.0,0.0,0.0,0.0,0.0,0.0,0.0,0.0,0.0,0.0,0.0,0.0,0.0,0.0,0.0,0.0,0.0,0.0,0.0,0.0,-2.0752,-2.0566,-2.0566,-2.0879,-2.1016,-2.0898,-2.1989,-2.2548,-2.2498,-2.4904,-2.6517,-2.7457,-2.7055,-2.6929,-2.7055,-2.6653,-2.6917,-2.7682,-2.7682,-2.7996,-2.8511,-2.8662,-2.9051,-2.9591,-2.9729,-2.9792,-2.9792,-2.9792,-2.9792,-2.9792,0.0,0.0,0.0,0.0,0.0,0.0,0.0,0.0,0.0,0.0,0.0,0.0,0.0,-0.8943,-0.8854,-0.8561,0.0,0.0,0.0,0.0,0.0,-0.8414,-0.8414,0.0,-0.8414,-0.8414,-0.8414,0.0,0.0,0.0,-0.9366,-0.939,-0.9819,-1.0482,-1.0352,-1.0278,-1.0245,0.0,0.0,0.0,0.0,0.0,0.0,-0.9098,-0.9109,0.0,0.0,0.0,-1.0003,-1.0056,-1.0058,-0.9998,-0.9692,-0.9581,-0.9504,0.0,0.0,0.0,0.0,0.0,0.0,0.0,0.0,0.0,0.0,0.0,0.0,0.0,0.0,0.0,0.0,0.0,0.0,0.0,0.0,0.0,0.0,0.0,0.0,0.0,0.0,0.0,0.0,0.0,0.0,0.0,-2.0576,-2.0566,-2.0566,-2.0586,-2.041,-1.999,-2.0477,-2.1169,-2.2021,-2.3923,-2.5169,-2.5724,-2.5699,-2.5975,-2.6571,-2.6546,-2.6559,-2.6609,-2.6609,-2.6854,-2.7406,-2.7934,-2.8473,-2.9026,-2.9578,-2.9792,-2.9792,-2.9792,-2.9792,-2.9792,0.0,0.0,0.0,0.0,0.0,0.0,0.0,0.0,0.0,0.0,0.0,0.0,0.0,-0.8805,-0.8724,-0.8521,-0.8488,0.0,0.0,0.0,0.0,-0.8414,-0.8414,-0.8414,-0.8414,-0.8332,0.0,0.0,0.0,-0.8427,-0.8975,-0.9203,-0.9613,-1.0121,-1.0332,-1.0359,-1.0286,-1.0202,0.0,0.0,0.0,0.0,0.0,0.0,0.0,0.0,0.0,0.0,0.0,-1.0433,-1.0406,-1.0356,-0.9803,-0.9606,-0.9529,-0.9136,-0.8989,0.0,0.0,0.0,0.0,0.0,0.0,0.0,0.0,0.0,0.0,0.0,0.0,0.0,0.0,0.0,0.0,0.0,0.0,0.0,0.0,0.0,0.0,0.0,0.0,0.0,0.0,0.0,0.0,0.0,0.0,-2.0029,-1.9756,-1.9746,-1.9678,-1.9512,-2.0793,-2.2254,-2.3779,-2.4471,-2.5084,-2.5598,-2.5598,-2.59,-2.6533,-2.6533,-2.6533,-2.6533,-2.6533,-2.6766,-2.7318,-2.7871,-2.8436,-2.8988,-2.9566,-2.9792,-2.9792,-2.9792,-2.9792,-2.9792,0.0,0.0,0.0,0.0,0.0,0.0,0.0,0.0,0.0,0.0,0.0,0.0,0.0,0.0,-0.8643,-0.8513,-0.8447,-0.8414,-0.8414,-0.8414,-0.8373,-0.8332,-0.8332,-0.8332,-0.8283,0.0,0.0,0.0,0.0,0.0,0.0,-0.9038,-0.9439,-0.993,-1.0176,-1.0324,0.0,0.0,0.0,-1.0795,0.0,0.0,-1.057,0.0,0.0,0.0,0.0,0.0,0.0,0.0,0.0,0.0,-0.9931,-0.9748,-0.9709,-0.9324,-0.9266,0.0,-0.9522,0.0,0.0,0.0,0.0,0.0,0.0,0.0,0.0,0.0,0.0,0.0,0.0,0.0,0.0,0.0,0.0,0.0,0.0,0.0,0.0,0.0,0.0,0.0,0.0,0.0,0.0,0.0,0.0,0.0,-1.9502,-1.9365,-1.9423,-1.9703,-2.0913,-2.2313,-2.3993,-2.414,-2.4519,-2.5059,-2.5247,-2.5636,-2.6176,-2.6445,-2.6533,-2.6533,-2.6533,-2.6666,-2.7055,-2.7607,-2.816,-2.8687,-2.9076,-2.9453,-2.9767,-2.9578,-2.9628,-2.9792,0.0,0.0,0.0,0.0,0.0,0.0,0.0,0.0,0.0,-0.8708,0.0,0.0,0.0,0.0,0.0,-0.8529,-0.8455,-0.8373,-0.8373,-0.8373,-0.8332,-0.8216,0.0,0.0,0.0,0.0,0.0,0.0,0.0,0.0,0.0,0.0,-0.9263,-0.9866,-0.9922,-1.017,-1.071,0.0,-1.1124,-1.1057,0.0,-1.0592,-1.0669,0.0,0.0,0.0,-1.083,-1.0857,0.0,0.0,0.0,0.0,0.0,0.0,-1.0024,-0.9726,0.0,0.0,0.0,0.0,0.0,0.0,0.0,0.0,0.0,0.0,0.0,0.0,0.0,0.0,0.0,0.0,0.0,0.0,0.0,0.0,0.0,0.0,0.0,0.0,0.0,0.0,0.0,0.0,0.0,0.0,-1.9268,-1.9443,-1.9834,-1.9473,-1.9663,-2.0561,-2.0555,-2.1202,-2.2486,-2.2887,-2.3427,-2.4004,-2.4556,-2.5096,-2.5611,-2.6189,-2.6533,-2.6533,-2.6533,-2.6533,-2.6571,-2.7055,-2.7595,-2.8084,-2.8097,-2.8787,-2.9691,-2.9139,-2.9289,-2.9792,0.0,0.0,0.0,0.0,0.0,0.0,0.0,-0.9193,-0.9193,0.0,0.0,0.0,-0.9148,-0.8976,-0.8789,-0.8645,-0.8391,-0.8209,-0.8111,-0.8111,-0.8111,-0.807,-0.807,-0.8028,0.0,0.0,0.0,0.0,0.0,0.0,0.0,0.0,0.0,0.0,-0.9867,-1.0083,-1.0286,-1.0755,0.0,0.0,-1.0895,-1.0804,0.0,0.0,0.0,0.0,0.0,-1.0702,0.0,0.0,-1.0775,-1.0913,0.0,0.0,0.0,0.0,0.0,0.0,-1.022,0.0,0.0,0.0,0.0,0.0,0.0,0.0,0.0,0.0,0.0,0.0,0.0,0.0,0.0,0.0,0.0,0.0,0.0,0.0,0.0,0.0,0.0,0.0,0.0,0.0,0.0,0.0,-1.8818,-1.874,-1.8545,-1.8428,-1.8754,-1.9619,-2.0281,-2.1042,-2.2091,-2.2763,-2.3427,-2.4004,-2.4556,-2.5096,-2.5611,-2.6189,-2.6533,-2.6533,-2.6533,-2.6533,-2.6571,-2.7055,-2.7369,-2.7544,-2.7946,-2.8536,-2.9151,-2.8988,-2.9289,-2.9792,0.0,0.0,0.0,0.0,0.0,0.0,-0.9398,-0.9398,-0.9398,0.0,0.0,0.0,-0.9306,-0.9087,-0.8925,-0.8828,-0.8519,-0.8284,-0.8234,-0.8055,-0.8021,-0.8021,-0.8021,-0.8021,-0.8021,0.0,0.0,0.0,0.0,0.0,0.0,0.0,0.0,0.0,0.0,0.0,0.0,0.0,0.0,0.0,-1.0997,0.0,0.0,-1.0894,-1.0788,0.0,0.0,0.0,-1.0802,-1.0546,-1.0638,0.0,0.0,0.0,0.0,0.0,0.0,0.0,0.0,0.0,0.0,0.0,0.0,0.0,-1.3045,-1.3253,0.0,0.0,0.0,0.0,0.0,0.0,0.0,0.0,0.0,0.0,0.0,0.0,0.0,0.0,0.0,0.0,0.0,-1.8496,-1.8457,-1.8379,-1.8379,-1.8271,-1.8018,-1.8174,-1.8584,-1.9309,-1.9814,-2.0655,-2.1877,-2.199,-2.2591,-2.3653,-2.4035,-2.4632,-2.5297,-2.6101,-2.6533,-2.6533,-2.6533,-2.6533,-2.6546,-2.6804,-2.708,-2.7293,-2.7381,-2.7896,-2.8586,-2.8586,-2.895,-2.9465,0.0,0.0,0.0,-0.9406,-0.9485,-0.9517,-0.9517,-0.9517,-0.9517,0.0,-0.9462,-0.9424,-0.933,-0.9159,-0.9089,-0.9089,-0.8784,-0.8585,-0.8585,-0.8303,-0.812,-0.8082,-0.8074,-0.8059,-0.8021,-0.8017,0.0,0.0,0.0,0.0,0.0,0.0,0.0,0.0,0.0,0.0,0.0,0.0,0.0,-1.1038,-1.0902,-1.0946,0.0,0.0,-1.1001,0.0,-1.1078,-1.1106,-1.0862,-1.0362,-1.0349,0.0,0.0,0.0,0.0,0.0,-1.0995,0.0,0.0,0.0,0.0,0.0,0.0,0.0,-1.2774,-1.2871,-1.3086,0.0,0.0,0.0,0.0,0.0,0.0,0.0,0.0,0.0,0.0,0.0,0.0,0.0,0.0,0.0,-1.7314,-1.7314,-1.7471,-1.7842,-1.791,-1.7939,-1.7939,-1.834,-1.8794,-1.9253,-1.9365,-2.0204,-2.1877,-2.1239,-2.1604,-2.309,-2.3466,-2.4054,-2.4858,-2.5963,-2.6533,-2.6533,-2.6533,-2.6533,-2.6533,-2.6533,-2.6753,-2.7143,-2.6722,-2.7092,-2.8009,-2.8009,-2.836,-2.8913,0.0,0.0,-0.9747,-0.9811,-1.0065,-1.0306,-1.0306,-1.0213,-1.0113,-1.0113,-1.0004,-0.9953,-1.0062,-0.9756,-0.9593,-0.9649,-0.933,-0.9082,-0.899,-0.8929,-0.8768,-0.8491,-0.8484,-0.8353,-0.8021,-0.8218,-0.8354,0.0,0.0,0.0,0.0,0.0,0.0,0.0,0.0,0.0,0.0,0.0,0.0,-1.0762,-1.0722,0.0,-1.0798,-1.0767,-1.071,-1.06,-1.073,-1.0721,-1.0651,0.0,-1.0618,-1.0654,0.0,0.0,0.0,0.0,0.0,0.0,0.0,0.0,0.0,0.0,0.0,0.0,-1.319,-1.3382,-1.3556,0.0,0.0,0.0,0.0,0.0,0.0,0.0,0.0,0.0,0.0,0.0,0.0,0.0,0.0,0.0,-1.6855,-1.6855,-1.6894,-1.6973,-1.7305,-1.75,-1.75,-1.79,-1.8484,-1.9299,-2.0009,-2.0846,-2.1877,-2.2384,-2.275,-2.309,-2.4078,-2.4613,-2.4858,-2.5963,-2.6533,-2.6533,-2.6533,-2.6533,-2.6533,-2.6533,-2.6596,-2.6684,-2.6571,-2.6866,-2.7444,-2.7444,-2.7795,-2.8348,0.0,0.0,-0.9937,-1.0069,-1.025,-1.0368,-1.0257,-1.0265,-1.0379,0.0,0.0,0.0,-1.0547,-1.0394,-1.0234,-1.0189,-0.9728,-0.9434,-0.9335,-0.9044,-0.8836,-0.8709,-0.8701,-0.8618,-0.8488,-0.861,-0.8693,-0.8739,0.0,0.0,0.0,0.0,0.0,0.0,0.0,0.0,0.0,0.0,-1.0617,-1.0585,-1.0639,0.0,-1.0671,-1.0628,-1.0624,-1.0624,-1.0624,-1.0624,-1.0618,-1.0793,-1.0773,0.0,0.0,-1.0929,-1.0982,0.0,-1.1469,-1.1521,0.0,0.0,0.0,-1.2364,0.0,0.0,0.0,-1.3372,-1.3621,0.0,0.0,0.0,0.0,0.0,0.0,0.0,0.0,0.0,0.0,0.0,0.0,0.0,0.0,0.0,-1.5762,-1.5947,-1.626,-1.6699,-1.6934,-1.7061,-1.7061,-1.7461,-1.7886,-1.8329,-1.938,-2.0398,-2.1227,-2.1678,-2.2249,-2.309,-2.354,-2.4147,-2.4845,-2.5661,-2.6189,-2.6533,-2.6533,-2.6533,-2.6533,-2.6533,-2.6533,-2.6533,-2.6533,-2.6628,-2.6904,-2.718,-2.7457,-2.777,-0.9834,0.0,-0.9972,-1.0218,-1.0265,-1.0213,-0.9999,-1.011,-1.0285,0.0,0.0,0.0,0.0,0.0,0.0,0.0,-1.0148,-0.9804,0.0,0.0,0.0,-0.9004,-0.8937,-0.8947,-0.9033,-0.9041,-0.9041,-0.9041,0.0,0.0,0.0,0.0,0.0,0.0,0.0,0.0,0.0,0.0,0.0,-1.0519,0.0,-1.0719,-1.0732,-1.0691,-1.0721,-1.0769,-1.0705,-1.0705,-1.0732,-1.0978,0.0,-1.0805,-1.0863,-1.0943,0.0,0.0,0.0,0.0,0.0,0.0,0.0,0.0,0.0,-1.3389,0.0,0.0,0.0,-1.3716,0.0,0.0,0.0,0.0,0.0,0.0,0.0,0.0,0.0,0.0,0.0,0.0,0.0,0.0,0.0,-1.5019,-1.5459,-1.6182,-1.6309,-1.6396,-1.6475,-1.6894,-1.7288,-1.7506,-1.8534,-1.9544,-2.0563,-2.0653,-2.1463,-2.2927,-2.2945,-2.3558,-2.4682,-2.531,-2.585,-2.6302,-2.6483,-2.6533,-2.6533,-2.6533,-2.6321,-2.6083,-2.6414,-2.6383,-2.6295,-2.6884,-2.7047,-2.698,-0.9733,-0.9884,0.0,-1.0043,-1.0051,-1.0051,-0.9999,-0.9895,0.0,0.0,0.0,0.0,0.0,0.0,0.0,0.0,0.0,0.0,-1.0549,0.0,0.0,-0.9695,-0.9497,-0.9339,-0.9185,-0.9242,-0.9242,-0.9242,0.0,0.0,0.0,0.0,0.0,0.0,-1.0409,0.0,0.0,0.0,-1.0521,0.0,-1.0533,-1.0668,0.0,-1.1002,-1.1163,-1.1335,-1.1073,-1.0942,-1.0974,0.0,-1.1113,-1.1036,0.0,-1.1596,-1.1466,0.0,0.0,0.0,0.0,0.0,0.0,0.0,-1.3086,0.0,0.0,0.0,-1.401,-1.4129,0.0,-1.4326,-1.4326,0.0,0.0,0.0,0.0,0.0,0.0,0.0,0.0,0.0,0.0,0.0,0.0,-1.4473,-1.4262,-1.4369,-1.4785,-1.5166,-1.5547,-1.5977,-1.6747,-1.7874,-1.806,-1.8868,-2.0428,-2.0878,-2.1547,-2.2422,-2.3354,-2.3967,-2.413,-2.5134,-2.5636,-2.5724,-2.6239,-2.6533,-2.6533,-2.6533,-2.5716,-2.4671,-2.5965,-2.5955,-2.5312,-2.6238,-2.6042,-2.5468,-0.986,-0.9951,0.0,0.0,-0.9903,-0.9844,-0.9784,-1.0104,0.0,0.0,0.0,0.0,0.0,0.0,0.0,0.0,0.0,-1.0777,0.0,0.0,0.0,0.0,0.0,0.0,-0.9416,-0.9475,-0.9475,-0.9475,-0.9424,0.0,0.0,0.0,0.0,0.0,-1.0339,0.0,-1.0497,0.0,0.0,0.0,0.0,0.0,0.0,-1.1009,-1.1077,-1.1186,-1.1061,-1.0882,-1.084,0.0,-1.1227,0.0,0.0,0.0,0.0,0.0,0.0,0.0,0.0,0.0,0.0,0.0,0.0,0.0,-1.3185,0.0,-1.414,0.0,0.0,0.0,0.0,0.0,0.0,0.0,-1.4326,0.0,0.0,0.0,0.0,0.0,0.0,0.0,0.0,0.0,0.0,0.0,-1.4307,-1.4482,-1.4658,-1.5312,-1.594,-1.6476,-1.7469,-1.8351,-1.9004,-1.9969,-2.0828,-2.1653,-2.2421,-2.3219,-2.4029,-2.4795,-2.531,-2.5624,-2.6214,-2.6533,-2.6533,-2.6533,-2.5807,-2.4753,-2.5426,-2.4885,-2.3872,-2.4507,-2.485,-2.5159,-0.9836,0.0,0.0,0.0,0.0,0.0,-0.9738,-1.0405,0.0,0.0,0.0,0.0,-1.1684,-1.1783,0.0,0.0,0.0,-1.1168,0.0,0.0,-1.0123,0.0,0.0,0.0,0.0,0.0,-0.9614,-0.9614,-0.9614,0.0,0.0,0.0,0.0,0.0,0.0,-1.0424,-1.0485,0.0,0.0,-1.053,-1.077,-1.0948,-1.1008,-1.1081,-1.1108,-1.1109,-1.1109,-1.1029,-1.1034,-1.1445,-1.1472,0.0,-1.1614,0.0,0.0,0.0,0.0,0.0,-1.3596,0.0,0.0,0.0,0.0,0.0,0.0,0.0,0.0,0.0,0.0,0.0,0.0,0.0,-1.443,0.0,0.0,0.0,0.0,0.0,0.0,0.0,0.0,0.0,0.0,0.0,0.0,0.0,0.0,-1.3848,-1.3902,-1.4658,-1.5117,-1.5234,-1.6783,-1.7669,-1.7796,-1.9039,-2.0084,-2.0768,-2.1307,-2.2079,-2.3067,-2.3591,-2.4115,-2.4627,-2.5543,-2.5946,-2.6094,-2.6383,-2.5718,-2.4448,-2.4589,-2.3595,-2.2208,-2.3116,-2.3963,-2.4683,-0.9465,-0.951,0.0,0.0,0.0,0.0,0.0,0.0,0.0,0.0,0.0,0.0,0.0,0.0,0.0,0.0,0.0,-1.1767,-1.1601,0.0,-1.0629,0.0,0.0,-0.9959,0.0,0.0,0.0,-0.9614,0.0,0.0,0.0,0.0,0.0,0.0,0.0,-1.0515,-1.0506,-1.0493,-1.0509,-1.0537,-1.0608,-1.0779,-1.1034,0.0,-1.143,-1.141,-1.141,0.0,0.0,-1.2067,-1.2026,0.0,0.0,0.0,0.0,0.0,0.0,0.0,0.0,0.0,0.0,-1.3675,0.0,0.0,0.0,0.0,-1.5095,0.0,0.0,0.0,0.0,-1.4373,-1.443,-1.4581,0.0,0.0,0.0,0.0,0.0,0.0,0.0,0.0,0.0,0.0,0.0,0.0,0.0,0.0,-1.3506,-1.3883,-1.4365,-1.4785,-1.5956,-1.6754,-1.7204,-1.8484,-1.9369,-1.9778,-2.0344,-2.0666,-2.0764,-2.126,-2.1744,-2.2229,-2.3685,-2.4644,-2.5158,-2.6094,-2.5126,-2.3018,-2.3408,-2.2125,-2.0252,-2.2603,-2.3514,-2.3672,0.0,0.0,0.0,0.0,0.0,0.0,0.0,-1.0792,0.0,0.0,0.0,0.0,0.0,0.0,-1.2832,0.0,0.0,-1.2311,-1.1821,-1.1479,0.0,0.0,0.0,-1.0284,0.0,0.0,0.0,0.0,0.0,0.0,0.0,0.0,0.0,0.0,0.0,-1.0409,0.0,0.0,0.0,0.0,0.0,-1.0928,-1.1369,0.0,0.0,-1.1423,-1.1423,-1.149,0.0,-1.2118,-1.2087,-1.1975,-1.2308,-1.2446,-1.2485,-1.26,-1.284,0.0,0.0,0.0,-1.363,-1.3331,0.0,0.0,0.0,0.0,0.0,0.0,0.0,0.0,0.0,0.0,-1.443,-1.4581,-1.4482,0.0,0.0,0.0,0.0,0.0,0.0,0.0,0.0,0.0,0.0,0.0,-1.3104,0.0,-1.3086,-1.375,-1.4145,-1.4346,-1.5543,-1.6327,-1.6477,-1.746,-1.8333,-1.8976,-1.9523,-2.0009,-2.0624,-2.1431,-2.1879,-2.208,-2.3265,-2.3864,-2.4036,-2.4397,-2.3632,-2.2338,-2.2488,-2.1652,-2.0438,-2.1247,-2.2414,-2.3734,-0.9604,0.0,0.0,0.0,0.0,0.0,0.0,0.0,0.0,0.0,-1.2862,0.0,-1.3843,0.0,-1.3566,0.0,-1.3212,-1.2812,-1.2291,-1.2069,0.0,-1.1296,-1.1033,0.0,0.0,0.0,0.0,0.0,0.0,-0.9621,0.0,0.0,0.0,0.0,0.0,0.0,0.0,0.0,-1.0553,0.0,0.0,-1.0928,0.0,0.0,-1.1208,-1.1791,0.0,-1.165,-1.1797,-1.2171,-1.2178,-1.2058,-1.2245,-1.239,-1.2513,-1.2513,-1.2664,-1.2851,-1.2863,-1.3224,0.0,-1.3657,-1.4232,0.0,-1.4576,0.0,0.0,0.0,0.0,0.0,0.0,0.0,0.0,-1.465,-1.4536,-1.4384,0.0,-1.425,0.0,0.0,0.0,0.0,0.0,0.0,0.0,-1.3379,-1.319,-1.3076,0.0,0.0,-1.4209,-1.4355,-1.575,-1.6437,-1.6299,-1.7322,-1.8011,-1.8414,-1.8711,-1.9193,-1.9873,-2.0379,-2.085,-2.1272,-2.2154,-2.2692,-2.2999,-2.3368,-2.2925,-2.2027,-2.2027,-2.1451,-2.0566,-2.0566,-2.1821,-2.3745,0.0,0.0,0.0,0.0,-1.0401,0.0,0.0,0.0,-1.2445,0.0,-1.332,-1.3874,-1.4213,-1.407,-1.409,-1.4362,-1.3944,0.0,-1.2903,-1.2869,0.0,0.0,-1.1607,-1.1519,-1.1213,0.0,0.0,0.0,0.0,0.0,0.0,0.0,0.0,0.0,-1.0368,0.0,-1.0494,-1.0494,-1.0573,-1.0645,-1.0631,-1.0819,-1.1102,-1.1022,-1.1655,-1.2466,-1.2019,-1.2058,-1.2305,-1.2305,-1.2305,-1.2305,-1.2305,-1.2305,-1.2305,-1.2378,-1.2372,-1.2451,-1.2982,-1.3407,-1.3852,-1.4505,-1.5046,0.0,0.0,0.0,-1.5812,0.0,0.0,0.0,0.0,0.0,0.0,-1.4758,-1.4367,-1.3966,-1.37,0.0,0.0,0.0,0.0,0.0,0.0,0.0,-1.3615,-1.3396,-1.3399,-1.3429,0.0,0.0,-1.4336,-1.4775,-1.6308,-1.7002,-1.6728,-1.7836,-1.8283,-1.8008,-1.8037,-1.8252,-1.8623,-1.8271,-1.8769,-1.9968,-2.0504,-2.124,-2.2027,-2.2925,-2.2776,-2.1962,-2.1962,-2.1375,-2.0644,-2.0722,-2.1897,-2.3588,-0.9135,-0.9576,-0.9984,0.0,-1.0368,-1.0483,0.0,0.0,0.0,0.0,-1.396,-1.4722,-1.5372,-1.5167,-1.4979,-1.4838,-1.4469,0.0,0.0,0.0,0.0,-1.2438,-1.2191,-1.1901,-1.1519,-1.1135,0.0,-1.0293,0.0,0.0,-0.9888,0.0,0.0,0.0,0.0,0.0,-1.0494,-1.0494,-1.0632,-1.0862,-1.0712,-1.1193,0.0,0.0,-1.1893,-1.2753,-1.2094,-1.2058,-1.2305,-1.2305,-1.2305,-1.2305,-1.2305,-1.2305,-1.2445,-1.3171,-1.331,-1.3403,-1.3719,-1.4346,-1.4766,-1.4285,-1.4899,-1.5575,0.0,0.0,0.0,0.0,0.0,0.0,0.0,0.0,0.0,0.0,0.0,0.0,0.0,0.0,0.0,-1.4017,0.0,0.0,0.0,0.0,-1.2923,-1.3244,-1.332,-1.3429,-1.3486,0.0,0.0,-1.4766,-1.5851,-1.6454,-1.6728,-1.7342,-1.7777,-1.8018,-1.833,-1.8535,-1.8652,-1.918,-1.96,-1.9922,-2.044,-2.0801,-2.1011,-2.1231,-2.1155,-2.0934,-2.0934,-2.0789,-2.0789,-2.2188,-2.2627,-2.2776,-0.9463,0.0,0.0,-1.0512,0.0,0.0,-1.1358,0.0,0.0,-1.3532,-1.4338,0.0,-1.5398,-1.5304,-1.5137,-1.4977,-1.4576,0.0,0.0,0.0,0.0,-1.2849,-1.2585,-1.2352,-1.1881,-1.1526,0.0,-1.0791,0.0,0.0,-1.0113,0.0,0.0,0.0,0.0,-1.0508,0.0,-1.0516,-1.0793,-1.1172,-1.088,0.0,0.0,-1.1753,-1.2046,-1.2558,-1.2049,-1.2058,-1.2305,-1.2305,-1.2305,-1.2305,-1.2305,-1.2305,-1.2445,-1.3455,-1.3576,-1.3628,-1.443,-1.481,-1.498,-1.4667,-1.5118,-1.5546,-1.541,-1.5584,-1.5768,0.0,0.0,0.0,0.0,0.0,0.0,0.0,0.0,0.0,0.0,0.0,0.0,0.0,0.0,0.0,0.0,-1.2964,-1.2922,-1.3176,-1.3481,-1.3841,0.0,0.0,0.0,-1.5322,-1.6205,-1.667,-1.6665,-1.7529,-1.8047,-1.8291,-1.8525,-1.8838,-1.9209,-1.9502,-1.9844,-2.0205,-2.0254,-2.0391,-2.0566,-2.0566,-2.0566,-2.0566,-2.0566,-2.0566,-2.0789,-2.2264,-2.2478,-2.2253,0.0,0.0,0.0,0.0,0.0,0.0,0.0,-1.2825,0.0,-1.3851,0.0,-1.5064,-1.5023,-1.5023,-1.499,-1.491,0.0,-1.4021,-1.3721,-1.3701,-1.3434,-1.2909,-1.2882,-1.2645,-1.2311,-1.1868,0.0,0.0,0.0,0.0,0.0,0.0,0.0,0.0,0.0,0.0,0.0,-1.0642,-1.1003,-1.1501,-1.1195,-1.1403,-1.1924,-1.1884,-1.2051,-1.2271,-1.2017,-1.2091,-1.2291,-1.2258,-1.2271,-1.2305,-1.2305,-1.2305,-1.2512,-1.3476,-1.3555,-1.3585,-1.5041,-1.5133,-1.4964,-1.5341,-1.541,-1.541,-1.541,-1.541,-1.541,-1.541,-1.5298,-1.5253,0.0,0.0,0.0,0.0,0.0,0.0,0.0,0.0,0.0,0.0,0.0,0.0,0.0,0.0,-1.3276,-1.3186,-1.3712,-1.4333,0.0,0.0,0.0,-1.5968,-1.671,-1.7051,-1.6904,0.0,-1.8455,-1.8809,-1.875,-1.9141,-1.9902,-1.96,-1.9863,-2.0547,-2.0166,-2.0215,-2.0566,-2.0566,-2.0566,-2.0566,-2.0566,-2.0566,-2.0712,-2.1517,-2.1811,-2.1886,0.0,0.0,0.0,0.0,0.0,-1.2896,-1.3346,-1.3828,-1.4249,-1.4355,-1.513,-1.5585,-1.5344,-1.5317,-1.5124,-1.4643,-1.4502,0.0,0.0,0.0,0.0,-1.3153,-1.3126,-1.2872,-1.2311,-1.2198,-1.1975,0.0,0.0,0.0,0.0,0.0,0.0,0.0,0.0,0.0,-1.1319,-1.1326,0.0,-1.1837,-1.145,-1.1703,-1.2204,-1.1957,-1.2051,-1.2291,-1.2245,-1.2258,-1.2265,-1.2024,-1.2104,-1.2305,-1.2305,-1.2305,-1.2538,-1.3964,-1.4324,-1.447,-1.5682,-1.593,-1.5776,-1.5459,-1.541,-1.541,-1.541,-1.541,-1.541,-1.541,-1.5352,-1.5339,-1.5233,0.0,0.0,0.0,0.0,0.0,0.0,0.0,0.0,0.0,0.0,0.0,0.0,0.0,0.0,0.0,0.0,0.0,0.0,0.0,0.0,0.0,-1.5694,0.0,0.0,0.0,-1.7949,-1.9687,-1.9346,-1.9434,-1.9922,-2.0215,-2.043,-2.0634,-2.0478,-2.0498,-2.0566,-2.0566,-2.0566,-2.0566,-2.0566,-2.0566,-2.0644,-2.0789,-2.0857,-2.1088,0.0,0.0,0.0,0.0,0.0,0.0,0.0,-1.4823,0.0,-1.479,-1.4983,-1.5097,-1.4957,-1.4943,-1.483,-1.4543,-1.4382,-1.4235,-1.4095,-1.3801,-1.3507,-1.322,-1.2906,0.0,-1.2311,-1.2305,-1.2158,-1.1812,0.0,0.0,0.0,0.0,0.0,0.0,0.0,-1.1577,0.0,0.0,0.0,-1.2141,-1.178,-1.1917,-1.2285,-1.2144,-1.2178,-1.2285,-1.2131,-1.2178,-1.2278,-1.2138,-1.2542,-1.3025,-1.3025,-1.3375,-1.4022,-1.4924,-1.5085,-1.5081,-1.5852,-1.5898,-1.5674,-1.5469,-1.541,-1.541,-1.541,-1.541,-1.541,-1.541,-1.541,-1.5409,-1.5328,-1.5154,0.0,0.0,0.0,0.0,0.0,0.0,0.0,0.0,0.0,0.0,0.0,0.0,0.0,0.0,0.0,0.0,0.0,0.0,0.0,0.0,0.0,0.0,0.0,0.0,0.0,-1.959,-1.9385,-1.9629,-2.0254,-2.0469,-2.0566,-2.0566,-2.0566,-2.0566,-2.0566,-2.0566,-2.0566,-2.0566,-2.0566,-2.0566,-2.0566,-2.0566,-2.0566,-2.0712,0.0,-1.2225,0.0,0.0,-1.3721,0.0,-1.481,-1.5364,-1.5571,-1.5117,-1.485,-1.4656,-1.4536,-1.4522,-1.4496,-1.4436,-1.4162,-1.3988,-1.3988,-1.35,-1.318,-1.3113,-1.2652,-1.2365,-1.2305,-1.2305,-1.2188,0.0,0.0,0.0,0.0,0.0,0.0,0.0,0.0,0.0,0.0,0.0,-1.1888,-1.2386,-1.2101,-1.2098,-1.2305,-1.2305,-1.2305,-1.2271,-1.2044,-1.2104,-1.2305,-1.2519,-1.3098,-1.3658,-1.3591,-1.4269,-1.5096,-1.5521,-1.5438,-1.5305,-1.5783,-1.5674,-1.541,-1.541,-1.541,-1.541,-1.541,-1.541,-1.541,-1.541,-1.541,-1.541,-1.541,-1.5318,0.0,0.0,0.0,0.0,0.0,0.0,0.0,0.0,0.0,0.0,0.0,0.0,0.0,0.0,0.0,0.0,0.0,0.0,0.0,0.0,0.0,-1.7021,-1.7074,0.0,-1.8682,-1.9551,-1.9375,-1.9736,-2.0566,-2.0566,-2.0566,-2.0566,-2.0566,-2.0566,-2.0566,-2.0566,-2.0566,-2.0566,-2.0566,-2.0566,-2.0566,-2.0566,-2.0566,-2.0566,0.0,0.0,0.0,0.0,0.0,0.0,-1.4596,-1.5057,-1.5418,-1.5364,-1.5331,-1.511,-1.4576,-1.4522,-1.4416,-1.4155,-1.3854,-1.3687,-1.3687,-1.3387,-1.3086,-1.2882,-1.2808,-1.2579,-1.2311,-1.2305,-1.229,0.0,0.0,-1.1934,0.0,0.0,0.0,0.0,0.0,0.0,0.0,-1.2333,-1.2322,-1.2338,-1.2258,-1.2278,-1.2305,-1.2305,-1.2305,-1.2298,-1.2271,-1.2278,-1.2445,-1.331,-1.36,-1.3621,-1.326,-1.3785,-1.4595,-1.4751,-1.4765,-1.4834,-1.535,-1.5439,-1.541,-1.541,-1.541,-1.541,-1.541,-1.541,-1.541,-1.541,-1.541,-1.541,-1.541,-1.5381,-1.5352,0.0,0.0,0.0,0.0,0.0,0.0,0.0,0.0,0.0,0.0,-1.4245,0.0,0.0,0.0,0.0,0.0,0.0,0.0,-1.6097,0.0,-1.6514,-1.8368,-1.7432,-1.8105,-2.0439,-1.9658,-1.9736,-2.0566,-2.0566,-2.0566,-2.0566,-2.0566,-2.0566,-2.0566,-2.0566,-2.0566,-2.0566,-2.0566,-2.0566,-2.0566,-2.0566,-2.0566,-2.0566,0.0,0.0,0.0,0.0,0.0,0.0,0.0,-1.5244,-1.5271,-1.4917,-1.487,-1.4776,-1.4543,-1.4362,-1.4142,-1.3848,-1.3714,-1.3492,-1.3394,-1.31,-1.2872,-1.2829,-1.2579,-1.2425,-1.2305,-1.2305,-1.2303,0.0,0.0,0.0,0.0,0.0,0.0,0.0,0.0,-1.2408,-1.2374,-1.2339,-1.2344,-1.2305,-1.2305,-1.2305,-1.2305,-1.2305,-1.2305,-1.2305,-1.2305,-1.2659,-1.3171,-1.36,-1.3889,-1.4252,-1.466,-1.5277,-1.579,-1.5604,-1.5557,-1.5533,-1.541,-1.541,-1.541,-1.541,-1.541,-1.541,-1.541,-1.541,-1.541,-1.541,-1.541,-1.541,-1.541,-1.541,-1.541,0.0,0.0,0.0,0.0,0.0,0.0,0.0,0.0,0.0,0.0,0.0,0.0,0.0,0.0,0.0,0.0,0.0,0.0,-1.6297,0.0,-1.6748,-1.7871,-1.7627,-1.8271,-1.9795,-1.9453,-1.9736,-2.0566,-2.0566,-2.0566,-2.0566,-2.0566,-2.0566,-2.0566,-2.0566,-2.0566,-2.0566,-2.0566,-2.0566,-2.0566,-2.0566,-2.0566,-2.0566,-1.4289,0.0,-1.4629,0.0,-1.515,-1.513,-1.5251,-1.5197,-1.4957,-1.4462,-1.4396,-1.4396,-1.4396,-1.4208,-1.4001,-1.3794,-1.3614,-1.3427,-1.3227,-1.2839,-1.2619,-1.2619,-1.2412,0.0,-1.2305,-1.2305,-1.2271,-1.2134,-1.2622,0.0,0.0,0.0,0.0,0.0,-1.2403,-1.2409,-1.237,-1.2284,-1.2305,-1.2305,-1.2305,-1.2305,-1.2305,-1.2305,-1.2305,-1.2305,-1.2305,-1.2879,-1.3745,-1.4027,-1.4431,-1.4858,-1.5526,-1.6067,-1.6445,-1.6006,-1.5869,-1.5801,-1.5498,-1.541,-1.541,-1.541,-1.541,-1.541,-1.541,-1.541,-1.541,-1.541,-1.541,-1.541,-1.541,-1.541,-1.541,-1.541,0.0,0.0,0.0,0.0,0.0,0.0,-1.4893,-1.4861,-1.4592,0.0,0.0,0.0,0.0,0.0,0.0,0.0,0.0,0.0,0.0,0.0,-1.7559,-1.7734,-1.832,-1.9287,-1.9287,-1.9736,-2.0566,-2.0566,-2.0566,-2.0566,-2.0566,-2.0566,-2.0566,-2.0566,-2.0566,-2.0566,-2.0566,-2.0566,-2.0566,-2.0566,-2.0566,-2.0566,-1.4897,-1.5184,-1.5471,-1.5765,-1.5578,-1.5297,-1.501,-1.4716,-1.4429,-1.4128,-1.4088,-1.4088,-1.4088,-1.4088,-1.4088,-1.4082,-1.3547,-1.3213,-1.3213,-1.2645,-1.2305,0.0,0.0,-1.2305,-1.2305,-1.2305,-1.2298,-1.2298,0.0,0.0,-1.2417,0.0,-1.2405,-1.2424,-1.2431,-1.2384,-1.2298,-1.2305,-1.2305,-1.2305,-1.2305,-1.2305,-1.2305,-1.2305,-1.2305,-1.2305,-1.2305,-1.2879,-1.3818,-1.4879,-1.5232,-1.5265,-1.533,-1.5701,-1.6047,-1.5547,-1.542,-1.542,-1.541,-1.541,-1.541,-1.541,-1.541,-1.541,-1.541,-1.541,-1.541,-1.541,-1.541,-1.541,-1.541,-1.541,-1.541,-1.541,0.0,0.0,0.0,0.0,0.0,0.0,-1.5146,-1.5244,-1.4824,0.0,0.0,0.0,0.0,0.0,0.0,0.0,0.0,-1.6699,-1.6299,0.0,-1.7988,-1.7598,-1.8027,-1.9287,-1.9287,-1.9736,-2.0566,-2.0566,-2.0566,-2.0566,-2.0566,-2.0566,-2.0566,-2.0566,-2.0566,-2.0566,-2.0566,-2.0566,-2.0566,-2.0566,-2.0566,-2.0566,-1.5164,-1.517,-1.5197,-1.5484,-1.5297,-1.5003,-1.4703,-1.4583,-1.4416,-1.4128,-1.4088,-1.4088,-1.4088,-1.4088,-1.3928,0.0,-1.332,-1.3033,0.0,-1.2412,-1.2305,-1.2305,-1.2305,-1.2305,-1.2305,-1.2305,-1.2305,-1.2305,0.0,0.0,0.0,-1.2501,-1.2381,-1.2303,-1.2303,-1.2284,-1.2305,-1.2305,-1.2305,-1.2305,-1.2305,-1.2305,-1.2305,-1.2305,-1.2305,-1.2372,-1.3025,-1.3882,-1.4838,-1.5489,-1.596,-1.6208,-1.5913,-1.5715,-1.5586,-1.5449,-1.541,-1.541,-1.541,-1.541,-1.541,-1.541,-1.541,-1.541,-1.541,-1.541,-1.541,-1.541,-1.541,-1.541,-1.541,-1.541,-1.541,-1.541,-1.541,0.0,0.0,0.0,0.0,0.0,-1.5332,-1.5361,0.0,-1.5332,0.0,0.0,0.0,0.0,0.0,0.0,0.0,0.0,-1.6717,0.0,-1.8428,-1.8301,-1.874,-1.9717,-1.9717,-2.0176,-2.1025,-2.1025,-2.1025,-2.1025,-2.1025,-2.085,-2.0566,-2.0566,-2.0566,-2.0566,-2.0566,-2.0566,-2.0566,-2.0566,-2.0566,-2.0566,-1.4997,-1.501,-1.5023,-1.5204,-1.499,-1.4736,-1.4549,-1.4429,-1.4295,-1.4115,-1.4088,-1.4088,-1.4088,-1.4088,0.0,-1.3574,-1.344,-1.3166,-1.2679,-1.2532,-1.2418,-1.2305,-1.2305,-1.2305,-1.2305,-1.2305,0.0,-1.2305,-1.2526,-1.2673,-1.2666,-1.248,-1.2342,-1.2305,-1.2305,-1.2305,-1.2305,-1.2305,-1.2305,-1.2305,-1.2305,-1.2305,-1.2305,-1.2305,-1.2519,-1.2879,-1.3455,-1.4593,-1.5756,-1.6064,-1.6384,-1.668,-1.6406,-1.6016,-1.5625,-1.5459,-1.5527,-1.5615,-1.5459,-1.5527,-1.5615,-1.5449,-1.541,-1.541,-1.541,-1.541,-1.541,-1.541,-1.541,-1.541,-1.541,-1.541,-1.541,-1.541,-1.541,-1.541,-1.541,0.0,0.0,0.0,0.0,0.0,0.0,-1.541,-1.5527,0.0,0.0,0.0,0.0,0.0,0.0,-1.6961,-1.7105,-1.7666,-1.8623,-1.8799,-1.9228,-1.9912,-2.0078,-2.0449,-2.0986,-2.0986,-2.0986,-2.0986,-2.0986,-2.082,-2.0566,-2.0566,-2.0566,-2.0566,-2.0566,-2.0566,-2.0566,-2.0566,-2.0566,-2.0566,-1.4516,-1.473,-1.491,0.0,-1.4689,0.0,-1.4489,-1.4262,-1.4088,-1.4088,-1.4088,-1.4088,-1.4088,-1.4088,-1.4082,-1.4055,0.0,0.0,0.0,-1.2919,-1.2625,-1.2345,-1.2311,-1.2305,-1.2305,-1.2305,-1.2305,-1.2305,-1.2305,-1.2305,-1.2305,-1.2305,-1.2305,-1.2305,-1.2305,-1.2305,-1.2305,-1.2305,-1.2305,-1.2305,-1.2305,-1.2305,-1.2305,-1.2305,-1.2806,-1.36,-1.3745,-1.4942,-1.6489,-1.66,-1.6665,-1.6714,-1.6685,-1.6445,-1.6016,-1.5547,-1.5742,-1.6016,-1.5576,-1.5752,-1.6027,-1.5557,-1.543,-1.543,-1.5488,-1.5459,-1.542,-1.5449,-1.543,-1.541,-1.541,-1.541,-1.541,-1.541,-1.541,-1.541,-1.541,0.0,0.0,0.0,0.0,0.0,0.0,-1.5439,-1.5459,0.0,0.0,0.0,0.0,0.0,-1.6695,-1.6768,-1.7578,-1.8223,-1.8601,-1.9111,-1.9541,-1.9961,-2.04,-2.0625,-2.0654,-2.0654,-2.0654,-2.0654,-2.0625,-2.0596,-2.0566,-2.0566,-2.0566,-2.0566,-2.0566,-2.0566,-2.0566,-2.0566,-2.0566,-2.0566,0.0,0.0,-1.4362,-1.4589,-1.4382,-1.4188,-1.4188,-1.4128,-1.4088,-1.4088,-1.4088,-1.4088,-1.4088,-1.4088,-1.3995,-1.3768,-1.3687,-1.352,-1.3227,-1.2919,-1.2795,-1.2721,-1.2425,-1.2305,-1.2305,-1.2305,-1.2305,-1.2305,-1.2305,-1.2305,-1.2305,-1.2305,-1.2305,-1.2305,-1.2305,-1.2305,-1.2305,-1.2305,-1.2305,-1.2305,-1.2305,-1.2305,-1.2305,-1.2305,-1.2445,-1.2806,-1.4307,-1.5163,-1.5685,-1.6794,-1.7185,-1.7168,-1.6836,-1.666,-1.6426,-1.5644,-1.5967,-1.6475,-1.6025,-1.6047,-1.6096,-1.5928,-1.5654,-1.5586,-1.6269,-1.5898,-1.5508,-1.584,-1.5644,-1.541,-1.541,-1.541,-1.541,-1.541,-1.541,-1.541,-1.541,-1.541,0.0,0.0,-1.5703,-1.5781,-1.5439,-1.5713,-1.5908,0.0,0.0,0.0,0.0,-1.7521,-1.778,-1.7236,-1.7734,-1.8369,-1.9131,-1.9551,-1.998,-2.042,-2.0859,-2.125,-2.1572,-2.1572,-2.1572,-2.1553,-2.1221,-2.0879,-2.0566,-2.0566,-2.0566,-2.0566,-2.0566,-2.0566,-2.0566,-2.0566,-2.0566,-2.0566,-1.4295,-1.4195,-1.4135,-1.4295,-1.4195,-1.4088,-1.4088,-1.4088,-1.4088,-1.4088,-1.4088,-1.4088,-1.4088,-1.4088,-1.4021,-1.3861,-1.3721,-1.352,-1.3227,-1.2919,-1.2822,-1.2822,-1.2458,-1.2305,-1.2305,-1.2305,-1.2305,-1.2305,-1.2305,-1.2305,-1.2305,-1.2305,-1.2305,-1.2305,-1.2305,-1.2305,-1.2305,-1.2305,-1.2305,-1.2305,-1.2305,-1.2305,-1.2305,-1.2305,-1.2872,-1.373,-1.4807,-1.5728,-1.6618,-1.7398,-1.7539,-1.7344,-1.7109,-1.7031,-1.6894,-1.6221,-1.6494,-1.6934,-1.6494,-1.6514,-1.6621,-1.6416,-1.6191,-1.6143,-1.6558,-1.6357,-1.6084,-1.6318,-1.6182,-1.5957,-1.5742,-1.5703,-1.5644,-1.5439,-1.541,-1.541,-1.541,-1.541,0.0,-1.5684,-1.5918,-1.6055,-1.6016,-1.623,-1.6367,-1.6367,-1.6678,0.0,-1.7295,-1.8075,-1.831,-1.7686,-1.8457,-1.9102,-1.957,-2.0,-2.0332,-2.0566,-2.081,-2.1055,-2.1279,-2.1279,-2.1279,-2.1269,-2.1035,-2.0791,-2.0566,-2.0566,-2.0566,-2.0566,-2.0566,-2.0566,-2.0566,-2.0566,-2.0566,-2.0566,-1.4088,-1.4088,-1.4088,-1.4088,-1.4088,-1.4088,-1.4088,-1.4088,-1.4088,-1.4088,-1.4088,-1.4088,-1.4088,-1.4088,-1.4068,-1.4021,-1.3788,-1.354,-1.3293,-1.2986,-1.2876,-1.2829,-1.2458,-1.2305,-1.2305,-1.2305,-1.2305,-1.2305,-1.2305,-1.2305,-1.2305,-1.2305,-1.2305,-1.2305,-1.2305,-1.2305,-1.2305,-1.2305,-1.2305,-1.2305,-1.2305,-1.2305,-1.2305,-1.2305,-1.3302,-1.4807,-1.495,-1.6088,-1.7588,-1.7725,-1.7639,-1.748,-1.748,-1.748,-1.7402,-1.7031,-1.7187,-1.7383,-1.6953,-1.71,-1.7295,-1.6924,-1.6777,-1.6704,-1.6894,-1.6763,-1.6748,-1.6816,-1.6777,-1.6592,-1.6143,-1.6125,-1.5947,-1.5566,-1.5459,-1.543,-1.5498,0.0,-1.5644,-1.6016,-1.6243,-1.6416,-1.6797,-1.6885,-1.6953,-1.6947,-1.7363,-1.7754,-1.8174,-1.8603,-1.8672,-1.8311,-1.9346,-1.9941,-2.001,-2.0381,-2.0566,-2.0566,-2.0635,-2.0664,-2.0664,-2.0664,-2.0664,-2.0664,-2.0596,-2.0566,-2.0566,-2.0566,-2.0566,-2.0566,-2.0566,-2.0566,-2.0566,-2.0566,-2.0566,-2.0566,-1.4088,-1.4088,-1.4088,-1.4088,-1.4088,-1.4088,-1.4088,-1.4088,-1.4088,-1.4088,-1.4088,-1.4088,-1.4088,-1.4088,-1.3988,-1.3734,-1.3667,-1.3546,-1.3581,-1.33,-1.3019,-1.2835,-1.2458,-1.2305,-1.2305,-1.2305,-1.2305,-1.2305,-1.2305,-1.2305,-1.2305,-1.2305,-1.2305,-1.2305,-1.2305,-1.2305,-1.2305,-1.2305,-1.2305,-1.2305,-1.2305,-1.2305,-1.2305,-1.2305,-1.2519,-1.2872,-1.3665,-1.4665,-1.5737,-1.6524,-1.7335,-1.791,-1.791,-1.791,-1.79,-1.7832,-1.7861,-1.7822,-1.7393,-1.7334,-1.7363,-1.7305,-1.7002,-1.686,-1.7646,-1.7246,-1.6836,-1.7207,-1.6992,-1.6592,-1.6143,-1.6125,-1.6105,-1.5977,-1.5654,-1.5537,-1.5908,0.0,-1.6047,-1.6115,-1.6719,-1.7207,-1.7275,-1.7607,-1.7959,-1.8311,-1.8398,-1.8633,-1.9062,-1.9492,-1.9687,-1.9619,-1.9814,-2.0088,-2.0459,-2.0527,-2.0566,-2.0566,-2.0947,-2.1133,-2.1133,-2.1133,-2.1133,-2.1113,-2.0732,-2.0566,-2.0566,-2.0566,-2.0566,-2.0566,-2.0566,-2.0566,-2.0566,-2.0566,-2.0566,-2.0566,-1.4088,-1.4088,-1.4088,-1.4088,-1.4088,-1.4088,-1.4088,-1.4088,-1.4088,-1.4088,-1.4088,-1.4088,-1.4088,-1.4088,-1.4035,-1.3895,-1.3734,-1.3581,-1.342,-1.3126,-1.2973,-1.2993,-1.2552,-1.2305,-1.2305,-1.2305,-1.2305,-1.2305,-1.2305,-1.2305,-1.2305,-1.2305,-1.2305,-1.2305,-1.2305,-1.2305,-1.2305,-1.2305,-1.2305,-1.2305,-1.2305,-1.2305,-1.2305,-1.2305,-1.2945,-1.3882,-1.3745,-1.5021,-1.6724,-1.6655,-1.7226,-1.8008,-1.8008,-1.8008,-1.8008,-1.8008,-1.8008,-1.7969,-1.7773,-1.7881,-1.8057,-1.8057,-1.791,-1.7861,-1.8262,-1.7861,-1.748,-1.7676,-1.7559,-1.7285,-1.6855,-1.6582,-1.6426,-1.6426,-1.585,0.0,-1.6328,-1.6211,-1.624,-1.6719,-1.7334,-1.7812,-1.8037,-1.8447,-1.8779,-1.8975,-1.8984,-1.917,-1.96,-1.959,-1.9785,-2.0254,-2.0264,-2.0361,-2.0566,-2.0566,-2.0566,-2.0566,-2.0781,-2.0869,-2.0869,-2.0869,-2.0869,-2.0859,-2.0654,-2.0566,-2.0566,-2.0566,-2.0566,-2.0566,-2.0566,-2.0566,-2.0566,-2.0566,-2.0934,-2.1375,-1.4088,-1.4088,-1.4088,-1.4088,-1.4088,-1.4088,-1.4088,-1.4088,-1.4088,-1.4088,-1.4088,-1.4088,-1.4088,-1.4088,-1.4088,-1.4088,-1.3814,-1.3547,-1.3327,-1.2959,-1.2826,-1.2993,-1.2552,-1.2305,-1.2305,-1.2305,-1.2305,-1.2305,-1.2305,-1.2305,-1.2305,-1.2305,-1.2305,-1.2305,-1.2305,-1.2305,-1.2305,-1.2305,-1.2305,-1.2305,-1.2305,-1.2305,-1.2305,-1.2305,-1.323,-1.445,-1.3665,-1.5092,-1.7226,-1.6498,-1.707,-1.8008,-1.8008,-1.8008,-1.8008,-1.8008,-1.8076,-1.8135,-1.8037,-1.8242,-1.8446,-1.8613,-1.8564,-1.8516,-1.8613,-1.8311,-1.8008,-1.8008,-1.8008,-1.791,-1.7588,-1.7256,-1.7031,-1.7031,0.0,-1.6103,0.0,-1.6582,-1.666,-1.7432,-1.79,-1.832,-1.874,-1.918,-1.9434,-1.9434,-1.9521,-1.9678,-1.9902,-1.9707,-1.9883,-2.0547,-2.0566,-2.0566,-2.0566,-2.0566,-2.0566,-2.0566,-2.0566,-2.0566,-2.0566,-2.0566,-2.0566,-2.0566,-2.0566,-2.0566,-2.0566,-2.0566,-2.0566,-2.0566,-2.0566,-2.0566,-2.0644,-2.0867,-2.1375,-2.2027,-1.4088,-1.4088,-1.4088,-1.4088,-1.4088,-1.4088,-1.4088,-1.4088,-1.4088,-1.4088,-1.4088,-1.4088,-1.4088,-1.4088,-1.4088,-1.4088,-1.3814,-1.3552,-1.3532,-1.3066,-1.2632,-1.2378,-1.2325,-1.2305,-1.2305,-1.2305,-1.2305,-1.2305,-1.2305,-1.2305,-1.2305,-1.2305,-1.2305,-1.2305,-1.2305,-1.2305,-1.2305,-1.2305,-1.2305,-1.2305,-1.2305,-1.2305,-1.2305,-1.2305,-1.2372,-1.2519,-1.2445,-1.373,-1.5376,-1.5305,-1.6507,-1.8008,-1.8008,-1.8008,-1.8008,-1.8008,-1.8281,-1.8506,-1.8115,-1.8037,-1.8154,-1.8545,-1.835,-1.8154,-1.8545,-1.8311,-1.8008,-1.8008,-1.8008,-1.7998,-1.7969,-1.7939,-1.792,-1.792,0.0,0.0,-1.7324,-1.7305,-1.7461,-1.791,-1.833,-1.876,-1.9199,-1.9619,-1.9873,-1.9873,-2.0244,-2.0303,-1.9932,-2.0273,-2.0498,-2.0566,-2.0566,-2.0566,-2.0566,-2.0566,-2.0566,-2.0566,-2.0566,-2.0566,-2.0566,-2.0566,-2.0566,-2.0566,-2.0566,-2.0566,-2.0566,-2.0566,-2.0566,-2.0566,-2.0566,-2.0566,-2.0712,-2.1593,-2.1952,-2.2027,-1.4088,-1.4088,-1.4088,-1.4088,-1.4088,-1.4088,-1.4088,-1.4088,-1.4088,-1.4088,-1.4088,-1.4088,-1.4088,-1.4088,-1.4088,-1.4088,-1.3654,-1.3454,-1.3552,-1.2906,-1.2418,-1.2305,-1.2305,-1.2305,-1.2305,-1.2305,-1.2305,-1.2305,-1.2305,-1.2305,-1.2305,-1.2305,-1.2305,-1.2305,-1.2305,-1.2305,-1.2305,-1.2305,-1.2305,-1.2305,-1.2305,-1.2305,-1.2305,-1.2305,-1.2666,-1.3098,-1.2519,-1.352,-1.5234,-1.5234,-1.6079,-1.7217,-1.7794,-1.8008,-1.8008,-1.8008,-1.8125,-1.8213,-1.8057,-1.8584,-1.917,-1.9072,-1.8916,-1.8848,-1.9004,-1.8711,-1.8398,-1.8398,-1.8613,-1.8799,-1.8799,-1.8584,-1.8486,-1.876,0.0,-1.7959,-1.8486,-1.833,-1.832,-1.875,-1.917,-1.9394,-1.9297,-1.9668,-1.9912,-1.9912,-1.9824,-1.9932,-2.0303,-2.0478,-2.0439,-2.0166,-2.042,-2.0566,-2.0566,-2.0566,-2.0566,-2.0566,-2.0566,-2.0566,-2.0566,-2.0566,-2.0566,-2.0566,-2.0566,-2.0566,-2.0566,-2.0566,-2.0566,-2.0566,-2.0566,-2.0566,-2.0644,-2.1001,-2.1517,-2.2103,-1.4088,-1.4088,-1.4088,-1.4088,-1.4088,-1.4088,-1.4088,-1.4088,-1.4088,-1.4088,-1.4088,-1.4088,-1.4088,-1.4088,-1.4088,-1.4088,-1.3634,-1.3394,-1.35,-1.2752,-1.2305,-1.2305,-1.2305,-1.2305,-1.2305,-1.2305,-1.2305,-1.2305,-1.2305,-1.2305,-1.2305,-1.2305,-1.2305,-1.2305,-1.2305,-1.2305,-1.2305,-1.2305,-1.2305,-1.2305,-1.2305,-1.2305,-1.2305,-1.2305,-1.2739,-1.3164,-1.2519,-1.352,-1.5234,-1.5234,-1.6009,-1.7139,-1.7794,-1.8105,-1.8213,-1.8213,-1.8301,-1.8408,-1.8408,-1.915,-1.9814,-1.9394,-1.9189,-1.915,-1.9424,-1.9043,-1.8601,-1.8818,-1.9082,-1.9326,-1.9463,-1.9238,-1.9141,-1.9434,-1.8994,-1.8769,-1.9219,-1.9023,-1.9004,-1.9434,-1.9736,-1.9746,-1.9326,-1.9795,-2.001,-1.9736,-1.957,-1.9746,-2.0332,-2.0361,-2.0283,-2.0127,-2.041,-2.0566,-2.0566,-2.0566,-2.0566,-2.0566,-2.0566,-2.0566,-2.0566,-2.0566,-2.0566,-2.0566,-2.0566,-2.0566,-2.0566,-2.0566,-2.0566,-2.0566,-2.0566,-2.0566,-2.0644,-2.0934,-2.1359,-2.1892,-1.4088,-1.4088,-1.4088,-1.4082,-1.4088,-1.4088,-1.4082,-1.4088,-1.4088,-1.4088,-1.4088,-1.4088,-1.4088,-1.4088,-1.4088,-1.4088,-1.3814,-1.3514,-1.322,-1.2639,-1.2305,-1.2305,-1.2305,-1.2305,-1.2305,-1.2305,-1.2305,-1.2305,-1.2305,-1.2305,-1.2305,-1.2305,-1.2305,-1.2305,-1.2305,-1.2305,-1.2305,-1.2305,-1.2305,-1.2305,-1.2305,-1.2305,-1.2305,-1.2305,-1.2305,-1.2305,-1.2305,-1.352,-1.5163,-1.5234,-1.6446,-1.8008,-1.8008,-1.8301,-1.8562,-1.8562,-1.8945,-1.9287,-1.9287,-1.959,-1.9814,-1.9394,-1.8965,-1.8867,-1.9717,-1.9258,-1.8769,-1.9209,-1.9297,-1.9424,-1.9844,-1.9922,-1.9922,-1.9922,-1.9922,-1.9775,-1.9355,-1.9297,-1.9453,-1.9873,-1.9922,-1.9756,-1.9336,-2.0059,-2.0205,-1.9355,-1.9678,-1.9922,-1.9912,-1.9922,-2.0117,-2.0557,-2.0566,-2.0566,-2.0566,-2.0566,-2.0566,-2.0566,-2.0566,-2.0566,-2.0566,-2.0566,-2.0566,-2.0566,-2.0566,-2.0566,-2.0566,-2.0566,-2.0566,-2.0566,-2.0566,-2.0566,-2.0712,-2.1659,-2.1744,-2.1356,-1.4088,-1.4088,-1.4021,-1.3814,-1.3948,-1.4015,-1.3808,-1.3955,-1.4088,-1.4088,-1.4088,-1.4088,-1.4088,-1.4088,-1.4088,-1.4088,-1.3627,-1.3126,-1.2605,-1.2599,-1.2518,-1.2311,-1.2305,-1.2305,-1.2305,-1.2305,-1.2305,-1.2305,-1.2305,-1.2305,-1.2305,-1.2305,-1.2305,-1.2305,-1.2305,-1.2305,-1.2305,-1.2305,-1.2305,-1.2305,-1.2305,-1.2305,-1.2305,-1.2305,-1.2305,-1.2372,-1.3025,-1.3673,-1.4378,-1.572,-1.6567,-1.7139,-1.7794,-1.8301,-1.8562,-1.8562,-1.8945,-1.9287,-1.9287,-1.959,-1.9883,-1.9756,-1.9629,-1.96,-1.9853,-1.9717,-1.957,-1.9697,-1.9971,-2.0225,-2.0352,-2.0371,-2.0371,-2.0371,-2.0371,-2.0332,-2.0195,-2.0185,-2.0234,-2.0361,-2.0371,-2.0195,-1.9766,-1.9961,-2.0,-1.9746,-2.0127,-2.0244,-1.9932,-2.0205,-2.043,-2.0634,-2.0566,-2.0566,-2.0566,-2.0566,-2.0566,-2.0566,-2.0566,-2.0566,-2.0566,-2.0566,-2.0566,-2.0566,-2.0566,-2.0566,-2.0566,-2.0566,-2.0566,-2.0566,-2.0566,-2.0381,-2.0107,-2.0391,-2.0262,-2.0038,-1.4088,-1.3988,-1.3854,-1.3674,-1.3701,-1.3681,-1.35,-1.3627,-1.3781,-1.3895,-1.3915,-1.3955,-1.4075,-1.3981,-1.3915,-1.3915,-1.3367,-1.2872,-1.2498,-1.2532,-1.2492,-1.2311,-1.2305,-1.2305,-1.2305,-1.2305,-1.2305,-1.2305,-1.2305,-1.2305,-1.2305,-1.2305,-1.2305,-1.2305,-1.2305,-1.2305,-1.2305,-1.2305,-1.2305,-1.2305,-1.2305,-1.2305,-1.2372,-1.2732,-1.2879,-1.2952,-1.3954,-1.4522,-1.5013,-1.621,-1.6954,-1.7549,-1.8308,-1.8809,-1.9141,-1.9141,-1.9336,-1.957,-1.9746,-1.9853,-1.9951,-2.0127,-2.0049,-1.9961,-2.0127,-2.0039,-1.9961,-2.0137,-2.0381,-2.0566,-2.0566,-2.0566,-2.0566,-2.0566,-2.0566,-2.0566,-2.0566,-2.0566,-2.0566,-2.0566,-2.0566,-2.0391,-1.9961,-2.0068,-2.0098,-1.9922,-2.0312,-2.0381,-1.9941,-2.0332,-2.0566,-2.0566,-2.04,-2.0391,-2.0566,-2.0391,-2.0391,-2.0566,-2.0566,-2.0478,-2.0303,-2.0303,-2.0303,-2.0303,-2.0137,-2.0254,-2.0537,-2.0195,-2.0156,-2.0293,-2.0127,-1.9902,-1.9668,-1.9668,-1.9604,-1.9646,-1.4088,-1.3868,-1.3667,-1.3532,-1.3407,-1.3233,-1.318,-1.3193,-1.3307,-1.3492,-1.3519,-1.3707,-1.3981,-1.3768,-1.3519,-1.3519,-1.308,-1.2808,-1.2788,-1.2452,-1.2305,-1.2305,-1.2305,-1.2305,-1.2305,-1.2305,-1.2305,-1.2305,-1.2305,-1.2305,-1.2305,-1.2305,-1.2305,-1.2305,-1.2305,-1.2305,-1.2305,-1.2305,-1.2305,-1.2305,-1.2305,-1.2305,-1.2372,-1.331,-1.3673,-1.381,-1.495,-1.586,-1.6636,-1.6742,-1.7605,-1.8769,-1.916,-1.958,-1.9912,-1.9912,-1.9941,-2.0059,-2.0459,-2.0273,-2.0068,-2.0469,-2.0273,-2.0078,-2.0478,-2.0254,-2.0088,-2.0478,-2.0566,-2.0566,-2.0566,-2.0566,-2.0566,-2.0566,-2.0566,-2.0566,-2.0566,-2.0566,-2.0566,-2.0566,-2.0566,-2.041,-2.001,-2.0332,-2.04,-2.0,-2.0342,-2.0391,-1.999,-2.0352,-2.0566,-2.0566,-2.0185,-2.0166,-2.0634,-2.0166,-2.0176,-2.0566,-2.0566,-2.0332,-1.9912,-1.9912,-1.9893,-1.9834,-1.9453,-1.9727,-2.0391,-1.9609,-1.9512,-1.9814,-1.9434,-1.9268,-1.9228,-1.9291,-1.9566,-1.9839,-1.4088,-1.4035,-1.3848,-1.3387,-1.344,-1.3394,-1.2919,-1.3053,-1.3233,-1.33,-1.3307,-1.3327,-1.3394,-1.334,-1.3307,-1.3307,-1.2959,-1.2721,-1.2412,-1.2338,-1.2305,-1.2305,-1.2305,-1.2305,-1.2305,-1.2305,-1.2305,-1.2305,-1.2305,-1.2305,-1.2305,-1.2305,-1.2305,-1.2305,-1.2305,-1.2305,-1.2305,-1.2305,-1.2305,-1.2305,-1.2305,-1.2305,-1.2372,-1.331,-1.3673,-1.3954,-1.5649,-1.6428,-1.6751,-1.7802,-1.8637,-1.916,-1.9258,-1.958,-1.9912,-1.9912,-2.0156,-2.0449,-2.0537,-2.0498,-2.0449,-2.0537,-2.0498,-2.0449,-2.0547,-2.0498,-2.0449,-2.0547,-2.0566,-2.0566,-2.0566,-2.0566,-2.0566,-2.0566,-2.0566,-2.0566,-2.0566,-2.0566,-2.0566,-2.0566,-2.0566,-2.0527,-2.0439,-2.0508,-2.0527,-2.043,-2.0508,-2.0527,-2.043,-2.0508,-2.0566,-2.0566,-2.0469,-2.0469,-2.0566,-2.0469,-2.0469,-2.0566,-2.0566,-2.0332,-1.9912,-1.9912,-1.9736,-1.9424,-1.9326,-1.9394,-1.9551,-1.9365,-1.9336,-1.9414,-1.9316,-1.9082,-1.884,-1.9524,-1.964,-1.9512,-1.4088,-1.3975,-1.3734,-1.3287,-1.3213,-1.306,-1.2605,-1.2672,-1.2832,-1.2973,-1.2986,-1.3046,-1.3193,-1.308,-1.2933,-1.2786,-1.2625,-1.2472,-1.2311,-1.2305,-1.2305,-1.2305,-1.2305,-1.2305,-1.2305,-1.2305,-1.2305,-1.2305,-1.2305,-1.2305,-1.2305,-1.2305,-1.2305,-1.2305,-1.2305,-1.2305,-1.2305,-1.2305,-1.2305,-1.2305,-1.2305,-1.2305,-1.2372,-1.331,-1.3673,-1.3954,-1.593,-1.6693,-1.6946,-1.8063,-1.8638,-1.8929,-1.9674,-2.0049,-2.0225,-2.0225,-2.0391,-2.0566,-2.0566,-2.0566,-2.0566,-2.0566,-2.0566,-2.0566,-2.0566,-2.0566,-2.0625,-2.084,-2.0713,-2.0635,-2.084,-2.0713,-2.0566,-2.0566,-2.0566,-2.0566,-2.0566,-2.0566,-2.0566,-2.0566,-2.0566,-2.0566,-2.0566,-2.0566,-2.0566,-2.0566,-2.0566,-2.0566,-2.0566,-2.0566,-2.0566,-2.0566,-2.0361,-2.0352,-2.0566,-2.0361,-2.0361,-2.0566,-2.0566,-2.0332,-1.9902,-1.9707,-1.9492,-1.9268,-1.8857,-1.9181,-1.9899,-1.9758,-1.9667,-1.9657,-2.0139,-1.972,-1.9056,-1.9913,-2.0347,-2.0655,-1.4088,-1.3888,-1.3627,-1.334,-1.3026,-1.2726,-1.2425,-1.2338,-1.2392,-1.2714,-1.2741,-1.2766,-1.3026,-1.2826,-1.2572,-1.2325,-1.2305,-1.2305,-1.2305,-1.2305,-1.2305,-1.2305,-1.2305,-1.2305,-1.2305,-1.2305,-1.2305,-1.2305,-1.2305,-1.2305,-1.2305,-1.2305,-1.2305,-1.2305,-1.2305,-1.2305,-1.2305,-1.2305,-1.2305,-1.2305,-1.2305,-1.2305,-1.2372,-1.331,-1.3673,-1.3962,-1.5788,-1.6688,-1.7019,-1.7752,-1.8035,-1.836,-1.9887,-2.0323,-2.0323,-2.0566,-2.0566,-2.0566,-2.0566,-2.0566,-2.0566,-2.0566,-2.0566,-2.0566,-2.0566,-2.0566,-2.0674,-2.1045,-2.082,-2.0674,-2.1055,-2.081,-2.0566,-2.0566,-2.0566,-2.0566,-2.0566,-2.0566,-2.0566,-2.0566,-2.0566,-2.0566,-2.0566,-2.0566,-2.0566,-2.0566,-2.0566,-2.0566,-2.0566,-2.0566,-2.0566,-2.0566,-2.0215,-2.0195,-2.0634,-2.0127,-2.0137,-2.0566,-2.042,-2.0195,-1.9902,-1.9551,-1.9316,-1.9141,-1.8506,-1.8984,-2.0245,-1.9941,-1.9775,-1.9765,-2.0495,-2.0092,-1.9177,-2.0074,-2.1101,-2.2199,-1.4088,-1.4055,-1.3935,-1.3634,-1.334,-1.3039,-1.2732,-1.2472,-1.2318,-1.2358,-1.2365,-1.2378,-1.2425,-1.2385,-1.2345,-1.2305,-1.2305,-1.2305,-1.2305,-1.2305,-1.2305,-1.2305,-1.2305,-1.2305,-1.2305,-1.2305,-1.2305,-1.2305,-1.2305,-1.2305,-1.2305,-1.2305,-1.2305,-1.2305,-1.2305,-1.2305,-1.2305,-1.2305,-1.2305,-1.2305,-1.2305,-1.2305,-1.2372,-1.331,-1.3673,-1.3848,-1.5219,-1.6205,-1.6746,-1.6521,-1.6888,-1.7679,-1.8859,-1.9204,-1.9362,-2.0323,-2.0566,-2.0566,-2.0566,-2.0566,-2.0566,-2.0566,-2.0566,-2.0566,-2.0566,-2.0566,-2.0586,-2.0644,-2.0605,-2.0586,-2.0644,-2.0605,-2.0566,-2.0566,-2.0566,-2.0566,-2.0566,-2.0566,-2.0566,-2.0566,-2.0566,-2.0566,-2.0566,-2.0566,-2.0566,-2.0566,-2.0566,-2.0566,-2.0566,-2.0566,-2.0566,-2.0566,-2.0508,-2.0508,-2.0566,-2.0127,-2.0137,-2.0557,-1.9814,-1.9619,-1.9912,-1.9853,-1.9424,-1.874,-1.9004,-1.9036,-1.8852,-1.8793,-1.8764,-1.8734,-1.8566,-1.8319,-1.8269,-1.9177,-2.0962,-2.2884,-1.4055,-1.4088,-1.3941,-1.348,-1.33,-1.3046,-1.2572,-1.2385,-1.2305,-1.2305,-1.2305,-1.2305,-1.2305,-1.2305,-1.2305,-1.2305,-1.2305,-1.2305,-1.2305,-1.2305,-1.2305,-1.2305,-1.2305,-1.2305,-1.2305,-1.2305,-1.2305,-1.2305,-1.2305,-1.2305,-1.2305,-1.2305,-1.2305,-1.2305,-1.2305,-1.2305,-1.2305,-1.2305,-1.2305,-1.2305,-1.2305,-1.2305,-1.2378,-1.2732,-1.3058,-1.3255,-1.4015,-1.4728,-1.5304,-1.5607,-1.6284,-1.7301,-1.8567,-1.9441,-2.0001,-2.0479,-2.0566,-2.0566,-2.0566,-2.0566,-2.0566,-2.0566,-2.0566,-2.0566,-2.0566,-2.0566,-2.0635,-2.0889,-2.0937,-2.0937,-2.0937,-2.0937,-2.0859,-2.0605,-2.0566,-2.0566,-2.0566,-2.0566,-2.0566,-2.0566,-2.0566,-2.0566,-2.0566,-2.0566,-2.0566,-2.0566,-2.0566,-2.0566,-2.0566,-2.0566,-2.0566,-2.0566,-2.0566,-2.0449,-2.0205,-2.001,-1.9893,-1.9853,-1.9707,-1.9863,-2.0264,-1.9785,-1.9492,-1.9336,-1.9043,-1.9082,-1.9302,-1.9381,-1.9229,-1.9083,-2.0191,-2.0696,-2.0899,-2.1279,-2.2113,-2.3078]},{"header":{"parameterUnit":"m.s-1","parameterCategory":1,"la1":30.6,"la2":28.766,"lo1":-90.7593,"lo2":-88.6598,"dy":0.0162,"dx":0.0183,"nx":116,"ny":114,"refTime":"2023-05-17T00:00:00:Z","depth":0,"parameterNumber":3,"parameterNumberName":"V-component_of_WINDS"},"data":[0.0,0.0,0.0,0.0,0.0,0.0,0.0,0.0,0.0,0.0,0.0,0.0,0.0,0.0,0.0,0.0,0.0,0.0,0.0,0.0,0.0,0.0,0.0,0.0,0.0,0.0,0.0,0.0,0.0,0.0,0.0,0.0,0.0,0.0,0.0,0.0,0.0,0.0,0.0,0.0,0.0,0.0,0.0,0.0,0.0,0.0,0.0,0.0,0.0,0.0,0.0,0.0,0.0,0.0,0.0,0.0,0.0,0.0,0.0,0.0,0.0,0.0,0.0,0.0,0.0,0.0,0.0,0.0,0.0,0.0,0.0,0.0,0.0,0.0,0.0,0.0,0.0,0.0,0.0,0.0,0.0,0.0,0.0,0.0,0.0,0.0,0.0,0.0,0.0,0.0,0.0,0.0,0.0,0.0,0.0,0.0,0.0,0.0,0.0,0.0,0.0,0.0,0.0,0.0,0.0,0.0,0.0,0.0,0.0,0.0,0.0,0.0,0.0,0.0,0.0,0.0,0.0,0.0,0.0,0.0,0.0,0.0,0.0,0.0,0.0,0.0,0.0,0.0,0.0,0.0,0.0,0.0,0.0,0.0,0.0,0.0,0.0,0.0,0.0,0.0,0.0,0.0,0.0,0.0,0.0,0.0,0.0,0.0,0.0,0.0,0.0,0.0,0.0,0.0,0.0,0.0,0.0,0.0,0.0,0.0,0.0,0.0,0.0,0.0,0.0,0.0,0.0,0.0,0.0,0.0,0.0,0.0,0.0,0.0,0.0,0.0,0.0,0.0,0.0,0.0,0.0,0.0,0.0,0.0,0.0,0.0,0.0,0.0,0.0,0.0,0.0,0.0,0.0,0.0,0.0,0.0,0.0,0.0,0.0,0.0,0.0,0.0,0.0,0.0,0.0,0.0,0.0,0.0,0.0,0.0,0.0,0.0,0.0,0.0,0.0,0.0,0.0,0.0,0.0,0.0,0.0,0.0,0.0,0.0,0.0,0.0,0.0,0.0,0.0,0.0,0.0,0.0,0.0,0.0,0.0,0.0,0.0,0.0,0.0,0.0,0.0,0.0,0.0,0.0,0.0,0.0,0.0,0.0,0.0,0.0,0.0,0.0,0.0,0.0,0.0,0.0,0.0,0.0,0.0,0.0,0.0,0.0,0.0,0.0,0.0,0.0,0.0,0.0,0.0,0.0,0.0,0.0,0.0,0.0,0.0,0.0,0.0,0.0,0.0,0.0,0.0,0.0,0.0,0.0,0.0,0.0,0.0,0.0,0.0,0.0,0.0,0.0,0.0,0.0,0.0,0.0,0.0,0.0,0.0,0.0,0.0,0.0,0.0,0.0,0.0,0.0,0.0,0.0,0.0,0.0,0.0,0.0,0.0,0.0,0.0,0.0,0.0,0.0,0.0,0.0,0.0,0.0,0.0,0.0,0.0,0.0,0.0,0.0,0.0,0.0,0.0,0.0,0.0,0.0,0.0,0.0,0.0,0.0,0.0,0.0,0.0,0.0,0.0,0.0,0.0,0.0,0.0,0.0,0.0,0.0,0.0,0.0,0.0,0.0,0.0,0.0,0.0,0.0,0.0,0.0,0.0,0.0,0.0,0.0,0.0,0.0,0.0,0.0,0.0,0.0,0.0,0.0,0.0,0.0,0.0,0.0,0.0,0.0,0.0,0.0,0.0,0.0,0.0,0.0,0.0,0.0,0.0,0.0,0.0,0.0,0.0,0.0,0.0,0.0,0.0,0.0,0.0,0.0,0.0,0.0,0.0,0.0,0.0,0.0,0.0,0.0,0.0,0.0,0.0,0.0,0.0,0.0,0.0,0.0,0.0,0.0,0.0,0.0,0.0,0.0,0.0,0.0,0.0,0.0,0.0,0.0,0.0,0.0,0.0,0.0,0.0,0.0,0.0,0.0,0.0,0.0,0.0,0.0,0.0,0.0,0.0,0.0,0.0,0.0,0.0,0.0,0.0,0.0,0.0,0.0,0.0,0.0,0.0,0.0,0.0,0.0,0.0,0.0,0.0,0.0,0.0,0.0,0.0,0.0,0.0,0.0,0.0,0.0,0.0,0.0,0.0,0.0,0.0,0.0,0.0,0.0,0.0,0.0,0.0,0.0,0.0,0.0,0.0,0.0,0.0,0.0,0.0,0.0,0.0,0.0,0.0,0.0,0.0,0.0,0.0,0.0,0.0,0.0,0.0,0.0,0.0,0.0,0.0,0.0,0.0,0.0,0.0,0.0,0.0,0.0,0.0,0.0,0.0,0.0,0.0,0.0,0.0,0.0,0.0,0.0,0.0,0.0,0.0,0.0,0.0,0.0,0.0,0.0,0.0,0.0,0.0,0.0,0.0,0.0,0.0,0.0,0.0,0.0,0.0,0.0,0.0,0.0,0.0,0.0,0.0,0.0,0.0,0.0,0.0,0.0,0.0,0.0,0.0,0.0,0.0,0.0,0.0,0.0,0.0,0.0,0.0,0.0,0.0,0.0,0.0,0.0,0.0,0.0,0.0,0.0,0.0,0.0,0.0,0.0,0.0,0.0,0.0,0.0,0.0,0.0,0.0,0.0,0.0,0.0,0.0,0.0,0.0,0.0,0.0,0.0,0.0,0.0,0.0,0.0,0.0,0.0,0.0,0.0,0.0,0.0,0.0,0.0,0.0,0.0,0.0,0.0,0.0,0.0,0.0,0.0,0.0,0.0,0.0,0.0,0.0,0.0,0.0,0.0,0.0,0.0,0.0,0.0,0.0,0.0,0.0,0.0,0.0,0.0,0.0,0.0,0.0,0.0,0.0,0.0,0.0,0.0,0.0,0.0,0.0,0.0,0.0,0.0,0.0,0.0,0.0,0.0,0.0,0.0,0.0,0.0,0.0,0.0,0.0,0.0,0.0,0.0,0.0,0.0,0.0,0.0,0.0,0.0,0.0,0.0,0.0,0.0,0.0,0.0,0.0,0.0,0.0,0.0,0.0,0.0,0.0,0.0,0.0,0.0,0.0,0.0,0.0,0.0,0.0,0.0,0.0,0.0,0.0,0.0,0.0,0.0,0.0,0.0,0.0,0.0,0.0,0.0,0.0,0.0,0.0,0.0,0.0,0.0,0.0,0.0,0.0,0.0,0.0,0.0,0.0,0.0,0.0,0.0,0.0,0.0,0.0,0.0,0.0,0.0,0.0,0.0,0.0,0.0,0.0,0.0,0.0,0.0,0.0,0.0,0.0,0.0,0.0,0.0,0.0,0.0,0.0,0.0,0.0,0.0,0.0,0.0,0.0,0.0,0.0,0.0,0.0,0.0,0.0,0.0,0.0,0.0,0.0,0.0,0.0,0.0,0.0,0.0,0.0,0.0,0.0,0.0,0.0,0.0,0.0,0.0,0.0,0.0,0.0,0.0,0.0,0.0,0.0,0.0,0.0,0.0,0.0,0.0,0.0,0.0,0.0,0.0,0.0,0.0,0.0,0.0,0.0,0.0,0.0,0.0,0.0,0.0,0.0,0.0,0.0,0.0,0.0,0.0,0.0,0.0,0.0,0.0,0.0,0.0,0.0,0.0,0.0,0.0,0.0,0.0,0.0,0.0,0.0,0.0,0.0,0.0,0.0,0.0,0.0,0.0,0.0,0.0,0.0,0.0,0.0,0.0,0.0,0.0,0.0,0.0,0.0,0.0,0.0,0.0,0.0,0.0,0.0,0.0,0.0,0.0,0.0,0.0,0.0,0.0,0.0,0.0,0.0,0.0,0.0,0.0,0.0,0.0,0.0,0.0,0.0,0.0,0.0,0.0,0.0,0.0,0.0,0.0,0.0,0.0,0.0,0.0,0.0,0.0,0.0,0.0,0.0,0.0,0.0,0.0,0.0,0.0,0.0,0.0,0.0,0.0,0.0,0.0,0.0,0.0,0.0,0.0,0.0,0.0,0.0,0.0,0.0,0.0,0.0,0.0,0.0,0.0,0.0,0.0,0.0,0.0,0.0,0.0,0.0,0.0,0.0,0.0,0.0,0.0,0.0,0.0,0.0,0.0,0.0,0.0,0.0,0.0,0.0,0.0,0.0,0.0,0.0,0.0,0.0,0.0,0.0,0.0,0.0,0.0,0.0,0.0,0.0,0.0,0.0,0.0,0.0,0.0,0.0,0.0,0.0,0.0,0.0,0.0,0.0,0.0,0.0,0.0,0.0,0.0,0.0,0.0,0.0,0.0,0.0,0.0,0.0,0.0,0.0,0.0,0.0,0.0,0.0,0.0,0.0,0.0,0.0,0.0,0.0,0.0,0.0,0.0,0.0,0.0,0.0,0.0,0.0,0.0,0.0,0.0,0.0,0.0,0.0,0.0,0.0,0.0,0.0,0.0,0.0,0.0,0.0,0.0,0.0,0.0,0.0,0.0,0.0,0.0,0.0,0.0,0.0,0.0,0.0,0.0,0.0,0.0,0.0,0.0,0.0,0.0,0.0,0.0,0.0,0.0,0.0,0.0,0.0,0.0,0.0,0.0,0.0,0.0,0.0,0.0,0.0,0.0,0.0,0.0,0.0,0.0,0.0,0.0,0.0,0.0,0.0,0.0,0.0,0.0,0.0,0.0,0.0,0.0,0.0,0.0,0.0,0.0,0.0,0.0,0.0,0.0,0.0,0.0,0.0,0.0,0.0,0.0,0.0,0.0,0.0,0.0,0.0,0.0,0.0,0.0,0.0,0.0,0.0,0.0,0.0,0.0,0.0,0.0,0.0,0.0,0.0,0.0,0.0,0.0,0.0,0.0,0.0,0.0,0.0,0.0,0.0,0.0,0.0,0.0,0.0,0.0,0.0,0.0,0.0,0.0,0.0,0.0,0.0,0.0,0.0,0.0,0.0,0.0,0.0,0.0,0.0,0.0,0.0,0.0,0.0,0.0,0.0,0.0,0.0,0.0,0.0,0.0,0.0,0.0,0.0,0.0,0.0,0.0,0.0,0.0,0.0,0.0,0.0,0.0,0.0,0.0,0.0,0.0,0.0,0.0,0.0,0.0,0.0,0.0,0.0,0.0,0.0,0.0,0.0,0.0,0.0,0.0,0.0,0.0,0.0,0.0,0.0,0.0,0.0,0.0,0.0,0.0,0.0,0.0,0.0,0.0,0.0,0.0,0.0,0.0,0.0,0.0,0.0,0.0,0.0,0.0,0.0,0.0,0.0,0.0,0.0,0.0,0.0,0.0,0.0,0.0,0.0,0.0,0.0,0.0,0.0,0.0,0.0,0.0,0.0,0.0,0.0,0.0,0.0,0.0,0.0,0.0,0.0,0.0,0.0,0.0,0.0,0.0,0.0,0.0,0.0,0.0,0.0,0.0,0.0,0.0,0.0,0.0,0.0,0.0,0.0,0.0,0.0,0.0,0.0,0.0,0.0,0.0,0.0,0.0,0.0,0.0,0.0,0.0,0.0,0.0,0.0,0.0,0.0,0.0,0.0,0.0,0.0,0.0,0.0,0.0,0.0,0.0,0.0,0.0,0.0,0.0,0.0,0.0,0.0,0.0,0.0,0.0,0.0,0.0,0.0,0.0,0.0,0.0,0.0,0.0,0.0,0.0,0.0,0.0,0.0,0.0,0.0,0.0,0.0,0.0,0.0,0.0,0.0,0.0,0.0,0.0,0.0,0.0,0.0,0.0,0.0,0.0,0.0,0.0,0.0,0.0,0.0,0.0,0.0,0.0,0.0,0.0,0.0,0.0,0.0,0.0,0.0,0.0,0.0,0.0,0.0,0.0,0.0,0.0,0.0,0.0,0.0,0.0,0.0,0.0,0.0,0.0,0.0,0.0,0.0,0.0,0.0,0.0,0.0,0.0,0.0,0.0,0.0,0.0,0.0,0.0,0.0,0.0,0.0,0.0,0.0,0.0,0.0,0.0,0.0,0.0,0.0,0.0,0.0,0.0,0.0,0.0,0.0,0.0,0.0,0.0,0.0,0.0,0.0,0.0,0.0,0.0,0.0,0.0,0.0,0.0,0.0,0.0,0.0,0.0,0.0,0.0,0.0,0.0,0.0,0.0,0.0,0.0,0.0,0.0,0.0,0.0,0.0,0.0,0.0,0.0,0.0,0.0,0.0,0.0,0.0,0.0,0.0,0.0,-1.4286,0.0,0.0,0.0,0.0,0.0,0.0,0.0,0.0,0.0,0.0,0.0,0.0,0.0,0.0,0.0,0.0,0.0,0.0,0.0,0.0,0.0,0.0,0.0,0.0,0.0,0.0,0.0,0.0,0.0,0.0,0.0,0.0,0.0,0.0,0.0,0.0,0.0,0.0,0.0,0.0,0.0,0.0,0.0,0.0,0.0,0.0,0.0,0.0,0.0,0.0,0.0,0.0,0.0,0.0,0.0,0.0,0.0,0.0,0.0,0.0,0.0,0.0,0.0,0.0,0.0,0.0,0.0,0.0,0.0,0.0,0.0,0.0,0.0,0.0,0.0,0.0,0.0,0.0,0.0,0.0,0.0,0.0,0.0,0.0,0.0,0.0,0.0,0.0,0.0,0.0,0.0,0.0,0.0,0.0,0.0,0.0,0.0,0.0,0.0,0.0,0.0,0.0,0.0,0.0,0.0,0.0,0.0,0.0,0.0,0.0,0.0,0.0,0.0,0.0,0.0,0.0,-1.5022,0.0,0.0,0.0,0.0,0.0,0.0,0.0,0.0,0.0,0.0,0.0,0.0,0.0,0.0,0.0,0.0,0.0,0.0,0.0,0.0,0.0,0.0,0.0,0.0,0.0,0.0,0.0,0.0,0.0,0.0,0.0,0.0,0.0,0.0,0.0,0.0,0.0,0.0,0.0,0.0,0.0,0.0,0.0,0.0,0.0,0.0,0.0,0.0,0.0,0.0,0.0,0.0,0.0,0.0,0.0,0.0,0.0,0.0,0.0,0.0,0.0,0.0,0.0,0.0,0.0,0.0,0.0,0.0,0.0,0.0,0.0,0.0,0.0,0.0,0.0,0.0,0.0,0.0,0.0,0.0,0.0,0.0,0.0,0.0,0.0,0.0,0.0,0.0,0.0,0.0,0.0,0.0,0.0,0.0,0.0,0.0,0.0,0.0,0.0,0.0,0.0,0.0,0.0,0.0,0.0,0.0,0.0,0.0,-2.05,-2.0364,-2.0344,-2.0866,-2.1076,-2.0862,-1.8361,-1.7631,-1.8087,-1.551,0.0,0.0,0.0,0.0,0.0,0.0,0.0,0.0,0.0,0.0,0.0,0.0,0.0,0.0,0.0,0.0,0.0,0.0,0.0,0.0,0.0,0.0,0.0,0.0,0.0,0.0,0.0,0.0,0.0,0.0,0.0,0.0,0.0,0.0,0.0,0.0,0.0,-2.0935,-2.1942,-2.3016,-2.3486,-2.3253,-1.9846,0.0,0.0,0.0,0.0,0.0,0.0,0.0,0.0,0.0,0.0,0.0,0.0,0.0,0.0,0.0,0.0,0.0,0.0,0.0,0.0,0.0,0.0,0.0,0.0,0.0,0.0,0.0,0.0,0.0,0.0,0.0,0.0,0.0,0.0,0.0,0.0,0.0,0.0,0.0,0.0,0.0,0.0,0.0,-2.0236,-2.0236,0.0,0.0,0.0,0.0,0.0,0.0,0.0,0.0,0.0,0.0,0.0,0.0,0.0,-2.1709,-2.2617,-2.3302,-2.3678,-2.3746,-2.4433,-2.4611,-2.432,-2.3784,-2.3339,-2.2979,-2.1933,0.0,-1.9673,-1.778,0.0,0.0,0.0,0.0,0.0,0.0,0.0,0.0,0.0,0.0,0.0,0.0,0.0,0.0,0.0,0.0,0.0,0.0,0.0,0.0,0.0,0.0,0.0,0.0,0.0,0.0,0.0,0.0,0.0,0.0,0.0,0.0,0.0,0.0,0.0,0.0,-2.283,-2.4884,-2.6674,-2.7213,-2.7674,-2.7999,-2.6247,-2.352,-2.0264,-1.9866,0.0,0.0,0.0,0.0,0.0,0.0,0.0,0.0,0.0,0.0,0.0,0.0,0.0,0.0,0.0,0.0,0.0,0.0,0.0,0.0,0.0,0.0,0.0,0.0,0.0,0.0,0.0,0.0,0.0,0.0,0.0,0.0,0.0,0.0,0.0,0.0,0.0,0.0,0.0,-1.964,-2.0167,-2.0132,-1.9864,-1.9605,0.0,0.0,0.0,0.0,0.0,0.0,0.0,0.0,0.0,-2.5008,-2.4962,-2.5386,-2.6356,-2.6718,-2.6898,-2.694,-2.6907,-2.6613,-2.6043,-2.5259,-2.4351,-2.3376,-2.3054,-2.232,-2.1226,-1.9695,-1.8911,-1.8537,0.0,0.0,0.0,0.0,-1.5394,-1.5474,0.0,0.0,0.0,0.0,0.0,0.0,0.0,0.0,0.0,0.0,0.0,0.0,0.0,0.0,0.0,-1.8636,0.0,0.0,0.0,0.0,0.0,0.0,0.0,0.0,0.0,0.0,0.0,-2.4089,-2.6499,-2.8895,-3.1219,-3.1558,-3.1823,-3.1994,-3.1802,-2.8761,-2.3764,-2.3035,-2.1353,0.0,0.0,0.0,0.0,0.0,0.0,0.0,0.0,0.0,0.0,0.0,0.0,0.0,0.0,0.0,0.0,0.0,0.0,0.0,0.0,0.0,0.0,0.0,0.0,0.0,0.0,0.0,0.0,0.0,0.0,0.0,0.0,0.0,0.0,0.0,0.0,0.0,0.0,-2.0483,-2.0963,-2.0612,-2.0894,-2.088,0.0,0.0,0.0,0.0,0.0,0.0,-2.4833,-2.5751,-2.6947,-2.8439,-2.8458,-2.8797,-2.9622,-2.9622,-2.9622,-2.9599,-2.8756,-2.7992,-2.7359,-2.6247,-2.4992,-2.3663,-2.3477,-2.2987,-2.2203,-2.1077,-2.061,-2.044,-1.9046,-1.8321,-1.8017,-1.7258,-1.7049,-1.7164,0.0,0.0,0.0,0.0,0.0,0.0,0.0,0.0,0.0,0.0,0.0,0.0,0.0,0.0,-1.9417,-2.0287,-2.0314,-1.954,0.0,0.0,0.0,0.0,0.0,0.0,0.0,0.0,0.0,-2.5963,-2.9959,-3.2789,-3.449,-3.5771,-3.6378,-3.6353,-3.5584,-3.2101,-2.672,-2.5847,-2.4153,-2.1803,0.0,0.0,0.0,0.0,0.0,0.0,0.0,0.0,0.0,0.0,0.0,0.0,0.0,0.0,0.0,0.0,0.0,0.0,0.0,0.0,0.0,0.0,0.0,0.0,0.0,0.0,0.0,0.0,0.0,0.0,0.0,0.0,0.0,0.0,0.0,0.0,0.0,0.0,0.0,-2.2824,-2.399,0.0,0.0,0.0,0.0,-2.3545,-2.6594,-2.8488,-2.8524,-3.0131,-3.1102,-3.1201,-3.1201,-3.1219,-3.1274,-3.1274,-3.1274,-3.1274,-3.0085,-2.934,-2.8929,-2.7046,-2.5554,-2.4421,-2.3697,-2.2987,-2.2254,-2.1744,-2.1803,-2.2141,-2.1589,-2.1162,-2.0815,-2.0751,-2.0239,-1.9534,0.0,0.0,0.0,0.0,0.0,0.0,0.0,0.0,0.0,0.0,0.0,0.0,0.0,-2.0853,-2.2446,-2.4431,-2.4448,-2.3656,-2.2023,0.0,0.0,0.0,0.0,0.0,0.0,0.0,-2.6495,-2.9268,-3.1918,-3.4176,-3.6007,-3.6494,-3.6614,-3.6446,-3.6676,-3.5181,-3.2307,-2.9841,-2.7157,-2.445,-2.3129,-2.1249,0.0,0.0,0.0,0.0,0.0,0.0,0.0,0.0,0.0,0.0,0.0,0.0,0.0,0.0,0.0,0.0,0.0,0.0,0.0,0.0,0.0,0.0,0.0,0.0,0.0,0.0,0.0,0.0,0.0,0.0,0.0,0.0,0.0,0.0,0.0,0.0,0.0,-2.5067,-2.6936,0.0,-2.7296,-2.7562,-2.7985,-2.8469,-3.0202,-3.1474,-3.1986,-3.3101,-3.3733,-3.3733,-3.3733,-3.3476,-3.2944,-3.2944,-3.2944,-3.2926,-3.1738,-3.0836,-3.0202,-2.8694,-2.7121,-2.5584,-2.5326,-2.4372,-2.3004,-2.2824,-2.2601,-2.2237,-2.1794,-2.1521,-2.1337,-2.0748,-2.0348,-2.007,0.0,0.0,0.0,0.0,0.0,0.0,0.0,0.0,0.0,0.0,0.0,-1.8232,-2.0719,-2.2666,-2.4615,-2.6615,-2.6677,-2.5788,-2.3861,0.0,0.0,0.0,0.0,0.0,0.0,-2.6333,-2.9362,-3.2347,-3.4255,-3.5988,-3.7508,-3.7636,-3.7431,-3.6995,-3.7661,-3.7292,-3.6021,-3.3602,-3.0937,-2.8116,-2.5993,-2.3621,-2.1268,0.0,0.0,0.0,0.0,0.0,0.0,0.0,0.0,0.0,0.0,0.0,0.0,0.0,0.0,0.0,0.0,0.0,0.0,0.0,0.0,0.0,0.0,0.0,0.0,0.0,0.0,0.0,0.0,0.0,0.0,0.0,0.0,0.0,0.0,0.0,-2.7669,-2.787,-3.0159,-3.1516,-3.1101,-3.1717,-3.2354,-3.2876,-3.4266,-3.5183,-3.544,-3.6229,-3.6413,-3.5862,-3.5844,-3.533,-3.4229,-3.4211,-3.4082,-3.3788,-3.2609,-3.1787,-3.1245,-2.9733,-2.8164,-2.6601,-2.6328,-2.5124,-2.341,-2.3663,-2.319,-2.2282,-2.1974,-2.1718,-2.1521,-2.0813,-2.0449,-2.0246,0.0,0.0,0.0,0.0,0.0,0.0,0.0,0.0,0.0,0.0,-1.7183,-1.9228,-2.1619,-2.4044,-2.5786,-2.6612,-2.6631,-2.5463,-2.2817,-2.1756,0.0,0.0,0.0,0.0,-2.6299,-2.9624,-3.2574,-3.5137,-3.7034,-3.8372,-3.9173,-3.947,-3.9138,-3.8328,-3.8667,-3.8328,-3.7507,-3.698,-3.5372,-3.2782,-2.8108,-2.5892,-2.5001,0.0,0.0,0.0,0.0,0.0,0.0,0.0,0.0,0.0,0.0,0.0,0.0,0.0,0.0,0.0,0.0,0.0,0.0,0.0,0.0,0.0,0.0,0.0,0.0,0.0,0.0,0.0,0.0,0.0,0.0,0.0,0.0,0.0,-2.5249,-2.8058,-3.0513,-3.1334,-3.3652,-3.4862,-3.41,-3.5495,-3.645,-3.645,-3.8615,-3.9588,-3.8781,-3.9478,-3.9148,-3.7562,-3.7507,-3.6707,-3.5045,-3.5009,-3.4605,-3.3825,-3.2683,-3.2115,-3.2032,-3.0023,-2.8505,-2.7378,-2.6571,-2.5176,-2.3511,-2.4222,-2.3663,-2.2344,-2.2344,-2.2049,-2.1552,-2.115,-2.0715,-2.0246,0.0,0.0,0.0,0.0,0.0,0.0,0.0,0.0,0.0,0.0,-1.865,-2.1475,-2.34,-2.5717,-2.7457,-2.8282,-2.7273,-2.5761,-2.3753,0.0,0.0,0.0,0.0,0.0,-2.9769,-3.2546,-3.5485,-3.8542,-3.9105,-3.9743,-4.0535,-4.0048,-3.9482,-3.888,-3.8971,-3.8792,-3.8423,-3.8286,-3.7983,-3.718,-3.2823,-2.9722,-2.7514,0.0,0.0,0.0,0.0,0.0,0.0,0.0,0.0,0.0,0.0,0.0,0.0,0.0,0.0,0.0,0.0,0.0,0.0,0.0,0.0,0.0,0.0,0.0,0.0,0.0,0.0,0.0,0.0,0.0,0.0,0.0,0.0,-2.988,-2.9637,-3.2454,-3.5072,-3.6465,-3.8291,-3.935,-3.9129,-3.9515,-3.979,-3.979,-4.0414,-4.0414,-3.9606,-3.9772,-3.9148,-3.7562,-3.7507,-3.7,-3.5954,-3.5302,-3.488,-3.4642,-3.3168,-3.2311,-3.1957,-3.025,-2.8976,-2.8083,-2.7321,-2.6241,-2.5017,-2.522,-2.4425,-2.3105,-2.3105,-2.2709,-2.2032,-2.1598,-2.0943,-2.0246,0.0,0.0,0.0,0.0,0.0,0.0,0.0,0.0,0.0,0.0,-1.9065,-2.1807,-2.3529,-2.555,-2.7108,-2.7934,-2.6706,-2.5157,-2.3495,0.0,0.0,0.0,0.0,-3.0206,-3.3259,-3.5797,-3.8157,-4.0396,-4.0396,-4.0653,-4.1111,-4.0616,-4.0233,-3.9949,-4.0095,-4.0152,-4.0184,-4.0308,-4.0557,-4.0642,-3.782,-3.4481,-3.1045,-2.9554,-2.8129,-2.6781,-2.5566,-2.5811,-2.6317,-2.3447,0.0,0.0,0.0,0.0,0.0,0.0,0.0,0.0,0.0,0.0,0.0,0.0,0.0,0.0,0.0,0.0,0.0,0.0,0.0,0.0,0.0,0.0,0.0,0.0,-3.1905,-3.3899,-3.5284,-3.6541,-3.8028,-3.9974,-4.1038,-4.1754,-4.2066,-4.2121,-4.2121,-4.2121,-4.2121,-4.1754,-4.0946,-4.091,-4.0322,-3.9038,-3.867,-3.812,-3.7312,-3.6468,-3.5881,-3.5532,-3.4247,-3.347,-3.3201,-3.1592,-3.0266,-2.9152,-2.8382,-2.7134,-2.5625,-2.593,-2.5186,0.0,0.0,0.0,0.0,0.0,-2.1054,-2.028,0.0,0.0,0.0,0.0,0.0,0.0,0.0,0.0,0.0,0.0,0.0,-2.1132,-2.274,-2.4483,-2.5786,-2.641,-2.5423,-2.4162,0.0,0.0,0.0,-2.6218,-3.0369,-3.3897,-3.6545,-3.8884,-4.0478,-4.1387,-4.1387,-4.1387,-4.1387,-4.1295,-4.1258,-4.124,-4.1452,-4.1735,-4.2059,-4.2329,-4.268,-4.2975,-4.2242,-3.9342,-3.5204,-3.2947,-3.1827,-3.1224,-2.96,-2.9146,-2.903,-2.7059,0.0,0.0,0.0,0.0,0.0,0.0,0.0,0.0,0.0,0.0,0.0,0.0,0.0,0.0,0.0,0.0,0.0,0.0,0.0,0.0,0.0,0.0,0.0,0.0,-3.6117,-3.7863,-4.0836,-4.0084,-4.0047,-4.2176,-4.2433,-4.2708,-4.3424,-4.3497,-4.3497,-4.3497,-4.3497,-4.3149,-4.2341,0.0,0.0,0.0,0.0,-3.9643,-3.8836,-3.8028,-3.7221,-3.6413,-3.5569,-3.5082,-3.4879,-3.3386,-3.1818,-3.0287,-2.9508,-2.7892,-2.5913,-2.6556,-2.5947,-2.4557,-2.3714,-2.2953,-2.2237,-2.1718,-2.1039,-2.0348,0.0,0.0,0.0,0.0,0.0,0.0,0.0,0.0,0.0,-1.6656,-1.9405,-2.1717,-2.285,-2.5017,-2.6172,-2.5697,-2.4686,-2.3732,0.0,0.0,-2.5714,-2.8739,-3.2638,-3.5912,-3.8413,-4.0203,-4.1741,-4.3039,-4.3039,-4.3039,-4.302,-4.2378,-4.2066,-4.2047,-4.1452,-4.1385,-4.1726,-4.204,-4.2348,-4.2622,-4.2789,-4.1456,-3.9272,-3.8155,-3.7241,-3.6351,-3.4683,-3.4981,-3.5571,-3.1569,-3.1077,-3.1483,-2.7576,0.0,0.0,0.0,0.0,0.0,0.0,0.0,0.0,0.0,0.0,0.0,0.0,0.0,0.0,0.0,0.0,0.0,0.0,0.0,0.0,-3.6549,-3.8768,-4.0634,-4.1901,-4.2359,-4.2727,-4.3204,-4.3259,-4.3314,-4.3461,-4.3497,-4.3497,-4.3497,-4.3497,-4.3149,-4.2341,-4.2304,-4.1937,-4.1148,-4.0965,-4.0487,-3.968,-3.8872,-3.8065,-3.7239,0.0,0.0,-3.448,-3.3597,-3.224,-3.0575,-2.9826,-2.8696,-2.7402,-2.7554,-2.6725,-2.5253,-2.3917,-2.2953,-2.2209,-2.1415,-2.1023,-2.0764,0.0,0.0,0.0,0.0,0.0,0.0,0.0,0.0,0.0,0.0,-1.8677,-2.0607,-2.1817,-2.3109,-2.3876,-2.3795,-2.2865,0.0,0.0,-2.5085,-2.7725,-3.1185,-3.5117,-3.8008,-3.9753,-4.1279,-4.2392,-4.3105,-4.3105,-4.325,-4.3479,-4.3075,-4.2892,-4.2873,-4.2488,-4.2479,-4.2805,-4.2988,-4.3239,-4.3582,-4.394,-4.358,-4.2679,-4.1613,-4.0931,-4.0392,-3.9123,-3.8926,-3.8825,-3.5691,-3.4706,-3.4274,-3.1522,-2.9127,-2.6902,0.0,0.0,0.0,0.0,0.0,0.0,0.0,0.0,0.0,0.0,0.0,0.0,0.0,0.0,-3.1513,0.0,0.0,-3.7606,-3.9551,-4.124,-4.2433,-4.2837,-4.324,-4.3497,-4.3497,-4.3497,-4.3497,-4.3497,-4.3497,-4.3497,-4.3497,-4.3497,-4.3314,-4.291,-4.2892,-4.2708,-4.2304,-4.1919,-4.1515,-4.1093,-4.0304,-3.9698,-3.9294,-3.8083,-3.7186,-3.651,-3.5356,-3.3646,-3.1633,-3.1265,-3.0058,-2.8399,-2.8399,-2.752,-2.6082,-2.5338,-2.4374,-2.3334,-2.2604,-2.2005,-2.1437,0.0,0.0,0.0,0.0,0.0,0.0,0.0,0.0,0.0,0.0,-1.7595,-1.9051,-2.0533,-2.096,-2.1307,0.0,0.0,0.0,0.0,-2.6251,-2.9515,-3.3429,-3.7069,-3.9536,-4.0627,-4.1759,-4.24,-4.2537,-4.2537,-4.2808,-4.3321,-4.3321,-4.341,-4.3497,-4.3497,-4.3646,-4.3912,-4.3986,-4.4175,-4.4527,-4.4872,-4.4988,-4.4878,-4.3809,-4.3461,-4.3431,-4.2239,-4.1143,-4.0027,-3.8507,-3.6988,-3.5622,-3.4911,-3.2582,-2.9631,-2.7243,-2.5811,0.0,0.0,0.0,0.0,0.0,0.0,0.0,0.0,0.0,-3.0895,-3.2948,-3.3901,-3.522,-3.8125,-3.9258,-4.0399,-4.2433,-4.3167,-4.3497,-4.3497,-4.3497,-4.3497,-4.3497,-4.3497,-4.3497,-4.3497,-4.3497,-4.3497,-4.3497,-4.3497,-4.3497,-4.3497,-4.3497,-4.3497,-4.3497,-4.2873,-4.2451,-4.2304,-4.1662,-4.1258,-4.1093,-3.979,-3.9001,-3.867,-3.7367,-3.5405,-3.3009,-3.2525,-3.115,-2.9194,-2.9042,-2.8163,-2.6911,-2.6911,-2.6099,-2.4833,-2.4017,-2.3127,-2.2207,0.0,0.0,0.0,0.0,0.0,0.0,0.0,0.0,0.0,0.0,0.0,0.0,0.0,0.0,0.0,0.0,0.0,0.0,-2.4309,-2.7091,-3.0664,-3.5145,-3.7456,-3.9355,-4.0822,-4.1035,-4.1358,-4.1895,-4.1895,-4.2203,-4.2788,-4.2788,-4.305,-4.3497,-4.3497,-4.3513,-4.3563,-4.3881,-4.4046,-4.4087,-4.4501,-4.4676,-4.4638,-4.4493,-4.481,-4.5009,-4.2643,-4.0777,-3.9277,-3.8315,-3.7353,-3.6546,-3.6449,-3.5647,-3.3887,-2.9444,0.0,-2.5258,-2.29,-2.3821,-2.6321,-3.0046,-3.0583,-3.1507,0.0,0.0,-3.613,-3.8795,-4.0002,-4.1107,-4.2848,-4.3305,-4.3619,-4.4303,-4.3901,-4.3497,-4.3497,-4.3497,-4.3497,-4.3497,-4.3497,-4.3497,-4.3497,-4.3497,-4.3497,-4.3497,-4.3497,-4.3497,-4.3497,-4.3497,-4.3497,-4.3497,-4.3406,-4.302,-4.2304,-4.2213,-4.1809,-4.1111,-4.0928,-4.0084,-3.8689,-3.8505,-3.7007,-3.4429,-3.23,-3.0832,-2.9939,-2.9262,-2.8467,-2.7689,-2.7689,-2.7182,-2.6252,-2.4497,-2.3486,-2.2824,0.0,0.0,0.0,0.0,0.0,0.0,0.0,0.0,0.0,0.0,0.0,0.0,0.0,0.0,0.0,0.0,0.0,0.0,-2.4397,-2.7329,-3.0902,-3.5402,-3.7548,-3.9243,-4.0414,-4.0733,-4.1041,-4.1268,-4.1268,-4.1578,-4.2162,-4.2537,-4.2826,-4.305,-4.3375,-4.3497,-4.3532,-4.3646,-4.3693,-4.3758,-4.4106,-4.4233,-4.4168,-4.3434,-4.2739,-4.2007,-4.0879,-3.9185,0.0,0.0,-3.52,-3.4913,-3.4983,-3.4068,-3.2298,-2.9062,-2.7642,0.0,-2.7249,-2.8356,0.0,0.0,-3.4228,-3.6075,-3.9119,-3.942,-3.9847,-4.2581,-4.3286,-4.3586,-4.4236,-4.4786,-4.5029,0.0,-4.4415,-4.4195,-4.4195,-4.3791,-4.3497,-4.3497,-4.3497,-4.3497,-4.3497,-4.3497,-4.3497,-4.3497,-4.3497,-4.3497,-4.3497,-4.3497,-4.3497,-4.3497,-4.3497,-4.3332,-4.3002,-4.3002,-4.2818,-4.2488,-4.2029,-4.1203,-4.0084,-3.9606,-3.815,-3.5842,-3.3833,-3.2531,-3.1809,-3.1176,-3.0209,-2.9161,-2.9161,-2.8687,-2.7806,-2.5826,-2.4547,-2.3626,0.0,0.0,0.0,0.0,0.0,0.0,0.0,0.0,0.0,0.0,0.0,0.0,0.0,0.0,0.0,0.0,0.0,0.0,0.0,-2.6691,-3.026,-3.4506,-3.6713,-3.8471,-3.9782,-4.0394,-4.0703,-4.0703,-4.0703,-4.0967,-4.1578,-4.1979,-4.2382,-4.2711,-4.3105,-4.3375,-4.3497,-4.3497,-4.3497,-4.3513,-4.3772,-4.359,-4.3027,-4.1669,-3.9902,-3.8154,-3.8158,-3.6532,0.0,0.0,-3.2307,-3.2212,-3.2756,-3.2039,-3.0633,-2.8702,-2.7943,-2.8186,-3.0241,0.0,0.0,-3.5262,-3.7802,-4.0105,-4.1248,-4.1986,-4.2978,-4.4975,-4.5213,-4.5039,-4.5039,-4.5333,-4.5388,-4.48,-4.4709,-4.4635,-4.4415,-4.4066,-4.3736,-4.3516,-4.3497,-4.3497,-4.3497,-4.3497,-4.3497,-4.3497,-4.3497,-4.3497,-4.3497,-4.3497,-4.3497,-4.3497,-4.3497,-4.3497,-4.3497,-4.3497,-4.3497,-4.3479,-4.291,-4.2213,-4.1405,-4.043,-3.8888,-3.6858,-3.546,-3.4233,-3.3141,-3.2781,-3.1732,-3.0412,-3.0412,-2.982,-2.8803,-2.735,-2.5946,-2.4654,0.0,0.0,0.0,0.0,0.0,0.0,0.0,0.0,0.0,0.0,0.0,0.0,0.0,0.0,0.0,0.0,0.0,0.0,0.0,-2.5023,-2.8378,-3.2205,-3.4506,-3.6738,-3.8971,-3.9765,-4.0121,-4.0121,-4.0121,-4.0417,-4.0949,-4.0949,-4.1578,-4.2711,-4.2711,-4.3014,-4.3497,-4.3497,-4.3497,-4.3497,-4.3513,-4.2595,-4.1001,-3.9417,-3.6925,-3.432,-3.4626,0.0,0.0,0.0,-2.9062,-2.8649,-3.0283,-3.0753,0.0,-2.916,-2.7961,-2.7601,0.0,0.0,-3.4766,-3.8658,-4.1132,-4.2946,-4.4246,-4.5168,-4.5773,-4.5847,-4.5865,-4.5865,-4.5865,-4.5259,-4.4745,-4.4709,-4.4709,-4.4433,-4.3644,-4.4195,-4.4378,-4.3589,-4.3497,-4.3497,0.0,-4.3497,-4.3497,-4.3497,-4.3497,-4.3497,-4.3497,-4.3497,-4.3497,-4.3497,-4.3497,-4.3497,-4.3497,-4.3497,-4.3497,-4.3497,-4.3461,-4.3039,-4.2231,-4.0888,-3.9193,-3.7268,-3.6676,-3.5277,-3.3372,-3.3372,-3.251,-3.1157,-3.1157,-3.0277,-2.8975,-2.8924,-2.7777,-2.6022,0.0,0.0,0.0,0.0,0.0,0.0,0.0,0.0,0.0,0.0,0.0,0.0,0.0,0.0,0.0,0.0,0.0,0.0,0.0,-2.3905,-2.6521,-2.977,-3.2165,-3.4218,-3.5977,-3.7246,-3.8142,-3.8633,-3.8633,-3.8967,-3.9651,-4.0008,-4.0662,-4.1534,-4.2342,-4.2788,-4.2976,-4.3339,-4.3185,-4.2598,-4.1534,-4.0469,-3.9135,-3.5784,-3.3213,-3.117,0.0,0.0,0.0,0.0,-2.5946,-2.6243,-2.6857,-2.6984,-2.7006,-2.752,-2.8496,-3.0112,0.0,0.0,-3.8475,-4.1501,-4.3143,-4.4426,-4.5938,-4.6104,-4.6049,-4.6599,-4.5297,-4.3889,-4.3359,-4.3013,-4.2831,-4.2831,-4.3887,-4.4617,-4.4342,-4.4984,-4.5002,-4.3644,-4.3975,0.0,0.0,0.0,0.0,-4.3497,-4.3497,-4.3497,-4.3497,-4.3497,-4.3497,-4.3497,-4.3497,-4.3497,-4.3497,-4.3497,-4.3497,-4.3479,-4.2947,-4.2561,-4.2268,-4.1275,-4.0154,-3.8982,-3.8142,-3.6742,-3.5074,-3.4421,-3.3541,-3.2662,-3.2662,-3.2357,-3.185,-3.136,-3.0573,-2.9468,0.0,0.0,0.0,0.0,0.0,0.0,0.0,0.0,0.0,0.0,0.0,0.0,0.0,0.0,0.0,0.0,0.0,0.0,0.0,0.0,-2.4462,-2.6954,-2.9311,-3.1217,-3.2698,-3.4047,-3.4908,-3.5397,-3.5459,-3.5757,-3.6214,-3.685,-3.75,-3.8225,-3.9651,-4.0453,-4.0637,-4.0854,-4.0584,-3.9845,-3.8235,-3.6876,-3.5453,-3.2145,-2.9924,0.0,0.0,0.0,0.0,-2.4082,-2.4106,-2.4665,-2.4996,-2.563,-2.654,-2.7985,-2.9942,-3.2545,-3.6674,-3.8972,-4.0939,-4.3995,-4.5186,-4.5847,-4.6874,-4.6709,-4.6159,-4.5535,-4.3944,-4.2232,-4.0866,-4.0611,-4.0721,-4.1012,-4.2626,-4.3938,-4.4232,-4.5204,-4.5516,-4.447,-4.4819,0.0,0.0,0.0,0.0,-4.3534,-4.3754,-4.392,-4.392,-4.4195,-4.4232,-4.3938,-4.392,-4.3791,-4.3497,-4.3497,-4.3497,-4.3479,-4.2983,-4.2727,-4.2708,-4.2194,-4.1311,-4.0147,-3.9238,-3.7866,-3.6237,-3.5266,-3.4455,-3.3795,-3.3795,-3.3643,-3.3339,-3.2865,-3.2454,-3.1807,0.0,0.0,0.0,0.0,0.0,0.0,0.0,0.0,0.0,0.0,0.0,0.0,0.0,0.0,0.0,0.0,0.0,0.0,0.0,0.0,0.0,-2.3799,-2.5961,-2.7844,-2.9259,-3.0195,-3.0711,-3.0761,-3.0937,-3.1067,-3.114,-3.1833,-3.2474,-3.3152,-3.4956,-3.6096,-3.662,-3.6273,-3.5926,-3.5447,-3.3821,-3.2101,-3.0306,-2.8621,0.0,0.0,0.0,0.0,0.0,0.0,0.0,0.0,0.0,-2.679,-2.906,-3.0674,-3.2441,-3.4932,-3.9798,-4.1251,-4.2341,-4.6214,-4.715,-4.7113,-4.7113,-4.6985,-4.6012,-4.2928,-4.1898,-4.0868,0.0,0.0,-3.8522,-3.9319,-4.1162,-4.2745,-4.3516,-4.5039,-4.6067,0.0,0.0,0.0,0.0,0.0,0.0,-4.3791,0.0,-4.4764,-4.4764,-4.5498,-4.5535,-4.4745,-4.4709,-4.4305,-4.3497,-4.3497,-4.3497,-4.3497,-4.3497,-4.3497,-4.3497,-4.3497,-4.2504,-4.0712,-3.9984,-3.8604,-3.6818,-3.5994,-3.5284,-3.4658,-3.4624,-3.4201,-3.3643,-3.3643,-3.3643,-3.3178,0.0,0.0,0.0,0.0,0.0,0.0,0.0,0.0,0.0,0.0,0.0,0.0,0.0,0.0,0.0,0.0,0.0,0.0,0.0,0.0,0.0,0.0,0.0,0.0,0.0,0.0,0.0,-2.9037,-2.9076,-2.9438,-2.9995,-3.0218,-3.0667,-3.1404,-3.2369,-3.2876,-3.3073,-3.3437,-3.3265,-3.254,0.0,-2.9687,-2.855,0.0,0.0,0.0,0.0,0.0,0.0,0.0,0.0,0.0,0.0,-3.017,-3.2538,-3.4879,-3.7189,-3.9622,-4.2862,-4.4636,-4.5975,-4.759,-4.7553,-4.7113,-4.7113,-4.5259,-4.3296,-4.247,-3.9553,-3.7,0.0,0.0,0.0,-3.854,-4.2187,0.0,-4.5259,-4.7223,0.0,0.0,0.0,-4.8159,-4.6929,-4.6801,0.0,0.0,-4.5828,-4.559,-4.559,-4.5792,-4.5535,-4.4745,-4.4709,-4.4305,-4.3497,-4.3497,-4.3497,-4.3497,-4.3497,-4.3497,-4.3497,-4.3497,-4.2668,-4.1166,-4.0655,-3.9568,-3.8074,-3.6939,-3.6705,-3.6992,-3.6417,-3.6417,-3.6755,-3.6755,-3.6755,-3.6409,0.0,0.0,0.0,0.0,0.0,0.0,0.0,0.0,0.0,0.0,0.0,0.0,0.0,0.0,0.0,0.0,0.0,0.0,0.0,0.0,0.0,0.0,0.0,0.0,0.0,0.0,0.0,0.0,0.0,0.0,-2.6177,-2.6509,-2.6892,-2.7308,-2.8578,-2.9161,-2.9161,-2.9391,0.0,0.0,0.0,0.0,0.0,0.0,0.0,0.0,0.0,0.0,0.0,0.0,0.0,-3.0039,-3.1529,-3.3684,-3.6133,-3.8652,0.0,-4.2534,-4.5077,-4.6434,-4.7297,-4.8104,-4.7719,-4.6709,-4.5205,-4.3175,-4.1016,-3.878,-3.6172,0.0,0.0,0.0,0.0,0.0,0.0,0.0,-4.57,-4.77,-4.9114,0.0,-4.9829,0.0,-4.8838,-4.8728,-4.8728,0.0,-4.7627,-4.6948,-4.6948,-4.7315,-4.6985,-4.581,-4.5424,-4.4672,-4.3497,-4.3497,-4.3497,-4.3497,-4.3497,-4.3497,-4.3497,-4.3497,-4.2814,-4.1529,0.0,-3.9974,-3.8699,-3.7691,-3.7533,-3.7872,-3.7432,-3.7533,-3.7905,-3.7905,-3.7905,-3.7739,0.0,0.0,0.0,0.0,0.0,0.0,0.0,0.0,0.0,0.0,0.0,0.0,0.0,0.0,0.0,0.0,0.0,0.0,0.0,0.0,0.0,0.0,0.0,0.0,0.0,0.0,0.0,0.0,0.0,0.0,0.0,0.0,0.0,0.0,0.0,0.0,0.0,0.0,0.0,0.0,0.0,0.0,0.0,0.0,0.0,0.0,0.0,0.0,0.0,0.0,-3.0964,-3.251,-3.4885,-3.7424,-3.9942,-4.2242,-4.3501,-4.4635,-4.6966,-4.7517,-4.759,-4.8159,-4.7535,-4.592,-4.2721,-4.1045,-3.8882,-3.4297,0.0,-3.2166,-3.1114,0.0,-3.4008,-3.5957,0.0,-4.2396,-4.5608,-4.7462,-4.9095,-5.0765,-5.1059,-5.1077,-5.0967,-5.0967,-5.0967,-5.0967,-4.9517,-4.86,-4.8489,-4.9187,-4.882,-4.713,-4.6232,-4.5076,-4.3663,-4.3534,-4.3497,-4.3497,-4.341,-4.341,-4.341,-4.3321,-4.2678,-4.1629,-4.0983,0.0,-3.9089,-3.8345,-3.8108,-3.8176,-3.8091,-3.8108,-3.8193,-3.8193,-3.8193,-3.8176,0.0,0.0,0.0,0.0,0.0,0.0,0.0,0.0,0.0,0.0,-1.5638,-1.5807,0.0,0.0,0.0,0.0,0.0,0.0,0.0,0.0,0.0,0.0,0.0,0.0,0.0,0.0,0.0,0.0,0.0,0.0,0.0,0.0,0.0,0.0,0.0,0.0,0.0,0.0,0.0,0.0,0.0,0.0,0.0,0.0,0.0,0.0,0.0,0.0,0.0,0.0,-3.3211,-3.6824,-3.9263,-4.1684,-4.414,-4.6507,-4.7332,-4.7865,-4.9682,-4.9664,-4.9022,-4.8453,-4.6709,-4.4546,-4.2412,-3.9261,0.0,0.0,0.0,-3.107,-3.1882,-3.3207,0.0,-3.7778,0.0,0.0,0.0,0.0,-4.9958,0.0,0.0,0.0,0.0,0.0,0.0,0.0,0.0,-5.0086,-4.9407,-4.9499,-4.882,-4.713,-4.5681,-4.4782,-4.4488,-4.3828,-4.3497,-4.3479,-4.305,-4.2826,-4.2808,-4.2324,-4.169,-4.1024,-4.0948,0.0,-3.9834,-3.9106,-3.9157,-3.9648,-3.9039,-3.9174,-3.9698,-3.9698,-3.9698,-3.9614,0.0,0.0,0.0,0.0,0.0,0.0,0.0,-1.4406,-1.5004,-1.6046,-1.5798,-1.5931,-1.7019,-1.6783,-1.6678,0.0,0.0,0.0,0.0,0.0,0.0,0.0,0.0,0.0,0.0,0.0,0.0,0.0,0.0,0.0,0.0,0.0,0.0,0.0,0.0,0.0,0.0,0.0,0.0,0.0,0.0,0.0,0.0,0.0,0.0,0.0,0.0,0.0,0.0,0.0,-3.2004,-3.6109,-4.04,-4.3094,-4.5094,-4.7095,-4.7976,-4.8581,-4.9829,-4.9884,-4.937,-4.8526,-4.6177,-4.3245,-3.9979,0.0,0.0,0.0,0.0,-2.9213,-2.9978,0.0,0.0,0.0,0.0,0.0,0.0,0.0,0.0,0.0,0.0,0.0,0.0,0.0,0.0,0.0,0.0,-5.1518,-5.0288,-4.9389,-4.8361,-4.715,-4.6361,-4.5755,-4.5333,-4.4236,-4.3706,-4.3706,-4.2699,-4.2203,-4.2203,-4.1937,-4.149,-4.0903,-4.0903,0.0,-4.0054,-3.9698,-3.9766,-4.0037,-3.9698,-3.9766,-4.007,-4.007,-4.007,-4.002,0.0,0.0,0.0,0.0,0.0,0.0,0.0,-1.4869,-1.5521,-1.6231,-1.6241,-1.6427,-1.7018,-1.6491,-1.637,0.0,0.0,0.0,0.0,0.0,0.0,0.0,0.0,0.0,0.0,0.0,0.0,0.0,0.0,0.0,0.0,0.0,0.0,0.0,0.0,0.0,0.0,0.0,0.0,0.0,0.0,0.0,0.0,0.0,0.0,0.0,0.0,0.0,0.0,0.0,-2.9619,-3.3099,-3.8364,-4.1766,-4.4179,-4.5792,-4.7074,-4.8229,-4.9517,-4.9719,-4.937,-4.8526,-4.5755,-4.2093,-3.779,-3.479,0.0,0.0,-2.7824,-2.7842,-2.8284,0.0,0.0,0.0,0.0,0.0,0.0,0.0,0.0,0.0,0.0,0.0,0.0,0.0,0.0,0.0,0.0,0.0,-5.0875,-4.9224,-4.8012,-4.7388,-4.7205,-4.6819,-4.6159,-4.4762,-4.3984,-4.3888,-4.2478,-4.1707,-4.1621,-4.1508,-4.1196,-4.075,-4.075,0.0,0.0,-4.007,-4.007,-4.007,-4.007,-4.007,-4.007,-4.007,-4.007,-4.007,0.0,0.0,0.0,0.0,0.0,0.0,0.0,-1.5709,-1.6403,-1.702,-1.7076,-1.7059,-1.7023,-1.6882,-1.6876,0.0,0.0,0.0,0.0,0.0,0.0,0.0,0.0,0.0,0.0,0.0,0.0,0.0,0.0,0.0,0.0,0.0,0.0,0.0,0.0,0.0,0.0,0.0,0.0,0.0,0.0,0.0,0.0,0.0,0.0,0.0,0.0,0.0,0.0,0.0,0.0,-2.8735,-3.1666,-3.6483,-4.1411,-4.3069,0.0,0.0,-5.001,-5.016,-4.937,-4.8526,-4.5333,-4.1434,-3.7667,0.0,0.0,-2.9246,-2.821,-2.8,-2.9005,-2.9312,0.0,0.0,0.0,0.0,0.0,0.0,0.0,0.0,0.0,0.0,0.0,0.0,0.0,0.0,0.0,0.0,-5.0857,-4.9224,-4.8269,-4.8196,-4.7498,-4.7039,-4.7003,-4.5443,-4.4381,-4.3888,-4.2478,-4.1534,-4.0949,-4.0466,-4.0204,-4.0154,-4.0154,0.0,0.0,-4.007,-4.007,-4.007,-4.007,-4.007,-4.007,-4.007,-4.007,-4.007,0.0,0.0,0.0,0.0,0.0,0.0,-1.5027,-1.6033,-1.6873,-1.7117,-1.7099,-1.7074,-1.7074,-1.6956,-1.6946,-1.7023,0.0,0.0,0.0,0.0,0.0,0.0,0.0,0.0,0.0,0.0,0.0,0.0,0.0,0.0,0.0,0.0,0.0,0.0,0.0,0.0,0.0,0.0,0.0,0.0,0.0,0.0,0.0,0.0,0.0,0.0,0.0,0.0,0.0,0.0,0.0,0.0,-2.6446,-2.9859,0.0,0.0,-4.2632,-4.5294,-4.843,-4.9444,-4.926,-4.7921,-4.4562,-4.061,-3.6924,0.0,0.0,-2.8611,-2.7912,-2.7818,-2.8253,-2.8352,-2.893,-3.0805,0.0,0.0,0.0,0.0,0.0,0.0,0.0,0.0,0.0,0.0,0.0,0.0,0.0,0.0,-5.0839,-4.9701,-4.8838,-4.8324,-4.7229,-4.6812,-4.7284,-4.4993,-4.3944,-4.4177,-4.2298,-4.1329,-4.1083,-4.0408,-4.007,-4.007,-4.007,0.0,0.0,-4.007,-4.007,-4.007,-4.007,-4.007,-4.007,-4.007,-4.007,-4.007,0.0,0.0,0.0,0.0,0.0,-1.5342,-1.5336,-1.6353,-1.7108,-1.7108,-1.7074,-1.7048,-1.7083,-1.7007,-1.6981,-1.7023,-1.6539,0.0,0.0,0.0,0.0,0.0,0.0,0.0,0.0,0.0,0.0,-1.6946,0.0,0.0,0.0,0.0,0.0,0.0,0.0,0.0,0.0,0.0,0.0,0.0,0.0,0.0,0.0,0.0,0.0,0.0,0.0,0.0,0.0,0.0,0.0,0.0,0.0,0.0,0.0,0.0,-3.9204,-4.2596,-4.57,-4.748,-4.8214,-4.7058,-4.3518,-3.9502,0.0,0.0,0.0,-2.8053,-2.7701,-2.7701,-2.7701,-2.7701,-2.7964,-2.8741,0.0,-3.1227,0.0,0.0,0.0,0.0,0.0,0.0,0.0,0.0,0.0,0.0,0.0,0.0,-5.0839,-5.0031,-4.9148,-4.8072,-4.6946,-4.6593,-4.7088,-4.4953,-4.406,-4.4383,-4.2637,-4.1716,-4.1508,-4.0984,-4.0612,-4.0409,-4.0409,0.0,0.0,-4.007,-4.007,-4.007,-4.007,-4.007,-4.007,-4.007,-4.007,-4.007,0.0,0.0,0.0,0.0,0.0,0.0,-1.6108,-1.6719,-1.7174,-1.7108,-1.7108,-1.7108,-1.7108,-1.7108,-1.7108,-1.7108,-1.7048,0.0,0.0,0.0,0.0,0.0,0.0,0.0,0.0,0.0,-1.6879,-1.7014,-1.7014,-1.7023,0.0,0.0,0.0,0.0,0.0,0.0,0.0,0.0,0.0,0.0,0.0,0.0,0.0,0.0,0.0,0.0,0.0,0.0,0.0,0.0,0.0,0.0,0.0,0.0,0.0,0.0,-3.4584,-3.9428,-4.1732,-4.4103,-4.592,-4.592,-4.2132,-3.7936,0.0,0.0,0.0,-2.7918,-2.7701,-2.7701,-2.7701,-2.7701,-2.7935,-2.8679,-3.0317,0.0,0.0,0.0,0.0,0.0,0.0,0.0,0.0,0.0,0.0,0.0,0.0,0.0,-5.0839,-5.0031,-4.8912,-4.7464,-4.6756,-4.6413,-4.643,-4.5587,-4.4935,-4.4401,-4.3588,-4.2859,-4.2286,-4.2269,-4.188,0.0,0.0,0.0,0.0,-4.007,-4.007,-4.007,-4.007,-4.007,-4.007,-4.007,-4.007,-4.007,0.0,0.0,0.0,0.0,0.0,0.0,0.0,-1.6334,-1.6613,-1.7109,-1.6686,-1.6532,-1.7059,-1.7108,-1.7108,-1.7108,-1.7083,0.0,0.0,0.0,0.0,0.0,0.0,0.0,0.0,0.0,-1.693,-1.7074,-1.7074,-1.7149,-1.7232,-1.7232,-1.7281,0.0,0.0,0.0,0.0,0.0,0.0,0.0,0.0,0.0,0.0,0.0,0.0,0.0,0.0,0.0,0.0,0.0,0.0,0.0,0.0,0.0,0.0,-2.5737,0.0,0.0,-3.6313,-3.8238,-3.9613,-3.9067,-3.6912,-3.4576,-3.3234,0.0,0.0,-2.7918,-2.7701,-2.7701,-2.7701,-2.7701,-2.8388,-3.0442,-3.1657,0.0,0.0,0.0,0.0,0.0,0.0,0.0,0.0,0.0,0.0,0.0,0.0,0.0,-4.9528,-4.8283,-4.7529,-4.7403,-4.6284,-4.5693,-4.5765,-4.4595,-4.4144,-4.4548,-4.371,-4.2991,-4.2269,-4.1779,-4.1153,0.0,0.0,0.0,0.0,-4.007,-4.007,-4.007,-4.007,-4.007,-4.007,-4.007,-4.007,-4.007,0.0,0.0,0.0,0.0,0.0,0.0,0.0,-1.657,-1.6709,-1.7183,-1.6784,-1.6629,-1.7117,-1.7183,-1.7183,-1.7216,-1.7191,0.0,0.0,0.0,0.0,0.0,0.0,0.0,0.0,-1.6981,-1.7161,-1.7548,-1.7548,-1.7771,-1.8202,-1.8202,-1.8104,-1.7888,-1.7929,0.0,0.0,0.0,0.0,0.0,0.0,0.0,-1.794,0.0,0.0,0.0,0.0,0.0,0.0,0.0,0.0,0.0,0.0,0.0,0.0,0.0,-2.6106,0.0,0.0,-3.4026,-3.5426,-3.4907,-3.331,0.0,0.0,0.0,0.0,-2.7414,-2.7508,-2.7701,-2.7701,-2.7672,-2.8205,-2.9849,-3.1667,0.0,0.0,0.0,0.0,0.0,0.0,0.0,0.0,0.0,0.0,0.0,0.0,0.0,-4.8444,-4.7254,-4.6604,-4.6699,-4.5589,-4.506,-4.5178,-4.4283,-4.4096,-4.457,-4.4079,-4.3453,-4.2709,-4.2252,-4.1474,0.0,0.0,0.0,0.0,-4.007,-4.007,-4.007,-4.007,-4.007,-4.007,-3.9782,-3.9662,-3.961,0.0,0.0,0.0,0.0,0.0,0.0,0.0,-1.7281,-1.7264,-1.7314,-1.7224,-1.7191,-1.7305,-1.7314,-1.7338,-1.7384,0.0,0.0,0.0,0.0,0.0,0.0,0.0,0.0,0.0,-1.7108,-1.7508,-1.8339,-1.8339,-1.8795,-1.9724,-1.9724,-1.941,-1.8801,-1.8792,0.0,0.0,0.0,0.0,0.0,0.0,0.0,0.0,0.0,0.0,0.0,0.0,0.0,0.0,0.0,0.0,0.0,0.0,0.0,0.0,0.0,0.0,0.0,0.0,-3.091,0.0,0.0,0.0,0.0,0.0,0.0,0.0,0.0,0.0,0.0,-2.7771,-2.7694,-2.7674,-2.7923,-3.0942,0.0,0.0,0.0,0.0,0.0,0.0,0.0,0.0,0.0,0.0,0.0,0.0,0.0,-4.759,-4.6729,-4.6014,-4.5459,-4.4906,-4.4587,-4.4587,-4.4587,-4.4587,-4.4587,-4.4519,-4.4096,-4.3335,-4.3284,-4.2489,0.0,0.0,0.0,0.0,-4.007,-4.007,-4.007,-4.007,-4.007,-4.002,-3.9209,-3.8908,-3.8799,0.0,0.0,0.0,0.0,0.0,0.0,0.0,0.0,0.0,0.0,-1.7059,-1.6903,-1.7452,-1.7479,-1.7455,0.0,0.0,0.0,0.0,0.0,0.0,0.0,0.0,0.0,0.0,-1.7257,-1.77,-1.8593,-1.8593,-1.9094,-2.001,-2.001,-1.9909,-1.9731,-1.914,-1.8481,0.0,0.0,0.0,0.0,0.0,0.0,0.0,0.0,0.0,0.0,-1.9638,-2.0239,0.0,0.0,0.0,0.0,0.0,0.0,0.0,0.0,-2.3092,-2.3414,-2.4388,0.0,-2.6402,-2.6402,-2.5941,0.0,0.0,0.0,0.0,0.0,0.0,0.0,0.0,0.0,0.0,0.0,0.0,0.0,0.0,0.0,0.0,0.0,0.0,0.0,0.0,0.0,0.0,0.0,0.0,-4.6881,-4.6199,-4.5463,-4.4944,-4.4814,-4.4682,-4.4587,-4.4587,-4.4587,-4.4587,-4.457,-4.3978,-4.3301,-4.254,-4.1982,-4.1221,0.0,0.0,0.0,-4.007,-4.007,-4.007,-4.007,-4.007,-4.007,-4.002,-3.9209,-3.8908,-3.8799,0.0,0.0,0.0,0.0,0.0,0.0,0.0,0.0,0.0,0.0,0.0,-1.7227,-1.7676,-1.7618,0.0,0.0,0.0,0.0,0.0,0.0,0.0,0.0,0.0,0.0,-1.7394,-1.7748,-1.8377,-1.9311,-1.9664,-2.0322,-2.1259,-2.1259,-2.1071,-2.0679,-1.9522,-1.8807,0.0,0.0,0.0,0.0,-1.81,0.0,0.0,0.0,0.0,0.0,-1.9014,-1.9566,0.0,-2.024,-2.074,-2.1342,0.0,0.0,0.0,0.0,-2.279,-2.302,-2.3095,-2.3681,-2.4304,-2.4304,-2.4304,-2.4532,0.0,0.0,0.0,0.0,0.0,0.0,0.0,0.0,0.0,0.0,0.0,0.0,0.0,0.0,0.0,0.0,0.0,0.0,0.0,0.0,0.0,0.0,0.0,-4.5917,-4.5196,-4.4807,-4.4587,-4.4587,-4.4587,-4.4587,-4.4587,-4.4215,-4.4215,-4.457,-4.3436,-4.2692,-4.2269,-4.1542,-4.0798,0.0,0.0,0.0,-4.007,-4.007,-4.007,-4.007,-4.007,-3.9885,-3.9437,-3.8707,-3.8173,-3.7758,0.0,0.0,0.0,0.0,0.0,0.0,0.0,0.0,0.0,0.0,0.0,0.0,0.0,0.0,0.0,0.0,0.0,0.0,0.0,0.0,0.0,0.0,0.0,-1.7467,-1.7699,-1.8382,-1.921,-2.0221,-2.1027,-2.1907,-2.2804,-2.2831,-2.2366,-2.148,-1.9996,-1.9293,0.0,0.0,0.0,0.0,-1.827,0.0,0.0,0.0,0.0,0.0,0.0,0.0,0.0,-1.9532,-2.0044,-2.0717,-2.0653,0.0,0.0,0.0,0.0,0.0,-2.326,-2.397,-2.4654,-2.4374,-2.4392,-2.4515,-2.4638,0.0,0.0,0.0,0.0,0.0,0.0,0.0,0.0,0.0,0.0,0.0,0.0,0.0,0.0,0.0,0.0,0.0,0.0,0.0,0.0,0.0,0.0,-4.5263,-4.4604,-4.4587,-4.4587,-4.4587,-4.4587,-4.4519,-4.4401,-4.3859,-4.3927,-4.4553,-4.3031,-4.2286,-4.2252,-4.1424,-4.0679,-4.007,0.0,0.0,-4.007,-4.007,-4.007,-4.007,-4.007,-3.961,-3.8799,-3.8092,-3.7279,-3.6492,0.0,0.0,0.0,0.0,0.0,0.0,0.0,0.0,0.0,0.0,0.0,0.0,0.0,0.0,0.0,0.0,0.0,0.0,0.0,0.0,0.0,0.0,-1.7658,-1.7967,-1.8684,-1.8819,-1.9636,-2.1199,-2.2056,-2.2936,-2.3786,-2.384,-2.3102,-2.1704,-2.0784,-2.0015,-1.9329,-1.8676,-1.8348,-1.829,-1.829,0.0,0.0,0.0,0.0,0.0,0.0,0.0,0.0,-1.868,-1.921,-1.9885,-1.9875,0.0,0.0,0.0,0.0,0.0,-2.3927,-2.5322,-2.6224,-2.4689,-2.4769,-2.5419,0.0,0.0,0.0,0.0,0.0,0.0,0.0,0.0,0.0,0.0,0.0,0.0,0.0,0.0,0.0,0.0,0.0,0.0,0.0,0.0,0.0,0.0,0.0,-4.4705,-4.4587,-4.4587,-4.4587,-4.4587,-4.4587,-4.4265,-4.3606,-4.413,-4.4468,-4.4553,-4.3031,-4.2286,-4.2236,-4.0865,-4.0189,-4.007,0.0,-4.007,-4.007,-4.007,-4.007,-4.007,-4.007,-3.961,-3.8799,-3.8092,-3.7279,-3.6492,0.0,0.0,0.0,0.0,0.0,0.0,0.0,0.0,0.0,0.0,0.0,0.0,0.0,0.0,0.0,0.0,0.0,0.0,0.0,0.0,0.0,-1.7917,-1.8336,-1.8694,-1.8988,-1.9437,-2.0277,-2.1566,-2.2816,-2.3432,-2.3467,-2.3493,-2.3152,-2.2443,-2.1214,-2.0458,-2.0035,-1.8912,-1.8426,-1.8348,0.0,0.0,0.0,0.0,0.0,0.0,0.0,0.0,0.0,0.0,-1.877,-1.9107,-1.9105,0.0,0.0,0.0,0.0,0.0,-2.359,-2.4925,-2.6118,-2.5835,-2.6712,-2.7665,0.0,0.0,0.0,0.0,0.0,0.0,0.0,0.0,0.0,0.0,0.0,0.0,0.0,0.0,0.0,0.0,0.0,0.0,0.0,0.0,0.0,0.0,0.0,0.0,-4.4587,-4.4587,-4.4384,-4.3961,-4.3944,-4.3589,-4.2811,-4.3166,-4.3352,-4.3318,-4.1813,-4.1305,-4.166,-4.0578,-4.007,-4.007,0.0,-4.007,-4.007,-4.007,-3.9833,-3.9437,-3.9437,-3.8745,-3.7584,-3.6814,-3.6305,-3.5943,0.0,0.0,0.0,0.0,0.0,0.0,0.0,0.0,0.0,0.0,0.0,0.0,0.0,0.0,0.0,0.0,0.0,0.0,0.0,0.0,-1.8044,-1.8044,-1.8702,-1.9189,-1.9424,-2.0213,-2.1083,-2.1975,-2.3354,-2.3781,-2.3307,-2.3307,-2.3228,-2.3025,-2.1423,-2.0718,-2.0613,-1.9132,-1.8465,-1.8406,0.0,0.0,0.0,0.0,0.0,0.0,0.0,0.0,0.0,0.0,0.0,0.0,0.0,0.0,0.0,-2.099,-2.2086,-2.33,-2.3404,-2.4494,-2.5808,-2.6791,0.0,0.0,0.0,0.0,0.0,0.0,0.0,0.0,0.0,0.0,0.0,0.0,0.0,0.0,0.0,0.0,0.0,0.0,0.0,0.0,0.0,0.0,0.0,0.0,0.0,0.0,-4.4316,-4.4316,-4.3961,-4.3183,-4.3149,-4.2794,-4.2049,-4.2033,-4.2117,-4.2269,-4.0967,-4.0646,-4.117,-4.0426,-4.007,-4.007,-4.007,-4.007,-4.007,-4.007,-3.961,-3.8908,-3.8908,-3.7987,-3.6492,-3.5782,-3.5504,-3.5504,0.0,0.0,0.0,0.0,0.0,0.0,0.0,0.0,0.0,0.0,0.0,0.0,0.0,0.0,0.0,0.0,0.0,0.0,0.0,0.0,-1.819,-1.819,-1.8305,-1.9022,-2.0385,-2.1198,-2.201,-2.2807,-2.3728,-2.4191,-2.4208,-2.4208,-2.3804,-2.3025,-2.1469,-2.0762,-2.0613,-1.9132,-1.8465,-1.8406,-1.8465,0.0,0.0,0.0,0.0,0.0,0.0,0.0,0.0,0.0,0.0,0.0,0.0,0.0,-2.1075,-2.0929,-2.2,-2.3351,-2.4023,-2.4977,-2.5997,-2.6961,-2.7692,0.0,-3.2121,-3.2324,0.0,-3.4668,0.0,0.0,0.0,0.0,0.0,0.0,0.0,0.0,0.0,0.0,0.0,0.0,0.0,0.0,0.0,0.0,0.0,0.0,0.0,0.0,-4.3538,-4.3504,-4.3166,-4.2388,-4.2371,-4.2016,-4.1288,-4.1288,-4.1627,-4.2286,-4.1508,-4.1153,-4.117,-4.0426,-4.007,-4.007,-4.007,-4.007,-4.007,-4.007,-3.961,-3.8908,-3.8908,-3.7987,-3.6492,-3.5782,-3.5504,-3.5504,0.0,0.0,0.0,0.0,0.0,0.0,0.0,0.0,0.0,0.0,0.0,0.0,0.0,0.0,0.0,0.0,0.0,0.0,0.0,0.0,-1.8256,-1.8263,-1.8753,-1.9543,-2.0592,-2.0877,-2.1666,-2.297,-2.3325,-2.3779,-2.4304,-2.3786,-2.34,-2.3049,-2.1487,-2.0785,-2.0657,-1.9134,-1.8502,-1.8465,-1.8485,-1.8485,0.0,0.0,0.0,0.0,0.0,0.0,0.0,0.0,-1.8641,-1.8642,-1.8604,-1.9759,-2.1075,-2.099,-2.2046,-2.3294,-2.3545,-2.508,-2.6823,-2.7767,-2.8989,0.0,0.0,-3.4546,-3.5775,-3.7003,0.0,0.0,0.0,0.0,0.0,0.0,0.0,0.0,0.0,0.0,0.0,0.0,0.0,0.0,0.0,0.0,0.0,0.0,0.0,0.0,-4.276,-4.2726,-4.2388,-4.1644,-4.1627,-4.1255,-4.051,-4.051,-4.0646,-4.0916,-4.0646,-4.051,-4.0493,-4.0206,-4.007,-4.007,-3.9558,-3.9368,-3.9315,-3.8887,-3.8189,-3.7408,-3.698,-3.6415,-3.5894,-3.5619,-3.5504,-3.5504,0.0,0.0,0.0,0.0,0.0,0.0,0.0,0.0,0.0,0.0,0.0,0.0,0.0,0.0,0.0,0.0,0.0,0.0,-1.8301,-1.8301,-1.8304,-1.829,-1.885,-1.9538,-2.035,-2.0551,-2.1424,-2.3045,-2.3095,-2.3383,-2.3909,-2.3365,-2.2996,-2.2698,-2.1364,-2.0684,-2.0385,-1.9067,-1.8485,-1.8485,-1.8485,-1.8485,0.0,0.0,0.0,0.0,0.0,0.0,0.0,0.0,-1.8678,-1.8697,-1.8659,-1.9779,-2.1075,-2.0994,-2.2109,-2.3336,-2.3289,-2.4733,-2.6591,0.0,0.0,0.0,-3.4431,-3.6468,-3.8346,-3.9962,0.0,0.0,0.0,0.0,0.0,0.0,0.0,0.0,0.0,0.0,0.0,0.0,0.0,0.0,0.0,0.0,0.0,0.0,0.0,0.0,0.0,-4.1948,-4.161,-4.0882,-4.0849,-4.0595,-4.007,-4.007,-4.007,-4.007,-4.007,-4.007,-4.007,-4.007,-3.9952,-3.9662,-3.9139,-3.8745,-3.8525,-3.8035,-3.7338,-3.6554,-3.5782,-3.5504,-3.5504,-3.5504,-3.5504,-3.5504,0.0,0.0,0.0,0.0,0.0,0.0,0.0,0.0,0.0,0.0,0.0,0.0,0.0,0.0,0.0,0.0,0.0,0.0,-1.831,-1.831,-1.831,-1.831,-1.8385,-1.8773,-1.958,-2.0398,-2.1557,-2.3095,-2.3095,-2.3095,-2.3095,-2.3095,-2.2716,-2.1966,-2.1158,-2.0402,-1.9644,-1.8836,-1.8485,-1.8485,-1.8485,-1.8485,-1.8485,0.0,0.0,0.0,0.0,0.0,0.0,0.0,-1.8752,-1.8697,-1.8697,-1.9799,-2.1075,-2.0929,-2.2114,-2.3494,-2.3424,-2.3934,0.0,0.0,0.0,0.0,-3.6703,-3.8138,-3.9882,0.0,0.0,0.0,0.0,0.0,0.0,0.0,0.0,0.0,0.0,0.0,0.0,0.0,0.0,0.0,0.0,0.0,0.0,0.0,0.0,0.0,0.0,-4.1187,-4.0849,-4.0104,-4.007,-4.007,-4.007,-4.007,-4.007,-4.007,-4.007,-4.007,-4.007,-4.007,-3.9662,-3.8908,-3.8908,-3.8469,-3.7822,-3.7764,-3.7338,-3.6492,-3.5782,-3.5504,-3.5504,-3.5504,-3.5504,-3.5504,0.0,0.0,0.0,0.0,0.0,0.0,0.0,0.0,0.0,0.0,0.0,0.0,0.0,0.0,0.0,0.0,0.0,0.0,-1.8385,-1.8385,-1.8406,-1.8445,-1.8465,-1.8851,-1.964,-2.0398,-2.1557,-2.3095,-2.3095,-2.3095,-2.3095,-2.3095,-2.2716,-2.1966,-2.1158,-2.0402,-1.9644,-1.8836,-1.8485,-1.8485,-1.8485,-1.8485,-1.8485,0.0,0.0,0.0,0.0,0.0,0.0,0.0,0.0,0.0,-1.8697,-1.9779,-2.0994,-2.0947,-2.2023,-2.3265,-2.3217,0.0,0.0,0.0,0.0,0.0,0.0,-4.0249,0.0,0.0,0.0,0.0,0.0,0.0,0.0,0.0,0.0,0.0,0.0,0.0,0.0,0.0,0.0,0.0,0.0,0.0,0.0,0.0,0.0,0.0,0.0,-4.0409,-4.0307,-4.0087,-4.007,-4.007,-4.007,-4.007,-4.007,-4.007,-3.9542,-3.9542,-4.007,-3.9489,-3.9139,-3.8854,-3.7758,-3.7128,-3.6919,-3.643,-3.6022,-3.5782,-3.5554,-3.5504,-3.5504,-3.5504,-3.5504,-3.5504,0.0,0.0,0.0,0.0,0.0,0.0,0.0,0.0,0.0,0.0,0.0,0.0,0.0,0.0,0.0,0.0,0.0,0.0,0.0,-1.8426,-1.8445,-1.8485,-1.8485,-1.8871,-1.9679,-2.0135,-2.0943,-2.2189,-2.2505,-2.2821,-2.3077,-2.2803,-2.2435,-2.1943,-2.0859,-2.0117,-1.9644,-1.8836,-1.8485,-1.8485,-1.8485,-1.8485,-1.8485,0.0,0.0,0.0,0.0,0.0,0.0,0.0,0.0,0.0,-1.8658,0.0,-2.0566,-2.0866,-2.1905,-2.2998,-2.3346,0.0,0.0,0.0,0.0,0.0,0.0,0.0,0.0,0.0,0.0,0.0,0.0,0.0,0.0,0.0,0.0,0.0,0.0,0.0,0.0,0.0,0.0,0.0,0.0,0.0,0.0,0.0,0.0,0.0,0.0,-4.007,-4.007,-4.007,-4.007,-4.007,-4.007,-4.007,-4.007,-4.007,-3.9262,-3.9139,-3.961,-3.8816,-3.8286,-3.793,-3.6676,-3.6165,-3.6117,-3.5668,-3.5504,-3.5504,-3.5504,-3.5504,-3.5504,-3.5504,-3.5504,-3.5504,0.0,0.0,0.0,0.0,0.0,0.0,0.0,0.0,0.0,0.0,0.0,0.0,0.0,0.0,0.0,0.0,0.0,0.0,0.0,0.0,-1.8485,-1.8485,-1.8485,-1.8836,-1.9573,-1.9591,-1.9942,-2.0701,-2.151,-2.2224,-2.2891,-2.2277,-2.1966,-2.182,-2.0416,-1.9749,-1.9644,-1.8836,-1.8485,-1.8485,-1.8485,-1.8485,-1.8485,-1.8485,0.0,0.0,0.0,0.0,0.0,0.0,0.0,0.0,-1.8598,-1.9109,-1.987,-2.0702,-2.1706,-2.2695,0.0,0.0,0.0,0.0,0.0,0.0,0.0,0.0,0.0,0.0,0.0,0.0,0.0,0.0,0.0,0.0,0.0,0.0,0.0,0.0,0.0,0.0,0.0,0.0,0.0,0.0,0.0,0.0,0.0,0.0,0.0,-4.007,-4.007,-4.007,-4.007,-4.007,-4.007,-4.007,-4.007,-4.007,-3.9209,-3.8799,-3.8799,-3.8019,-3.7279,-3.643,-3.5782,-3.5504,-3.5504,-3.5504,-3.5504,-3.5504,-3.5504,-3.5504,-3.5504,-3.5504,-3.5504,-3.5504,0.0,0.0,0.0,0.0,0.0,0.0,0.0,0.0,0.0,0.0,0.0,0.0,0.0,0.0,0.0,0.0,0.0,0.0,0.0,0.0,-1.8485,-1.8485,-1.8485,-1.8573,-1.8748,-1.8748,-1.9134,-1.9924,-2.0701,-2.1141,-2.1294,-2.1791,-2.1668,-2.1053,-2.0719,-2.0223,-1.9644,-1.8836,-1.8485,-1.8485,-1.8485,-1.8485,-1.8485,-1.8485,-1.8485,0.0,0.0,0.0,0.0,0.0,0.0,0.0,-1.8601,-1.9094,-1.9726,-1.9944,-2.1114,-2.2507,0.0,0.0,0.0,0.0,0.0,0.0,0.0,0.0,0.0,0.0,0.0,0.0,0.0,0.0,0.0,0.0,0.0,0.0,0.0,0.0,0.0,0.0,0.0,0.0,0.0,0.0,0.0,0.0,0.0,0.0,-4.007,-4.007,-4.007,-4.007,-4.007,-4.007,-4.007,-4.007,-4.007,0.0,-3.8707,-3.8035,-3.8035,-3.7203,-3.6461,-3.5733,-3.5554,-3.5504,-3.5504,-3.5504,-3.5504,-3.5504,-3.5504,-3.5504,-3.5504,-3.5504,-3.5504,-3.5504,0.0,0.0,0.0,0.0,0.0,0.0,0.0,0.0,0.0,0.0,0.0,0.0,0.0,0.0,0.0,0.0,0.0,0.0,0.0,0.0,0.0,-1.8485,-1.8485,-1.8485,-1.8485,-1.8485,-1.8696,-1.9117,-1.9524,-2.0086,-2.0807,-2.1228,-2.1422,-2.1351,-2.0591,-2.0262,-2.0135,-1.8976,-1.8485,-1.8485,-1.8485,-1.8485,-1.8485,-1.8485,-1.8485,-1.8485,-1.8485,0.0,0.0,0.0,0.0,0.0,0.0,0.0,-1.9213,-1.9664,-2.0705,-2.1932,0.0,0.0,0.0,0.0,0.0,0.0,0.0,0.0,0.0,0.0,0.0,0.0,0.0,0.0,0.0,0.0,0.0,0.0,0.0,0.0,0.0,0.0,0.0,0.0,0.0,0.0,0.0,0.0,0.0,-3.9039,-3.9039,-3.9377,-3.9546,-3.9546,-3.9901,-3.9918,-3.9563,-3.9546,-3.9323,-3.8989,-3.7785,-3.6867,-3.6226,-3.6152,-3.5831,-3.5504,-3.5504,-3.5504,-3.5504,-3.5504,-3.5504,-3.5504,-3.5504,-3.5504,-3.5504,-3.5504,-3.5504,-3.5504,0.0,0.0,0.0,0.0,0.0,0.0,0.0,0.0,0.0,0.0,0.0,0.0,0.0,0.0,0.0,0.0,0.0,0.0,0.0,0.0,0.0,-1.8524,-1.8524,-1.8524,-1.8524,-1.8524,-1.8524,-1.8524,-1.8524,0.0,0.0,0.0,-2.1158,-2.1756,-2.0451,-2.0223,-2.0701,-1.9155,-1.8485,-1.8485,-1.8485,-1.8485,-1.8485,-1.8485,-1.8485,-1.8485,-1.8485,-1.8485,-1.8485,-1.8485,0.0,0.0,0.0,0.0,-1.8647,-1.942,-2.0245,-2.1146,0.0,0.0,0.0,0.0,0.0,0.0,0.0,0.0,0.0,0.0,0.0,0.0,0.0,0.0,0.0,0.0,0.0,0.0,0.0,0.0,0.0,0.0,0.0,0.0,0.0,0.0,0.0,0.0,0.0,-3.7905,-3.7905,-3.8481,-3.8802,-3.8802,-3.9394,-3.9361,-3.8638,-3.8581,-3.8179,-3.7462,-3.6632,-3.5569,-3.4322,-3.4891,-3.516,-3.516,-3.516,-3.522,-3.5325,-3.5325,-3.54,-3.5504,-3.5504,-3.5504,-3.5504,-3.5504,-3.5504,-3.5504,0.0,0.0,0.0,0.0,0.0,0.0,0.0,0.0,0.0,0.0,0.0,0.0,0.0,0.0,0.0,0.0,0.0,0.0,0.0,0.0,0.0,-1.8603,-1.8603,-1.8603,-1.8603,-1.8603,-1.8603,-1.8603,-1.8603,0.0,0.0,0.0,0.0,-2.0965,0.0,-2.0719,-2.0701,-1.9155,-1.8485,-1.8485,-1.8485,-1.8485,-1.8485,-1.8485,-1.8485,-1.8485,-1.8485,-1.8485,-1.8485,-1.8485,-1.8485,0.0,0.0,0.0,-1.8522,-1.8647,-1.9348,-2.0412,0.0,0.0,0.0,0.0,0.0,0.0,0.0,0.0,0.0,0.0,0.0,0.0,0.0,0.0,0.0,0.0,0.0,0.0,0.0,0.0,0.0,0.0,0.0,0.0,0.0,0.0,0.0,0.0,-3.7973,-3.7905,-3.7905,-3.799,-3.8058,-3.8058,-3.8142,-3.7849,-3.7102,-3.7083,-3.6757,-3.6039,-3.5279,-3.4511,-3.3634,-3.3724,-3.3769,-3.3769,-3.3769,-3.4083,-3.4607,-3.4607,-3.4966,-3.5504,-3.5504,-3.5504,-3.5504,-3.5504,-3.5504,-3.5504,0.0,0.0,0.0,0.0,0.0,0.0,0.0,0.0,0.0,0.0,0.0,0.0,0.0,0.0,0.0,0.0,0.0,0.0,0.0,0.0,0.0,-1.8585,-1.8585,-1.8585,-1.8585,-1.8585,-1.8585,-1.8585,0.0,0.0,0.0,-2.0562,-2.1141,0.0,0.0,0.0,-2.078,-1.9653,-1.9175,-1.917,-1.917,-1.9497,-1.9896,-1.9368,-1.9497,-1.9896,-1.9351,-1.9433,-1.9735,-1.931,-1.917,-1.9082,-1.8625,0.0,0.0,0.0,-1.9107,0.0,0.0,0.0,0.0,0.0,0.0,0.0,0.0,0.0,0.0,0.0,0.0,0.0,0.0,0.0,0.0,0.0,0.0,0.0,0.0,0.0,0.0,0.0,0.0,0.0,0.0,0.0,0.0,0.0,-3.6874,-3.662,-3.662,-3.7043,-3.728,-3.728,-3.7265,-3.6937,-3.6191,-3.5808,-3.5252,-3.4527,-3.378,-3.329,-3.2931,-3.2557,-3.2796,-3.3499,-3.3499,-3.3858,-3.4472,-3.4472,-3.4891,-3.5504,-3.5504,-3.5504,-3.5504,-3.5504,-3.5504,-3.5504,0.0,0.0,0.0,0.0,0.0,0.0,0.0,0.0,0.0,0.0,0.0,0.0,0.0,0.0,0.0,0.0,0.0,0.0,0.0,0.0,0.0,-1.8641,-1.8641,-1.8641,-1.8641,-1.8641,-1.8641,0.0,0.0,0.0,-2.0152,-2.0735,-2.1551,0.0,-2.2291,-2.1843,0.0,0.0,0.0,-2.0019,-2.004,-2.048,-2.1031,-2.0359,-2.067,-2.1343,-2.0389,-2.0537,-2.1066,-2.0244,-1.9977,-1.9837,-1.9047,-1.8801,0.0,0.0,0.0,0.0,0.0,0.0,0.0,0.0,0.0,0.0,0.0,0.0,0.0,0.0,0.0,0.0,0.0,0.0,0.0,0.0,0.0,0.0,0.0,0.0,0.0,0.0,0.0,0.0,0.0,0.0,0.0,0.0,-3.5943,-3.5622,-3.5622,-3.6163,-3.64,-3.6197,-3.6415,-3.591,-3.4644,-3.381,-3.3188,-3.2721,-3.2243,-3.2093,-3.2243,-3.1764,-3.2078,-3.2991,-3.2991,-3.3365,-3.3978,-3.4158,-3.4622,-3.5265,-3.5429,-3.5504,-3.5504,-3.5504,-3.5504,-3.5504,0.0,0.0,0.0,0.0,0.0,0.0,0.0,0.0,0.0,0.0,0.0,0.0,0.0,-1.8542,-1.8563,-1.8678,0.0,0.0,0.0,0.0,0.0,-1.8788,-1.8788,0.0,-1.8788,-1.8788,-1.8788,0.0,0.0,0.0,-2.1036,-2.109,-2.1925,-2.3405,-2.2584,-2.2167,-2.2096,0.0,0.0,0.0,0.0,0.0,0.0,-2.1175,-2.1722,0.0,0.0,0.0,-2.2078,-2.1084,-2.0736,-2.0613,-1.9872,-1.9644,-1.9486,0.0,0.0,0.0,0.0,0.0,0.0,0.0,0.0,0.0,0.0,0.0,0.0,0.0,0.0,0.0,0.0,0.0,0.0,0.0,0.0,0.0,0.0,0.0,0.0,0.0,0.0,0.0,0.0,0.0,0.0,0.0,-3.5639,-3.5622,-3.5622,-3.5656,-3.5351,-3.4624,-3.529,-3.4376,-3.1742,-3.0483,-3.0128,-3.0657,-3.0627,-3.0956,-3.1526,-3.1497,-3.1511,-3.1571,-3.1571,-3.2003,-3.2662,-3.329,-3.3933,-3.4592,-3.525,-3.5504,-3.5504,-3.5504,-3.5504,-3.5504,0.0,0.0,0.0,0.0,0.0,0.0,0.0,0.0,0.0,0.0,0.0,0.0,0.0,-1.8565,-1.8603,-1.8697,-1.8733,0.0,0.0,0.0,0.0,-1.8788,-1.8788,-1.8788,-1.8788,-1.8824,0.0,0.0,0.0,-1.938,-2.0398,-2.0916,-2.1718,-2.2732,-2.2936,-2.2731,-2.2184,-2.1879,0.0,0.0,0.0,0.0,0.0,0.0,0.0,0.0,0.0,0.0,0.0,-2.2762,-2.2064,-2.1351,-2.01,-1.9696,-1.9538,-1.8731,-1.9169,0.0,0.0,0.0,0.0,0.0,0.0,0.0,0.0,0.0,0.0,0.0,0.0,0.0,0.0,0.0,0.0,0.0,0.0,0.0,0.0,0.0,0.0,0.0,0.0,0.0,0.0,0.0,0.0,0.0,0.0,-3.4692,-3.4218,-3.4201,-3.4083,-3.3795,-3.3276,-3.2079,-3.0299,-2.9818,-2.9894,-3.0507,-3.0507,-3.0866,-3.1482,-3.1482,-3.1482,-3.1482,-3.1482,-3.1898,-3.2557,-3.3215,-3.3888,-3.4547,-3.5235,-3.5504,-3.5504,-3.5504,-3.5504,-3.5504,0.0,0.0,0.0,0.0,0.0,0.0,0.0,0.0,0.0,0.0,0.0,0.0,0.0,0.0,-1.8641,-1.8679,-1.8752,-1.8788,-1.8788,-1.8788,-1.8806,-1.8824,-1.8824,-1.8824,-1.8825,0.0,0.0,0.0,0.0,0.0,0.0,-2.0541,-2.1325,-2.2303,-2.2856,-2.2919,0.0,0.0,0.0,-2.2506,0.0,0.0,-2.4454,0.0,0.0,0.0,0.0,0.0,0.0,0.0,0.0,0.0,-2.1057,-2.0322,-1.9907,-1.9117,-1.9535,0.0,-2.0537,0.0,0.0,0.0,0.0,0.0,0.0,0.0,0.0,0.0,0.0,0.0,0.0,0.0,0.0,0.0,0.0,0.0,0.0,0.0,0.0,0.0,0.0,0.0,0.0,0.0,0.0,0.0,0.0,0.0,-3.3778,-3.3541,-3.3305,-3.3117,-3.1596,-3.0431,-2.9629,-2.9155,-2.922,-2.9864,-3.0088,-3.0552,-3.1195,-3.1377,-3.1482,-3.1482,-3.1482,-3.1779,-3.2243,-3.2901,-3.3559,-3.4188,-3.4651,-3.51,-3.5474,-3.525,-3.531,-3.5504,0.0,0.0,0.0,0.0,0.0,0.0,0.0,0.0,0.0,-1.8675,0.0,0.0,0.0,0.0,0.0,-1.8715,-1.8769,-1.8806,-1.8806,-1.8806,-1.8824,-1.8896,0.0,0.0,0.0,0.0,0.0,0.0,0.0,0.0,0.0,0.0,-2.0805,-2.2289,-2.2285,-2.2709,-2.3365,0.0,-2.3193,-2.3312,0.0,-2.4359,-2.3684,0.0,0.0,0.0,-2.6146,-2.6705,0.0,0.0,0.0,0.0,0.0,0.0,-2.0666,-1.9942,0.0,0.0,0.0,0.0,0.0,0.0,0.0,0.0,0.0,0.0,0.0,0.0,0.0,0.0,0.0,0.0,0.0,0.0,0.0,0.0,0.0,0.0,0.0,0.0,0.0,0.0,0.0,0.0,0.0,0.0,-3.3372,-3.3677,-3.4353,-3.3728,-3.305,-3.243,-3.0474,-2.9451,-2.957,-2.8263,-2.7919,-2.8607,-2.9265,-2.9909,-3.0522,-3.121,-3.1482,-3.1482,-3.1482,-3.1482,-3.1526,-3.2243,-3.2886,-3.3469,-3.3484,-3.4307,-3.5385,-3.4726,-3.4906,-3.5504,0.0,0.0,0.0,0.0,0.0,0.0,0.0,-2.0408,-2.0408,0.0,0.0,0.0,-2.0428,-1.9927,-1.9626,-1.9647,-1.9183,-1.8878,-1.8878,-1.8878,-1.8878,-1.8896,-1.8896,-1.8913,0.0,0.0,0.0,0.0,0.0,0.0,0.0,0.0,0.0,0.0,-2.2032,-2.2384,-2.2571,-2.3065,0.0,0.0,-2.5058,-2.5607,0.0,0.0,0.0,0.0,0.0,-2.788,0.0,0.0,-2.5852,-2.4367,0.0,0.0,0.0,0.0,0.0,0.0,-2.107,0.0,0.0,0.0,0.0,0.0,0.0,0.0,0.0,0.0,0.0,0.0,0.0,0.0,0.0,0.0,0.0,0.0,0.0,0.0,0.0,0.0,0.0,0.0,0.0,0.0,0.0,0.0,-3.2594,-3.2459,-3.2121,-3.1918,-3.1523,-3.0945,-2.9927,-2.9229,-2.879,-2.7985,-2.7919,-2.8607,-2.9265,-2.9909,-3.0522,-3.121,-3.1482,-3.1482,-3.1482,-3.1482,-3.1526,-3.2243,-3.2617,-3.2826,-3.3305,-3.4008,-3.4741,-3.4547,-3.4906,-3.5504,0.0,0.0,0.0,0.0,0.0,0.0,-2.1108,-2.1108,-2.1108,0.0,0.0,0.0,-2.1149,-2.0775,-2.0526,-2.0547,-1.9829,-1.9399,-1.9399,-1.9093,-1.8895,-1.8895,-1.8895,-1.8895,-1.8895,0.0,0.0,0.0,0.0,0.0,0.0,0.0,0.0,0.0,0.0,0.0,0.0,0.0,0.0,0.0,-2.5291,0.0,0.0,-2.8015,-2.8662,0.0,0.0,0.0,-2.8511,-2.7835,-2.6331,0.0,0.0,0.0,0.0,0.0,0.0,0.0,0.0,0.0,0.0,0.0,0.0,0.0,-2.2147,-2.25,0.0,0.0,0.0,0.0,0.0,0.0,0.0,0.0,0.0,0.0,0.0,0.0,0.0,0.0,0.0,0.0,0.0,-3.2036,-3.1968,-3.1833,-3.1833,-3.1647,-3.1207,-3.1478,-3.1237,-3.0309,-2.9935,-2.9361,-2.8511,-2.84,-2.8274,-2.8188,-2.9418,-3.0014,-3.0148,-3.1106,-3.1482,-3.1482,-3.1482,-3.1482,-3.1497,-3.1943,-3.2273,-3.2527,-3.2632,-3.3245,-3.4068,-3.4068,-3.4502,-3.5115,0.0,0.0,0.0,-2.1126,-2.1304,-2.1375,-2.1375,-2.1375,-2.1375,0.0,-2.1378,-2.1417,-2.1458,-2.1446,-2.1412,-2.1412,-2.0693,-2.0226,-2.0226,-1.9561,-1.9129,-1.9039,-1.9021,-1.8985,-1.8895,-1.9003,0.0,0.0,0.0,0.0,0.0,0.0,0.0,0.0,0.0,0.0,0.0,0.0,0.0,-2.3536,-2.5374,-2.5632,0.0,0.0,-2.8288,0.0,-2.8488,-2.9314,-2.9843,-2.8278,-2.6613,0.0,0.0,0.0,0.0,0.0,-2.2669,0.0,0.0,0.0,0.0,0.0,0.0,0.0,-2.2349,-2.2293,-2.2439,0.0,0.0,0.0,0.0,0.0,0.0,0.0,0.0,0.0,0.0,0.0,0.0,0.0,0.0,0.0,-2.9989,-2.9989,-3.026,-3.0903,-3.1021,-3.1072,-3.1072,-3.1765,-3.159,-3.0368,-3.0251,-2.9673,-2.8511,-2.8966,-2.867,-2.764,-2.9501,-3.0105,-2.9624,-3.0941,-3.1482,-3.1482,-3.1482,-3.1482,-3.1482,-3.1482,-3.1884,-3.2347,-3.1706,-3.2287,-3.338,-3.338,-3.3799,-3.4457,0.0,0.0,-2.1893,-2.2036,-2.2607,-2.3012,-2.3012,-2.3075,-2.3119,-2.3119,-2.3145,-2.3167,-2.3141,-2.2572,-2.2195,-2.2192,-2.1458,-2.1012,-2.1051,-2.0908,-2.053,-1.9884,-1.9866,-1.956,-1.8895,-1.9597,-1.9921,0.0,0.0,0.0,0.0,0.0,0.0,0.0,0.0,0.0,0.0,0.0,0.0,-2.4605,-2.5726,0.0,-2.7066,-2.8419,-2.8837,-2.8732,-2.8892,-2.9062,-2.9067,0.0,-2.7305,-2.6703,0.0,0.0,0.0,0.0,0.0,0.0,0.0,0.0,0.0,0.0,0.0,0.0,-2.2061,-2.1945,-2.1906,0.0,0.0,0.0,0.0,0.0,0.0,0.0,0.0,0.0,0.0,0.0,0.0,0.0,0.0,0.0,-2.9194,-2.9194,-2.9262,-2.9397,-2.9973,-3.0311,-3.0311,-3.1004,-3.1069,-3.0293,-2.9805,-2.9225,-2.8511,-2.814,-2.7845,-2.764,-2.9079,-2.9726,-2.9624,-3.0941,-3.1482,-3.1482,-3.1482,-3.1482,-3.1482,-3.1482,-3.1556,-3.1661,-3.1526,-3.2018,-3.2706,-3.2706,-3.3125,-3.3784,0.0,0.0,-2.245,-2.2883,-2.3294,-2.3562,-2.3589,-2.3607,-2.3728,0.0,0.0,0.0,-2.4846,-2.4487,-2.4257,-2.4298,-2.3199,-2.2497,-2.2538,-2.1834,-2.1201,-2.0767,-2.0749,-2.0551,-2.0119,-2.0533,-2.0731,-2.0712,0.0,0.0,0.0,0.0,0.0,0.0,0.0,0.0,0.0,0.0,-2.3986,-2.4936,-2.5845,0.0,-2.7619,-2.8617,-2.8994,-2.8994,-2.8994,-2.8994,-2.8975,-2.8868,-2.825,0.0,0.0,-2.6063,-2.5871,0.0,-2.4736,-2.4992,0.0,0.0,0.0,-2.3377,0.0,0.0,0.0,-2.1928,-2.1797,0.0,0.0,0.0,0.0,0.0,0.0,0.0,0.0,0.0,0.0,0.0,0.0,0.0,0.0,0.0,-2.73,-2.7621,-2.8163,-2.8924,-2.933,-2.955,-2.955,-3.0243,-3.0516,-3.0206,-2.9985,-2.954,-2.895,-2.8638,-2.8222,-2.764,-2.894,-2.9554,-2.9609,-3.0582,-3.121,-3.1482,-3.1482,-3.1482,-3.1482,-3.1482,-3.1482,-3.1482,-3.1482,-3.1734,-3.2063,-3.2392,-3.2721,-3.3095,-2.2218,0.0,-2.2797,-2.35,-2.3607,-2.3629,-2.37,-2.3674,-2.3939,0.0,0.0,0.0,0.0,0.0,0.0,0.0,-2.5117,-2.4266,0.0,0.0,0.0,-2.1872,-2.1709,-2.1599,-2.1542,-2.156,-2.156,-2.156,0.0,0.0,0.0,0.0,0.0,0.0,0.0,0.0,0.0,0.0,0.0,-2.5239,0.0,-2.6866,-2.7596,-2.8594,-2.9062,-2.919,-2.9214,-2.9214,-2.9287,-2.9758,0.0,-2.7966,-2.7755,-2.7429,0.0,0.0,0.0,0.0,0.0,0.0,0.0,0.0,0.0,-2.319,0.0,0.0,0.0,-2.1738,0.0,0.0,0.0,0.0,0.0,0.0,0.0,0.0,0.0,0.0,0.0,0.0,0.0,0.0,0.0,-2.6015,-2.6776,-2.8027,-2.8247,-2.8399,-2.8535,-2.9262,-2.9644,-2.9719,-2.9805,-2.9528,-2.8828,-2.8955,-2.8483,-2.7445,-2.8717,-2.9352,-2.9415,-3.0163,-3.0806,-3.1345,-3.1422,-3.1482,-3.1482,-3.1482,-3.1507,-3.1501,-3.148,-3.1582,-3.1757,-3.2182,-3.2377,-3.2584,-2.2518,-2.3006,0.0,-2.366,-2.3678,-2.3678,-2.37,-2.3743,0.0,0.0,0.0,0.0,0.0,0.0,0.0,0.0,0.0,0.0,-2.5945,0.0,0.0,-2.3551,-2.2788,-2.2409,-2.2452,-2.245,-2.245,-2.245,0.0,0.0,0.0,0.0,0.0,0.0,-2.4374,0.0,0.0,0.0,-2.6041,0.0,-2.7086,-2.7432,0.0,-2.8476,-2.9272,-2.9917,-3.0015,-3.0063,-2.9947,0.0,-2.9332,-2.9716,0.0,-2.9439,-3.0264,0.0,0.0,0.0,0.0,0.0,0.0,0.0,-2.3608,0.0,0.0,0.0,-2.1573,-2.1448,0.0,-2.134,-2.134,0.0,0.0,0.0,0.0,0.0,0.0,0.0,0.0,0.0,0.0,0.0,0.0,-2.5067,-2.4828,-2.5014,-2.5609,-2.6268,-2.6928,-2.7672,-2.8149,-2.8329,-2.8349,-2.7842,-2.6743,-2.7333,-2.7333,-2.6722,-2.8081,-2.8689,-2.8757,-2.9953,-3.0552,-3.0657,-3.127,-3.1482,-3.1482,-3.1482,-3.1475,-3.1436,-3.1498,-3.191,-3.2398,-3.1829,-3.2016,-3.2598,-2.3228,-2.3444,0.0,0.0,-2.3761,-2.3765,-2.3768,-2.4545,0.0,0.0,0.0,0.0,0.0,0.0,0.0,0.0,0.0,-2.7536,0.0,0.0,0.0,0.0,0.0,0.0,-2.3306,-2.3304,-2.3304,-2.3304,-2.3324,0.0,0.0,0.0,0.0,0.0,-2.4807,0.0,-2.5185,0.0,0.0,0.0,0.0,0.0,0.0,-2.9059,-2.9826,-3.0119,-3.0186,-2.9898,-2.958,0.0,-3.0229,0.0,0.0,0.0,0.0,0.0,0.0,0.0,0.0,0.0,0.0,0.0,0.0,0.0,-2.2495,0.0,-2.1464,0.0,0.0,0.0,0.0,0.0,0.0,0.0,-2.134,0.0,0.0,0.0,0.0,0.0,0.0,0.0,0.0,0.0,0.0,0.0,-2.478,-2.5084,-2.5389,-2.6522,-2.7196,-2.7286,-2.7822,-2.7858,-2.7394,-2.7739,-2.764,-2.7099,-2.8061,-2.8546,-2.8637,-2.9549,-3.0163,-3.0537,-3.124,-3.1482,-3.1482,-3.1482,-3.1728,-3.2114,-3.2109,-3.2284,-3.2557,-3.267,-3.268,-3.264,-2.3747,0.0,0.0,0.0,0.0,0.0,-2.4103,-2.5434,0.0,0.0,0.0,0.0,-2.892,-2.9722,0.0,0.0,0.0,-2.9479,0.0,0.0,-2.6031,0.0,0.0,0.0,0.0,0.0,-2.3795,-2.3795,-2.3795,0.0,0.0,0.0,0.0,0.0,0.0,-2.5321,-2.595,0.0,0.0,-2.6731,-2.7518,-2.7973,-2.8306,-2.9637,-3.0314,-3.0522,-3.0522,-3.0301,-3.0112,-3.1023,-3.1096,0.0,-3.1481,0.0,0.0,0.0,0.0,0.0,-2.8505,0.0,0.0,0.0,0.0,0.0,0.0,0.0,0.0,0.0,0.0,0.0,0.0,0.0,-2.1294,0.0,0.0,0.0,0.0,0.0,0.0,0.0,0.0,0.0,0.0,0.0,0.0,0.0,0.0,-2.3985,-2.4201,-2.5389,-2.6184,-2.6387,-2.7122,-2.7602,-2.78,-2.7962,-2.7898,-2.7686,-2.8404,-2.8774,-2.8869,-2.9526,-3.0182,-3.0823,-3.1263,-3.1615,-3.1796,-3.1582,-3.1901,-3.2591,-3.2779,-3.2927,-3.308,-3.3478,-3.3287,-3.2904,-2.3876,-2.3837,0.0,0.0,0.0,0.0,0.0,0.0,0.0,0.0,0.0,0.0,0.0,0.0,0.0,0.0,0.0,-3.2111,-3.1236,0.0,-2.8429,0.0,0.0,-2.5445,0.0,0.0,0.0,-2.3795,0.0,0.0,0.0,0.0,0.0,0.0,0.0,-2.4923,-2.5054,-2.6809,-2.7556,-2.7629,-2.8562,-2.9415,-3.0112,0.0,-3.057,-3.1347,-3.1347,0.0,0.0,-3.1435,-3.1743,0.0,0.0,0.0,0.0,0.0,0.0,0.0,0.0,0.0,0.0,-2.7729,0.0,0.0,0.0,0.0,-2.3244,0.0,0.0,0.0,0.0,-2.1309,-2.1294,-2.1215,0.0,0.0,0.0,0.0,0.0,0.0,0.0,0.0,0.0,0.0,0.0,0.0,0.0,0.0,-2.3393,-2.4167,-2.4881,-2.5609,-2.5911,-2.6425,-2.7135,-2.7276,-2.7662,-2.8377,-2.9054,-2.9377,-2.938,-3.0082,-3.0768,-3.1453,-3.1431,-3.1828,-3.2492,-3.1796,-3.1873,-3.257,-3.3275,-3.3908,-3.4381,-3.3827,-3.3582,-3.3495,0.0,0.0,0.0,0.0,0.0,0.0,0.0,-2.6711,0.0,0.0,0.0,0.0,0.0,0.0,-3.4549,0.0,0.0,-3.3597,-3.2258,-3.1114,0.0,0.0,0.0,-2.6617,0.0,0.0,0.0,0.0,0.0,0.0,0.0,0.0,0.0,0.0,0.0,-2.5285,0.0,0.0,0.0,0.0,0.0,-2.9423,-3.0008,0.0,0.0,-3.1384,-3.1384,-3.1568,0.0,-3.2627,-3.2763,-3.268,-3.314,-3.3067,-3.2739,-3.2402,-3.1781,0.0,0.0,0.0,-2.9396,-2.7332,0.0,0.0,0.0,0.0,0.0,0.0,0.0,0.0,0.0,0.0,-2.1294,-2.1215,-2.0974,0.0,0.0,0.0,0.0,0.0,0.0,0.0,0.0,0.0,0.0,0.0,-2.2135,0.0,-2.2665,-2.3816,-2.4625,-2.4847,-2.6387,-2.7308,-2.7559,-2.8632,-2.9055,-2.8943,-2.9636,-2.9805,-2.9454,-3.0606,-3.1246,-3.1534,-3.2466,-3.2997,-3.3235,-3.2971,-3.3284,-3.3909,-3.4137,-3.4651,-3.5222,-3.5015,-3.435,-3.3427,-2.5184,0.0,0.0,0.0,0.0,0.0,0.0,0.0,0.0,0.0,-3.3075,0.0,-3.6298,0.0,-3.6527,0.0,-3.6054,-3.5202,-3.3542,-3.2936,0.0,-3.0619,-2.9509,0.0,0.0,0.0,0.0,0.0,0.0,-2.3813,0.0,0.0,0.0,0.0,0.0,0.0,0.0,0.0,-2.7853,0.0,0.0,-2.9423,0.0,0.0,-3.0381,-3.1748,0.0,-3.2008,-3.2412,-3.344,-3.3458,-3.3128,-3.3642,-3.3359,-3.2812,-3.2812,-3.2356,-3.1608,-3.0674,-3.0413,0.0,-2.7694,-2.7051,0.0,-2.512,0.0,0.0,0.0,0.0,0.0,0.0,0.0,0.0,-2.1617,-2.115,-2.0638,0.0,-1.9703,0.0,0.0,0.0,0.0,0.0,0.0,0.0,-2.1832,-2.2061,-2.231,0.0,0.0,-2.4611,-2.4864,-2.6605,-2.7765,-2.823,-2.9261,-2.9828,-2.9902,-3.0384,-3.0567,-3.0457,-3.1083,-3.1802,-3.2599,-3.2999,-3.3484,-3.3937,-3.3684,-3.3987,-3.4576,-3.4576,-3.5005,-3.5622,-3.5622,-3.4752,-3.3443,0.0,0.0,0.0,0.0,-2.7096,0.0,0.0,0.0,-3.242,0.0,-3.4699,-3.662,-3.7515,-3.7631,-3.7937,-3.8669,-3.8053,0.0,-3.521,-3.5119,0.0,0.0,-3.1462,-3.1016,-3.0192,0.0,0.0,0.0,0.0,0.0,0.0,0.0,0.0,0.0,-2.3562,0.0,-2.6304,-2.6304,-2.7364,-2.9049,-2.9012,-2.9525,-3.0296,-3.0283,-3.1174,-3.2475,-3.258,-3.3128,-3.3807,-3.3807,-3.3807,-3.3807,-3.3807,-3.3807,-3.3807,-3.378,-3.3762,-3.3524,-3.2335,-3.1207,-3.0047,-2.8778,-2.7568,0.0,0.0,0.0,-2.593,0.0,0.0,0.0,0.0,0.0,0.0,-2.2297,-2.1101,-1.9762,-1.8944,0.0,0.0,0.0,0.0,0.0,0.0,0.0,-2.057,-2.1753,-2.1866,-2.235,0.0,0.0,-2.4831,-2.5592,-2.6612,-2.7744,-2.8975,-2.9249,-2.9982,-3.119,-3.1241,-3.1613,-3.2256,-3.1647,-3.251,-3.4411,-3.3134,-3.334,-3.4576,-3.3987,-3.4087,-3.464,-3.464,-3.5052,-3.5577,-3.5532,-3.4704,-3.3531,-2.7301,-2.7811,-2.8,0.0,-2.7547,-2.767,0.0,0.0,0.0,0.0,-3.7339,-3.9639,-4.1669,-4.139,-4.0877,-4.0492,-3.9753,0.0,0.0,0.0,0.0,-3.4174,-3.3495,-3.2478,-3.1016,-2.9783,0.0,-2.6299,0.0,0.0,-2.3725,0.0,0.0,0.0,0.0,0.0,-2.6304,-2.6304,-2.7697,-2.9843,-2.9232,-3.0137,0.0,0.0,-3.2023,-3.3222,-3.2782,-3.3128,-3.3807,-3.3807,-3.3807,-3.3807,-3.3807,-3.3807,-3.3734,-3.3437,-3.3361,-3.2965,-3.1178,-3.0247,-2.9455,-2.8035,-2.7158,-2.6573,0.0,0.0,0.0,0.0,0.0,0.0,0.0,0.0,0.0,0.0,0.0,0.0,0.0,0.0,0.0,-1.9293,0.0,0.0,0.0,0.0,-1.9996,-2.0788,-2.1524,-2.235,-2.3359,0.0,0.0,-2.5575,-2.6909,-2.8073,-2.8975,-2.9589,-3.033,-3.1207,-3.1749,-3.2104,-3.2307,-3.322,-3.3947,-3.4506,-3.4701,-3.4964,-3.5316,-3.5161,-3.5207,-3.5362,-3.5362,-3.547,-3.547,-3.4496,-3.4186,-3.4087,-2.8489,0.0,0.0,-2.8494,0.0,0.0,-2.9783,0.0,0.0,-3.6435,-3.8865,0.0,-4.2304,-4.2047,-4.1589,-4.1148,-4.0047,0.0,0.0,0.0,0.0,-3.5064,-3.4578,-3.3707,-3.2423,-3.1242,0.0,-2.7929,0.0,0.0,-2.4266,0.0,0.0,0.0,0.0,-2.4311,0.0,-2.6527,-2.8117,-3.0082,-2.969,0.0,0.0,-3.2074,-3.2653,-3.3588,-3.2881,-3.3128,-3.3807,-3.3807,-3.3807,-3.3807,-3.3807,-3.3807,-3.3734,-3.3302,-3.2979,-3.2301,-3.0423,-2.9542,-2.8776,-2.7439,-2.6858,-2.6657,-2.6691,-2.659,-2.6504,0.0,0.0,0.0,0.0,0.0,0.0,0.0,0.0,0.0,0.0,0.0,0.0,0.0,0.0,0.0,0.0,-1.922,-2.009,-2.0484,-2.1262,-2.2258,0.0,0.0,0.0,-2.5883,-2.7788,-2.8873,-2.9011,-3.0362,-3.1258,-3.1681,-3.2087,-3.2628,-3.3271,-3.3778,-3.437,-3.4996,-3.5081,-3.5318,-3.5622,-3.5622,-3.5622,-3.5622,-3.5622,-3.5622,-3.547,-3.4447,-3.4284,-3.4431,0.0,0.0,0.0,0.0,0.0,0.0,0.0,-3.4531,0.0,-3.7546,0.0,-4.1387,-4.1277,-4.1277,-4.1185,-4.0965,0.0,-3.8524,-3.7698,-3.7643,-3.6909,-3.5229,-3.5155,-3.4743,-3.3825,-3.2386,0.0,0.0,0.0,0.0,0.0,0.0,0.0,0.0,0.0,0.0,0.0,-2.7191,-2.8852,-3.0355,-3.0345,-3.1329,-3.2761,-3.2651,-3.3109,-3.3715,-3.3018,-3.322,-3.377,-3.3678,-3.3715,-3.3807,-3.3807,-3.3807,-3.3689,-3.3146,-3.2523,-3.1619,-2.9841,-2.8916,-2.8144,-2.6978,-2.6691,-2.6691,-2.6691,-2.6691,-2.6691,-2.6691,-2.6101,-2.5765,0.0,0.0,0.0,0.0,0.0,0.0,0.0,0.0,0.0,0.0,0.0,0.0,0.0,0.0,-2.0443,-2.05,-2.1114,-2.2177,0.0,0.0,0.0,-2.6315,-2.8511,-2.9533,-2.9279,0.0,-3.2127,-3.2577,-3.2476,-3.3152,-3.4472,-3.3947,-3.4404,-3.5588,-3.4928,-3.5013,-3.5622,-3.5622,-3.5622,-3.5622,-3.5622,-3.5622,-3.5515,-3.4941,-3.4736,-3.4688,0.0,0.0,0.0,0.0,0.0,-3.5192,-3.6421,-3.7991,-3.9148,-3.9441,-4.157,-4.2818,-4.2158,-4.2084,-4.1552,-4.023,-3.9845,0.0,0.0,0.0,0.0,-3.6138,-3.6064,-3.5367,-3.3825,-3.3513,-3.2243,0.0,0.0,0.0,0.0,0.0,0.0,0.0,0.0,0.0,-2.8015,-2.9125,0.0,-3.2085,-3.1458,-3.2155,-3.3532,-3.2852,-3.3109,-3.377,-3.3642,-3.3678,-3.3697,-3.3036,-3.3256,-3.3807,-3.3807,-3.3807,-3.3534,-3.2115,-3.1613,-3.103,-2.8733,-2.8014,-2.7742,-2.6911,-2.6691,-2.6691,-2.6691,-2.6691,-2.6691,-2.6691,-2.659,-2.6303,-2.5731,0.0,0.0,0.0,0.0,0.0,0.0,0.0,0.0,0.0,0.0,0.0,0.0,0.0,0.0,0.0,0.0,0.0,0.0,0.0,0.0,0.0,-2.7046,0.0,0.0,0.0,-3.1089,-3.41,-3.3508,-3.366,-3.4506,-3.5013,-3.5385,-3.556,-3.547,-3.5504,-3.5622,-3.5622,-3.5622,-3.5622,-3.5622,-3.5622,-3.5577,-3.547,-3.5407,-3.527,0.0,0.0,0.0,0.0,0.0,0.0,0.0,-4.0726,0.0,-4.0634,-4.1167,-4.1479,-4.1093,-4.1056,-4.0744,-3.9955,-3.9515,-3.9111,-3.8726,-3.7918,-3.711,-3.6321,-3.5459,0.0,-3.3825,-3.3807,-3.2737,-3.0571,0.0,0.0,0.0,0.0,0.0,0.0,0.0,-2.7273,0.0,0.0,0.0,-3.2472,-3.2148,-3.2742,-3.3752,-3.3366,-3.3458,-3.3752,-3.333,-3.3458,-3.3733,-3.3348,-3.3323,-3.3494,-3.3494,-3.3314,-3.2834,-3.1464,-3.0758,-3.0084,-2.8305,-2.7537,-2.7148,-2.6793,-2.6691,-2.6691,-2.6691,-2.6691,-2.6691,-2.6691,-2.6691,-2.6556,-2.6152,-2.5346,0.0,0.0,0.0,0.0,0.0,0.0,0.0,0.0,0.0,0.0,0.0,0.0,0.0,0.0,0.0,0.0,0.0,0.0,0.0,0.0,0.0,0.0,0.0,0.0,0.0,-3.3931,-3.3575,-3.3998,-3.5081,-3.5453,-3.5622,-3.5622,-3.5622,-3.5622,-3.5622,-3.5622,-3.5622,-3.5622,-3.5622,-3.5622,-3.5622,-3.5622,-3.5622,-3.5515,0.0,-3.3587,0.0,0.0,-3.7698,0.0,-4.0689,-4.2213,-4.2782,-4.1534,-4.0799,-4.0267,-3.9937,-3.99,-3.9827,-3.9662,-3.8909,-3.8432,-3.8432,-3.7092,-3.6211,-3.6028,-3.4761,-3.3972,-3.3807,-3.3807,-3.3038,0.0,0.0,0.0,0.0,0.0,0.0,0.0,0.0,0.0,0.0,0.0,-3.1378,-3.2693,-3.28,-3.3238,-3.3807,-3.3807,-3.3807,-3.3715,-3.3091,-3.3256,-3.3807,-3.3707,-3.3465,-3.3178,-3.3015,-3.2621,-3.2009,-3.0627,-2.9814,-2.909,-2.7896,-2.7148,-2.6691,-2.6691,-2.6691,-2.6691,-2.6691,-2.6691,-2.6691,-2.6691,-2.6691,-2.6691,-2.6691,-2.6135,0.0,0.0,0.0,0.0,0.0,0.0,0.0,0.0,0.0,0.0,0.0,0.0,0.0,0.0,0.0,0.0,0.0,0.0,0.0,0.0,0.0,-2.9482,-2.9722,0.0,-3.2357,-3.3863,-3.3558,-3.4184,-3.5622,-3.5622,-3.5622,-3.5622,-3.5622,-3.5622,-3.5622,-3.5622,-3.5622,-3.5622,-3.5622,-3.5622,-3.5622,-3.5622,-3.5622,-3.5622,0.0,0.0,0.0,0.0,0.0,0.0,-4.0102,-4.1368,-4.2359,-4.2213,-4.2121,-4.1515,-4.0047,-3.99,-3.9606,-3.8891,-3.8065,-3.7606,-3.7606,-3.678,-3.5954,-3.5155,-3.4954,-3.4559,-3.3825,-3.3807,-3.3313,0.0,0.0,-2.9725,0.0,0.0,0.0,0.0,0.0,0.0,0.0,-3.2128,-3.2738,-3.367,-3.3678,-3.3733,-3.3807,-3.3807,-3.3807,-3.3788,-3.3715,-3.3733,-3.3734,-3.3361,-3.3243,-3.3087,-3.2412,-3.1894,-3.1122,-2.9266,-2.8667,-2.8345,-2.7131,-2.6742,-2.6691,-2.6691,-2.6691,-2.6691,-2.6691,-2.6691,-2.6691,-2.6691,-2.6691,-2.6691,-2.6691,-2.664,-2.659,0.0,0.0,0.0,0.0,0.0,0.0,0.0,0.0,0.0,0.0,-2.3591,0.0,0.0,0.0,0.0,0.0,0.0,0.0,-2.7602,0.0,-2.8602,-3.1975,-3.0192,-3.136,-3.5402,-3.4049,-3.4184,-3.5622,-3.5622,-3.5622,-3.5622,-3.5622,-3.5622,-3.5622,-3.5622,-3.5622,-3.5622,-3.5622,-3.5622,-3.5622,-3.5622,-3.5622,-3.5622,0.0,0.0,0.0,0.0,0.0,0.0,0.0,-4.1882,-4.1956,-4.0983,-4.0855,-4.0598,-3.9955,-3.946,-3.8854,-3.8046,-3.7679,-3.7323,-3.6798,-3.5991,-3.5367,-3.5009,-3.4559,-3.4137,-3.3807,-3.3807,-3.335,0.0,0.0,0.0,0.0,0.0,0.0,0.0,0.0,-3.1701,-3.2447,-3.3003,-3.346,-3.3807,-3.3807,-3.3807,-3.3807,-3.3807,-3.3807,-3.3807,-3.3807,-3.3634,-3.3437,-3.3243,-3.2721,-3.201,-3.1437,-3.0641,-2.9696,-2.8442,-2.8066,-2.7879,-2.6962,-2.6691,-2.6691,-2.6691,-2.6691,-2.6691,-2.6691,-2.6691,-2.6691,-2.6691,-2.6691,-2.6691,-2.6691,-2.6691,-2.6691,0.0,0.0,0.0,0.0,0.0,0.0,0.0,0.0,0.0,0.0,0.0,0.0,0.0,0.0,0.0,0.0,0.0,0.0,-2.7666,0.0,-2.9008,-3.0954,-3.0531,-3.1647,-3.4286,-3.3694,-3.4184,-3.5622,-3.5622,-3.5622,-3.5622,-3.5622,-3.5622,-3.5622,-3.5622,-3.5622,-3.5622,-3.5622,-3.5622,-3.5622,-3.5622,-3.5622,-3.5622,-3.9258,0.0,-4.0194,0.0,-4.1625,-4.157,-4.1901,-4.1754,-4.1093,-3.9735,-3.9551,-3.9551,-3.9551,-3.9038,-3.8469,-3.79,-3.7404,-3.689,-3.634,-3.5275,-3.4669,-3.4669,-3.41,0.0,-3.3807,-3.3807,-3.3486,-3.2892,-3.2456,0.0,0.0,0.0,0.0,0.0,-3.2101,-3.2538,-3.2866,-3.3523,-3.3807,-3.3807,-3.3807,-3.3807,-3.3807,-3.3807,-3.3807,-3.3807,-3.3807,-3.355,-3.3184,-3.3045,-3.2036,-3.0803,-3.0472,-2.9591,-2.8484,-2.7723,-2.7486,-2.7368,-2.6843,-2.6691,-2.6691,-2.6691,-2.6691,-2.6691,-2.6691,-2.6691,-2.6691,-2.6691,-2.6691,-2.6691,-2.6691,-2.6691,-2.6691,-2.6691,0.0,0.0,0.0,0.0,0.0,0.0,-2.5795,-2.561,-2.4772,0.0,0.0,0.0,0.0,0.0,0.0,0.0,0.0,0.0,0.0,0.0,-3.0412,-3.0717,-3.1732,-3.3406,-3.3406,-3.4184,-3.5622,-3.5622,-3.5622,-3.5622,-3.5622,-3.5622,-3.5622,-3.5622,-3.5622,-3.5622,-3.5622,-3.5622,-3.5622,-3.5622,-3.5622,-3.5622,-4.0928,-4.1717,-4.2506,-4.3314,-4.28,-4.2029,-4.124,-4.0432,-3.9643,-3.8817,-3.8707,-3.8707,-3.8707,-3.8707,-3.8707,-3.8689,-3.7221,-3.6303,-3.6303,-3.4743,-3.3807,0.0,0.0,-3.3807,-3.3807,-3.3807,-3.3788,-3.3788,0.0,0.0,-3.2347,0.0,-3.1492,-3.2365,-3.2383,-3.2903,-3.3788,-3.3807,-3.3807,-3.3807,-3.3807,-3.3807,-3.3807,-3.3807,-3.3807,-3.3807,-3.3807,-3.355,-3.3154,-3.2648,-3.123,-2.964,-2.9606,-2.8768,-2.7654,-2.6928,-2.6708,-2.6708,-2.6691,-2.6691,-2.6691,-2.6691,-2.6691,-2.6691,-2.6691,-2.6691,-2.6691,-2.6691,-2.6691,-2.6691,-2.6691,-2.6691,-2.6691,-2.6691,0.0,0.0,0.0,0.0,0.0,0.0,-2.6234,-2.6404,-2.5676,0.0,0.0,0.0,0.0,0.0,0.0,0.0,0.0,-2.8924,-2.823,0.0,-3.1157,-3.048,-3.1224,-3.3406,-3.3406,-3.4184,-3.5622,-3.5622,-3.5622,-3.5622,-3.5622,-3.5622,-3.5622,-3.5622,-3.5622,-3.5622,-3.5622,-3.5622,-3.5622,-3.5622,-3.5622,-3.5622,-4.1662,-4.168,-4.1754,-4.2543,-4.2029,-4.1222,-4.0396,-4.0065,-3.9606,-3.8817,-3.8707,-3.8707,-3.8707,-3.8707,-3.8267,0.0,-3.6597,-3.5807,0.0,-3.41,-3.3807,-3.3807,-3.3807,-3.3807,-3.3807,-3.3807,-3.3807,-3.3807,0.0,0.0,0.0,-3.2356,-3.2465,-3.335,-3.335,-3.3523,-3.3807,-3.3807,-3.3807,-3.3807,-3.3807,-3.3807,-3.3807,-3.3807,-3.3807,-3.3762,-3.3494,-3.3105,-3.2559,-3.1582,-3.0335,-2.909,-2.8561,-2.7777,-2.6996,-2.6759,-2.6691,-2.6691,-2.6691,-2.6691,-2.6691,-2.6691,-2.6691,-2.6691,-2.6691,-2.6691,-2.6691,-2.6691,-2.6691,-2.6691,-2.6691,-2.6691,-2.6691,-2.6691,-2.6691,0.0,0.0,0.0,0.0,0.0,-2.6556,-2.6607,0.0,-2.6556,0.0,0.0,0.0,0.0,0.0,0.0,0.0,0.0,-2.8665,0.0,-3.1918,-3.1698,-3.2459,-3.415,-3.415,-3.4945,-3.6417,-3.6417,-3.6417,-3.6417,-3.6417,-3.6113,-3.5622,-3.5622,-3.5622,-3.5622,-3.5622,-3.5622,-3.5622,-3.5622,-3.5622,-3.5622,-4.1203,-4.124,-4.1277,-4.1772,-4.1185,-4.0487,-3.9974,-3.9643,-3.9276,-3.8781,-3.8707,-3.8707,-3.8707,-3.8707,0.0,-3.7294,-3.6927,-3.6174,-3.4835,-3.4431,-3.4119,-3.3807,-3.3807,-3.3807,-3.3807,-3.3807,0.0,-3.3807,-3.3726,-3.3671,-3.3652,-3.3159,-3.3231,-3.3807,-3.3807,-3.3807,-3.3807,-3.3807,-3.3807,-3.3807,-3.3807,-3.3807,-3.3807,-3.3807,-3.3707,-3.355,-3.3302,-3.2777,-3.2126,-3.1359,-3.0175,-2.889,-2.8416,-2.774,-2.7063,-2.6776,-2.6894,-2.7046,-2.6776,-2.6894,-2.7046,-2.6759,-2.6691,-2.6691,-2.6691,-2.6691,-2.6691,-2.6691,-2.6691,-2.6691,-2.6691,-2.6691,-2.6691,-2.6691,-2.6691,-2.6691,-2.6691,0.0,0.0,0.0,0.0,0.0,0.0,-2.6691,-2.6894,0.0,0.0,0.0,0.0,0.0,0.0,-2.8794,-2.9479,-3.0598,-3.2256,-3.256,-3.3305,-3.4489,-3.4776,-3.5419,-3.6349,-3.6349,-3.6349,-3.6349,-3.6349,-3.6062,-3.5622,-3.5622,-3.5622,-3.5622,-3.5622,-3.5622,-3.5622,-3.5622,-3.5622,-3.5622,-3.9882,-4.0469,-4.0965,0.0,-4.0359,0.0,-3.9808,-3.9184,-3.8707,-3.8707,-3.8707,-3.8707,-3.8707,-3.8707,-3.8689,-3.8615,0.0,0.0,0.0,-3.5495,-3.4688,-3.3917,-3.3825,-3.3807,-3.3807,-3.3807,-3.3807,-3.3807,-3.3807,-3.3807,-3.3807,-3.3807,-3.3807,-3.3807,-3.3807,-3.3807,-3.3807,-3.3807,-3.3807,-3.3807,-3.3807,-3.3807,-3.3807,-3.3807,-3.3578,-3.3243,-3.3184,-3.2598,-3.1844,-3.1719,-3.0533,-2.9096,-2.9045,-2.8484,-2.774,-2.6928,-2.7266,-2.774,-2.6979,-2.7283,-2.762,-2.6945,-2.6725,-2.6725,-2.6826,-2.6776,-2.6708,-2.6759,-2.6725,-2.6691,-2.6691,-2.6691,-2.6691,-2.6691,-2.6691,-2.6691,-2.6691,0.0,0.0,0.0,0.0,0.0,0.0,-2.6742,-2.6776,0.0,0.0,0.0,0.0,0.0,-2.8202,-2.9042,-3.0446,-3.1562,-3.2381,-3.3102,-3.3846,-3.4573,-3.5334,-3.5723,-3.5774,-3.5774,-3.5774,-3.5774,-3.5723,-3.5673,-3.5622,-3.5622,-3.5622,-3.5622,-3.5622,-3.5622,-3.5622,-3.5622,-3.5622,-3.5622,0.0,0.0,-3.946,-4.0084,-3.9515,-3.8982,-3.8982,-3.8817,-3.8707,-3.8707,-3.8707,-3.8707,-3.8707,-3.8707,-3.845,-3.7826,-3.7606,-3.7147,-3.634,-3.5495,-3.4917,-3.4715,-3.4137,-3.3807,-3.3807,-3.3807,-3.3807,-3.3807,-3.3807,-3.3807,-3.3807,-3.3807,-3.3807,-3.3807,-3.3807,-3.3807,-3.3807,-3.3807,-3.3807,-3.3807,-3.3807,-3.3807,-3.3807,-3.3807,-3.3734,-3.3578,-3.2903,-3.2517,-3.216,-3.093,-3.0221,-2.9736,-2.9161,-2.8856,-2.845,-2.7097,-2.7655,-2.8535,-2.7757,-2.7654,-2.7739,-2.7588,-2.7114,-2.6996,-2.818,-2.7537,-2.686,-2.7435,-2.7097,-2.6691,-2.6691,-2.6691,-2.6691,-2.6691,-2.6691,-2.6691,-2.6691,-2.6691,0.0,0.0,-2.7199,-2.7334,-2.6742,-2.7215,-2.7554,0.0,0.0,0.0,0.0,-2.9597,-3.0034,-2.9854,-3.0717,-3.1816,-3.3136,-3.3863,-3.4607,-3.5368,-3.6129,-3.6806,-3.7364,-3.7364,-3.7364,-3.733,-3.6755,-3.6163,-3.5622,-3.5622,-3.5622,-3.5622,-3.5622,-3.5622,-3.5622,-3.5622,-3.5622,-3.5622,-3.9276,-3.9001,-3.8836,-3.9276,-3.9001,-3.8707,-3.8707,-3.8707,-3.8707,-3.8707,-3.8707,-3.8707,-3.8707,-3.8707,-3.8524,-3.8083,-3.7698,-3.7147,-3.634,-3.5495,-3.499,-3.499,-3.4229,-3.3807,-3.3807,-3.3807,-3.3807,-3.3807,-3.3807,-3.3807,-3.3807,-3.3807,-3.3807,-3.3807,-3.3807,-3.3807,-3.3807,-3.3807,-3.3807,-3.3807,-3.3807,-3.3807,-3.3807,-3.3807,-3.3532,-3.3148,-3.2681,-3.2248,-3.1754,-3.0908,-3.0378,-3.004,-2.9634,-2.9499,-2.9262,-2.8095,-2.8569,-2.933,-2.8569,-2.8602,-2.8789,-2.8433,-2.8044,-2.796,-2.8825,-2.8332,-2.7858,-2.8264,-2.8027,-2.7638,-2.7266,-2.7199,-2.7097,-2.6742,-2.6691,-2.6691,-2.6691,-2.6691,0.0,-2.7165,-2.7571,-2.7807,-2.774,-2.8112,-2.8349,-2.8349,-2.8598,0.0,-2.9956,-3.0993,-3.124,-3.0632,-3.1968,-3.3085,-3.3897,-3.4641,-3.5216,-3.5622,-3.6045,-3.6468,-3.6857,-3.6857,-3.6857,-3.684,-3.6434,-3.6011,-3.5622,-3.5622,-3.5622,-3.5622,-3.5622,-3.5622,-3.5622,-3.5622,-3.5622,-3.5622,-3.8707,-3.8707,-3.8707,-3.8707,-3.8707,-3.8707,-3.8707,-3.8707,-3.8707,-3.8707,-3.8707,-3.8707,-3.8707,-3.8707,-3.8652,-3.8524,-3.7881,-3.7202,-3.6523,-3.5679,-3.5137,-3.5009,-3.4229,-3.3807,-3.3807,-3.3807,-3.3807,-3.3807,-3.3807,-3.3807,-3.3807,-3.3807,-3.3807,-3.3807,-3.3807,-3.3807,-3.3807,-3.3807,-3.3807,-3.3807,-3.3807,-3.3807,-3.3807,-3.3807,-3.3343,-3.2681,-3.2616,-3.2092,-3.1406,-3.1329,-3.0862,-3.0277,-3.0277,-3.0277,-3.0142,-2.9499,-2.977,-3.0108,-2.9364,-2.9617,-2.9956,-2.9313,-2.9059,-2.9079,-2.9262,-2.918,-2.9008,-2.9127,-2.9059,-2.8738,-2.796,-2.7789,-2.7621,-2.6962,-2.6776,-2.6725,-2.6843,0.0,-2.7097,-2.774,-2.7992,-2.8433,-2.9093,-2.9245,-2.9364,-2.9502,-3.0074,-3.0751,-3.1478,-3.2222,-3.2341,-3.1715,-3.3508,-3.4539,-3.4658,-3.5301,-3.5622,-3.5622,-3.574,-3.5791,-3.5791,-3.5791,-3.5791,-3.5791,-3.5673,-3.5622,-3.5622,-3.5622,-3.5622,-3.5622,-3.5622,-3.5622,-3.5622,-3.5622,-3.5622,-3.5622,-3.8707,-3.8707,-3.8707,-3.8707,-3.8707,-3.8707,-3.8707,-3.8707,-3.8707,-3.8707,-3.8707,-3.8707,-3.8707,-3.8707,-3.8432,-3.7734,-3.7551,-3.747,-3.7312,-3.6541,-3.5771,-3.5027,-3.4229,-3.3807,-3.3807,-3.3807,-3.3807,-3.3807,-3.3807,-3.3807,-3.3807,-3.3807,-3.3807,-3.3807,-3.3807,-3.3807,-3.3807,-3.3807,-3.3807,-3.3807,-3.3807,-3.3807,-3.3807,-3.3807,-3.3707,-3.3532,-3.3196,-3.2745,-3.2265,-3.1913,-3.1435,-3.1021,-3.1021,-3.1021,-3.1004,-3.0886,-3.0937,-3.0869,-3.0125,-3.0023,-3.0074,-2.9973,-2.9448,-2.935,-3.0565,-2.9871,-2.9161,-2.9803,-2.9431,-2.8738,-2.796,-2.7789,-2.7755,-2.7672,-2.7114,-2.6911,-2.7554,0.0,-2.7654,-2.7772,-2.8958,-2.9803,-2.9922,-3.0497,-3.1106,-3.1715,-3.1867,-3.2273,-3.3017,-3.3761,-3.41,-3.3981,-3.432,-3.4793,-3.5436,-3.5554,-3.5622,-3.5622,-3.6282,-3.6603,-3.6603,-3.6603,-3.6603,-3.6569,-3.591,-3.5622,-3.5622,-3.5622,-3.5622,-3.5622,-3.5622,-3.5622,-3.5622,-3.5622,-3.5622,-3.5622,-3.8707,-3.8707,-3.8707,-3.8707,-3.8707,-3.8707,-3.8707,-3.8707,-3.8707,-3.8707,-3.8707,-3.8707,-3.8707,-3.8707,-3.856,-3.8175,-3.7734,-3.7312,-3.6872,-3.6064,-3.5642,-3.5697,-3.4486,-3.3807,-3.3807,-3.3807,-3.3807,-3.3807,-3.3807,-3.3807,-3.3807,-3.3807,-3.3807,-3.3807,-3.3807,-3.3807,-3.3807,-3.3807,-3.3807,-3.3807,-3.3807,-3.3807,-3.3807,-3.3807,-3.3504,-3.3105,-3.3184,-3.2583,-3.1787,-3.1823,-3.1562,-3.119,-3.119,-3.119,-3.119,-3.119,-3.119,-3.1123,-3.0784,-3.097,-3.1275,-3.1275,-3.1021,-3.0937,-3.163,-3.0937,-3.0277,-3.0615,-3.0412,-2.9939,-2.9194,-2.8721,-2.845,-2.845,-2.7452,0.0,-2.8281,-2.8078,-2.8129,-2.8958,-3.0023,-3.0852,-3.1241,-3.1952,-3.2527,-3.2865,-3.2882,-3.3203,-3.3947,-3.3931,-3.4269,-3.5081,-3.5098,-3.5267,-3.5622,-3.5622,-3.5622,-3.5622,-3.5994,-3.6146,-3.6146,-3.6146,-3.6146,-3.6129,-3.5774,-3.5622,-3.5622,-3.5622,-3.5622,-3.5622,-3.5622,-3.5622,-3.5622,-3.5622,-3.5362,-3.5052,-3.8707,-3.8707,-3.8707,-3.8707,-3.8707,-3.8707,-3.8707,-3.8707,-3.8707,-3.8707,-3.8707,-3.8707,-3.8707,-3.8707,-3.8707,-3.8707,-3.7955,-3.7221,-3.6615,-3.5605,-3.5238,-3.5697,-3.4486,-3.3807,-3.3807,-3.3807,-3.3807,-3.3807,-3.3807,-3.3807,-3.3807,-3.3807,-3.3807,-3.3807,-3.3807,-3.3807,-3.3807,-3.3807,-3.3807,-3.3807,-3.3807,-3.3807,-3.3807,-3.3807,-3.3372,-3.284,-3.3196,-3.255,-3.1562,-3.1861,-3.1603,-3.119,-3.119,-3.119,-3.119,-3.119,-3.1309,-3.141,-3.1241,-3.1596,-3.211,-3.2239,-3.2154,-3.207,-3.2239,-3.1715,-3.119,-3.119,-3.119,-3.1021,-3.0463,-2.9888,-2.9499,-2.9499,0.0,-2.7892,0.0,-2.8721,-2.8856,-3.0192,-3.1004,-3.1732,-3.2459,-3.322,-3.366,-3.366,-3.3812,-3.4083,-3.4472,-3.4134,-3.4438,-3.5588,-3.5622,-3.5622,-3.5622,-3.5622,-3.5622,-3.5622,-3.5622,-3.5622,-3.5622,-3.5622,-3.5622,-3.5622,-3.5622,-3.5622,-3.5622,-3.5622,-3.5622,-3.5622,-3.5622,-3.5622,-3.5577,-3.5424,-3.5052,-3.4576,-3.8707,-3.8707,-3.8707,-3.8707,-3.8707,-3.8707,-3.8707,-3.8707,-3.8707,-3.8707,-3.8707,-3.8707,-3.8707,-3.8707,-3.8707,-3.8707,-3.7955,-3.7489,-3.7434,-3.5899,-3.4706,-3.4009,-3.3862,-3.3807,-3.3807,-3.3807,-3.3807,-3.3807,-3.3807,-3.3807,-3.3807,-3.3807,-3.3807,-3.3807,-3.3807,-3.3807,-3.3807,-3.3807,-3.3807,-3.3807,-3.3807,-3.3807,-3.3807,-3.3807,-3.3762,-3.3707,-3.3734,-3.3148,-3.2417,-3.2451,-3.1878,-3.119,-3.119,-3.119,-3.119,-3.119,-3.1664,-3.2053,-3.1376,-3.1241,-3.1444,-3.2121,-3.1782,-3.1444,-3.2121,-3.1715,-3.119,-3.119,-3.119,-3.1173,-3.1123,-3.1072,-3.1038,-3.1038,0.0,0.0,-3.0006,-2.9973,-3.0243,-3.1021,-3.1749,-3.2493,-3.3254,-3.3981,-3.4421,-3.4421,-3.5064,-3.5165,-3.4523,-3.5115,-3.5504,-3.5622,-3.5622,-3.5622,-3.5622,-3.5622,-3.5622,-3.5622,-3.5622,-3.5622,-3.5622,-3.5622,-3.5622,-3.5622,-3.5622,-3.5622,-3.5622,-3.5622,-3.5622,-3.5622,-3.5622,-3.5622,-3.5515,-3.4894,-3.4624,-3.4576,-3.8707,-3.8707,-3.8707,-3.8707,-3.8707,-3.8707,-3.8707,-3.8707,-3.8707,-3.8707,-3.8707,-3.8707,-3.8707,-3.8707,-3.8707,-3.8707,-3.7514,-3.6964,-3.7489,-3.5459,-3.4119,-3.3807,-3.3807,-3.3807,-3.3807,-3.3807,-3.3807,-3.3807,-3.3807,-3.3807,-3.3807,-3.3807,-3.3807,-3.3807,-3.3807,-3.3807,-3.3807,-3.3807,-3.3807,-3.3807,-3.3807,-3.3807,-3.3807,-3.3807,-3.3652,-3.3465,-3.3707,-3.3255,-3.2484,-3.2484,-3.2074,-3.1545,-3.1291,-3.119,-3.119,-3.119,-3.1393,-3.1546,-3.1275,-3.2188,-3.3203,-3.3034,-3.2763,-3.2645,-3.2916,-3.2408,-3.1867,-3.1867,-3.2239,-3.256,-3.256,-3.2188,-3.2019,-3.2493,0.0,-3.1106,-3.2019,-3.1749,-3.1732,-3.2476,-3.3203,-3.3592,-3.3423,-3.4066,-3.4489,-3.4489,-3.4336,-3.4523,-3.5165,-3.547,-3.5402,-3.4928,-3.5368,-3.5622,-3.5622,-3.5622,-3.5622,-3.5622,-3.5622,-3.5622,-3.5622,-3.5622,-3.5622,-3.5622,-3.5622,-3.5622,-3.5622,-3.5622,-3.5622,-3.5622,-3.5622,-3.5622,-3.5577,-3.5299,-3.4941,-3.4528,-3.8707,-3.8707,-3.8707,-3.8707,-3.8707,-3.8707,-3.8707,-3.8707,-3.8707,-3.8707,-3.8707,-3.8707,-3.8707,-3.8707,-3.8707,-3.8707,-3.7459,-3.6798,-3.7092,-3.5037,-3.3807,-3.3807,-3.3807,-3.3807,-3.3807,-3.3807,-3.3807,-3.3807,-3.3807,-3.3807,-3.3807,-3.3807,-3.3807,-3.3807,-3.3807,-3.3807,-3.3807,-3.3807,-3.3807,-3.3807,-3.3807,-3.3807,-3.3807,-3.3807,-3.3625,-3.3419,-3.3707,-3.3255,-3.2484,-3.2484,-3.2109,-3.1565,-3.1291,-3.136,-3.1546,-3.1546,-3.1698,-3.1884,-3.1884,-3.3169,-3.432,-3.3592,-3.3237,-3.3169,-3.3643,-3.2983,-3.2381,-3.2594,-3.3051,-3.3474,-3.3711,-3.3322,-3.3152,-3.366,-3.2899,-3.251,-3.3288,-3.2949,-3.2916,-3.366,-3.4184,-3.4201,-3.3474,-3.4286,-3.4658,-3.4184,-3.3897,-3.4201,-3.5216,-3.5267,-3.5131,-3.4861,-3.5351,-3.5622,-3.5622,-3.5622,-3.5622,-3.5622,-3.5622,-3.5622,-3.5622,-3.5622,-3.5622,-3.5622,-3.5622,-3.5622,-3.5622,-3.5622,-3.5622,-3.5622,-3.5622,-3.5622,-3.5577,-3.5362,-3.4855,-3.4199,-3.8707,-3.8707,-3.8707,-3.8689,-3.8707,-3.8707,-3.8689,-3.8707,-3.8707,-3.8707,-3.8707,-3.8707,-3.8707,-3.8707,-3.8707,-3.8707,-3.7955,-3.7129,-3.6321,-3.4724,-3.3807,-3.3807,-3.3807,-3.3807,-3.3807,-3.3807,-3.3807,-3.3807,-3.3807,-3.3807,-3.3807,-3.3807,-3.3807,-3.3807,-3.3807,-3.3807,-3.3807,-3.3807,-3.3807,-3.3807,-3.3807,-3.3807,-3.3807,-3.3807,-3.3807,-3.3807,-3.3807,-3.3255,-3.2517,-3.2484,-3.1932,-3.119,-3.119,-3.1698,-3.2313,-3.2313,-3.2814,-3.3406,-3.3406,-3.3931,-3.432,-3.3592,-3.2848,-3.2679,-3.415,-3.3355,-3.251,-3.3271,-3.3423,-3.3643,-3.437,-3.4506,-3.4506,-3.4506,-3.4506,-3.4252,-3.3525,-3.3423,-3.3694,-3.4421,-3.4506,-3.4218,-3.3491,-3.4742,-3.4996,-3.3525,-3.4083,-3.4506,-3.4489,-3.4506,-3.4844,-3.5605,-3.5622,-3.5622,-3.5622,-3.5622,-3.5622,-3.5622,-3.5622,-3.5622,-3.5622,-3.5622,-3.5622,-3.5622,-3.5622,-3.5622,-3.5622,-3.5622,-3.5622,-3.5622,-3.5622,-3.5622,-3.5515,-3.483,-3.4131,-3.3521,-3.8707,-3.8707,-3.8524,-3.7955,-3.8322,-3.8505,-3.7936,-3.834,-3.8707,-3.8707,-3.8707,-3.8707,-3.8707,-3.8707,-3.8707,-3.8707,-3.7441,-3.6064,-3.4633,-3.4614,-3.4394,-3.3825,-3.3807,-3.3807,-3.3807,-3.3807,-3.3807,-3.3807,-3.3807,-3.3807,-3.3807,-3.3807,-3.3807,-3.3807,-3.3807,-3.3807,-3.3807,-3.3807,-3.3807,-3.3807,-3.3807,-3.3807,-3.3807,-3.3807,-3.3807,-3.3762,-3.3494,-3.3214,-3.2872,-3.223,-3.1825,-3.1565,-3.1291,-3.1698,-3.2313,-3.2313,-3.2814,-3.3406,-3.3406,-3.3931,-3.4438,-3.4218,-3.3998,-3.3947,-3.4387,-3.415,-3.3897,-3.4117,-3.459,-3.503,-3.525,-3.5284,-3.5284,-3.5284,-3.5284,-3.5216,-3.4979,-3.4962,-3.5047,-3.5267,-3.5284,-3.4979,-3.4235,-3.4573,-3.4641,-3.4201,-3.4861,-3.5064,-3.4523,-3.4996,-3.5385,-3.556,-3.5622,-3.5622,-3.5622,-3.5622,-3.5622,-3.5622,-3.5622,-3.5622,-3.5622,-3.5622,-3.5622,-3.5622,-3.5622,-3.5622,-3.5622,-3.5622,-3.5622,-3.5622,-3.5622,-3.5301,-3.4827,-3.4617,-3.4057,-3.3349,-3.8707,-3.8432,-3.8065,-3.7569,-3.7643,-3.7588,-3.7092,-3.7441,-3.7863,-3.8175,-3.823,-3.834,-3.867,-3.8414,-3.823,-3.823,-3.6725,-3.5367,-3.4339,-3.4431,-3.4321,-3.3825,-3.3807,-3.3807,-3.3807,-3.3807,-3.3807,-3.3807,-3.3807,-3.3807,-3.3807,-3.3807,-3.3807,-3.3807,-3.3807,-3.3807,-3.3807,-3.3807,-3.3807,-3.3807,-3.3807,-3.3807,-3.3762,-3.3606,-3.355,-3.3522,-3.3075,-3.2809,-3.2565,-3.1986,-3.1886,-3.1987,-3.2032,-3.2577,-3.3152,-3.3152,-3.3491,-3.3897,-3.4201,-3.4387,-3.4556,-3.4861,-3.4726,-3.4573,-3.4861,-3.4709,-3.4573,-3.4878,-3.5301,-3.5622,-3.5622,-3.5622,-3.5622,-3.5622,-3.5622,-3.5622,-3.5622,-3.5622,-3.5622,-3.5622,-3.5622,-3.5318,-3.4573,-3.4759,-3.481,-3.4506,-3.5182,-3.5301,-3.4539,-3.5216,-3.5622,-3.5622,-3.5334,-3.5318,-3.5622,-3.5318,-3.5318,-3.5622,-3.5622,-3.547,-3.5165,-3.5165,-3.5165,-3.5165,-3.4878,-3.5081,-3.5571,-3.4979,-3.4912,-3.5148,-3.4861,-3.4472,-3.4066,-3.4066,-3.3448,-3.2536,-3.8707,-3.8102,-3.7551,-3.7434,-3.6835,-3.6358,-3.6211,-3.6248,-3.656,-3.7323,-3.7397,-3.7661,-3.8414,-3.7826,-3.7397,-3.7397,-3.5936,-3.4954,-3.4899,-3.4211,-3.3807,-3.3807,-3.3807,-3.3807,-3.3807,-3.3807,-3.3807,-3.3807,-3.3807,-3.3807,-3.3807,-3.3807,-3.3807,-3.3807,-3.3807,-3.3807,-3.3807,-3.3807,-3.3807,-3.3807,-3.3807,-3.3807,-3.3762,-3.3361,-3.3214,-3.3136,-3.2616,-3.2161,-3.1789,-3.1821,-3.2089,-3.251,-3.3186,-3.3914,-3.4489,-3.4489,-3.4539,-3.4742,-3.5436,-3.5115,-3.4759,-3.5453,-3.5115,-3.4776,-3.547,-3.5081,-3.4793,-3.547,-3.5622,-3.5622,-3.5622,-3.5622,-3.5622,-3.5622,-3.5622,-3.5622,-3.5622,-3.5622,-3.5622,-3.5622,-3.5622,-3.5351,-3.4658,-3.5216,-3.5334,-3.4641,-3.5233,-3.5318,-3.4624,-3.525,-3.5622,-3.5622,-3.4962,-3.4928,-3.556,-3.4928,-3.4945,-3.5622,-3.5622,-3.5216,-3.4489,-3.4489,-3.4455,-3.4353,-3.3694,-3.4167,-3.5318,-3.3964,-3.3795,-3.432,-3.366,-3.3372,-3.3305,-3.3246,-3.2402,-3.1292,-3.8707,-3.856,-3.8046,-3.678,-3.6927,-3.6798,-3.5495,-3.5862,-3.6358,-3.6541,-3.656,-3.6615,-3.6798,-3.6652,-3.656,-3.656,-3.5605,-3.4715,-3.41,-3.3899,-3.3807,-3.3807,-3.3807,-3.3807,-3.3807,-3.3807,-3.3807,-3.3807,-3.3807,-3.3807,-3.3807,-3.3807,-3.3807,-3.3807,-3.3807,-3.3807,-3.3807,-3.3807,-3.3807,-3.3807,-3.3807,-3.3807,-3.3762,-3.3361,-3.3214,-3.3075,-3.2264,-3.1897,-3.1839,-3.2115,-3.2608,-3.3186,-3.3355,-3.3914,-3.4489,-3.4489,-3.4912,-3.5419,-3.5571,-3.5504,-3.5419,-3.5571,-3.5504,-3.5419,-3.5588,-3.5504,-3.5419,-3.5588,-3.5622,-3.5622,-3.5622,-3.5622,-3.5622,-3.5622,-3.5622,-3.5622,-3.5622,-3.5622,-3.5622,-3.5622,-3.5622,-3.5554,-3.5402,-3.552,-3.5554,-3.5385,-3.552,-3.5554,-3.5385,-3.552,-3.5622,-3.5622,-3.5453,-3.5453,-3.5622,-3.5453,-3.5453,-3.5622,-3.5622,-3.5216,-3.4489,-3.4489,-3.4184,-3.3643,-3.3474,-3.3592,-3.3863,-3.3541,-3.3491,-3.3626,-3.3457,-3.3051,-3.2469,-3.2017,-3.1279,-3.0481,-3.8707,-3.8395,-3.7734,-3.6505,-3.6303,-3.5881,-3.4633,-3.4816,-3.5257,-3.5642,-3.5679,-3.5844,-3.6248,-3.5936,-3.5532,-3.5128,-3.4688,-3.4266,-3.3825,-3.3807,-3.3807,-3.3807,-3.3807,-3.3807,-3.3807,-3.3807,-3.3807,-3.3807,-3.3807,-3.3807,-3.3807,-3.3807,-3.3807,-3.3807,-3.3807,-3.3807,-3.3807,-3.3807,-3.3807,-3.3807,-3.3807,-3.3807,-3.3762,-3.3361,-3.3214,-3.3075,-3.2127,-3.2067,-3.2553,-3.3441,-3.3973,-3.4326,-3.4423,-3.4726,-3.503,-3.503,-3.5318,-3.5622,-3.5622,-3.5622,-3.5622,-3.5622,-3.5622,-3.5622,-3.5622,-3.5622,-3.5723,-3.6096,-3.5876,-3.574,-3.6096,-3.5876,-3.5622,-3.5622,-3.5622,-3.5622,-3.5622,-3.5622,-3.5622,-3.5622,-3.5622,-3.5622,-3.5622,-3.5622,-3.5622,-3.5622,-3.5622,-3.5622,-3.5622,-3.5622,-3.5622,-3.5622,-3.5267,-3.525,-3.5622,-3.5267,-3.5267,-3.5622,-3.5622,-3.5216,-3.4472,-3.4134,-3.3761,-3.3372,-3.2662,-3.2563,-3.2954,-3.256,-3.241,-3.2393,-3.2073,-3.1712,-3.125,-3.0664,-3.0024,-2.9361,-3.8707,-3.8157,-3.7441,-3.6652,-3.5789,-3.4963,-3.4137,-3.3899,-3.4045,-3.4697,-3.477,-3.5073,-3.5789,-3.5238,-3.4541,-3.3862,-3.3807,-3.3807,-3.3807,-3.3807,-3.3807,-3.3807,-3.3807,-3.3807,-3.3807,-3.3807,-3.3807,-3.3807,-3.3807,-3.3807,-3.3807,-3.3807,-3.3807,-3.3807,-3.3807,-3.3807,-3.3807,-3.3807,-3.3807,-3.3807,-3.3807,-3.3807,-3.3762,-3.3361,-3.3214,-3.3093,-3.2371,-3.2751,-3.3766,-3.484,-3.5397,-3.5647,-3.5693,-3.5739,-3.5739,-3.5622,-3.5622,-3.5622,-3.5622,-3.5622,-3.5622,-3.5622,-3.5622,-3.5622,-3.5622,-3.5622,-3.5808,-3.6451,-3.6062,-3.5808,-3.6468,-3.6045,-3.5622,-3.5622,-3.5622,-3.5622,-3.5622,-3.5622,-3.5622,-3.5622,-3.5622,-3.5622,-3.5622,-3.5622,-3.5622,-3.5622,-3.5622,-3.5622,-3.5622,-3.5622,-3.5622,-3.5622,-3.5013,-3.4979,-3.556,-3.4861,-3.4878,-3.5622,-3.5368,-3.4979,-3.4472,-3.3863,-3.3457,-3.3152,-3.2053,-3.1909,-3.2398,-3.1758,-3.1494,-3.1477,-3.0819,-3.05,-3.0393,-2.9761,-2.9042,-2.8286,-3.8707,-3.8615,-3.8285,-3.7459,-3.6652,-3.5826,-3.4981,-3.4266,-3.3844,-3.3954,-3.3972,-3.4009,-3.4137,-3.4027,-3.3917,-3.3807,-3.3807,-3.3807,-3.3807,-3.3807,-3.3807,-3.3807,-3.3807,-3.3807,-3.3807,-3.3807,-3.3807,-3.3807,-3.3807,-3.3807,-3.3807,-3.3807,-3.3807,-3.3807,-3.3807,-3.3807,-3.3807,-3.3807,-3.3807,-3.3807,-3.3807,-3.3807,-3.3762,-3.3361,-3.3214,-3.3226,-3.3395,-3.4359,-3.5507,-3.503,-3.5807,-3.6858,-3.6422,-3.6308,-3.6224,-3.5739,-3.5622,-3.5622,-3.5622,-3.5622,-3.5622,-3.5622,-3.5622,-3.5622,-3.5622,-3.5622,-3.5656,-3.5757,-3.569,-3.5656,-3.5757,-3.569,-3.5622,-3.5622,-3.5622,-3.5622,-3.5622,-3.5622,-3.5622,-3.5622,-3.5622,-3.5622,-3.5622,-3.5622,-3.5622,-3.5622,-3.5622,-3.5622,-3.5622,-3.5622,-3.5622,-3.5622,-3.552,-3.552,-3.5622,-3.4861,-3.4878,-3.5605,-3.432,-3.3981,-3.4489,-3.4387,-3.3643,-3.2459,-3.2916,-3.2807,-3.2326,-3.2225,-3.2174,-3.2124,-3.1362,-3.1099,-3.1015,-3.0393,-2.9118,-2.776,-3.8615,-3.8707,-3.8303,-3.7037,-3.6541,-3.5844,-3.4541,-3.4027,-3.3807,-3.3807,-3.3807,-3.3807,-3.3807,-3.3807,-3.3807,-3.3807,-3.3807,-3.3807,-3.3807,-3.3807,-3.3807,-3.3807,-3.3807,-3.3807,-3.3807,-3.3807,-3.3807,-3.3807,-3.3807,-3.3807,-3.3807,-3.3807,-3.3807,-3.3807,-3.3807,-3.3807,-3.3807,-3.3807,-3.3807,-3.3807,-3.3807,-3.3807,-3.378,-3.3606,-3.3796,-3.4306,-3.4909,-3.5123,-3.5196,-3.5681,-3.615,-3.6476,-3.6441,-3.6182,-3.5898,-3.565,-3.5622,-3.5622,-3.5622,-3.5622,-3.5622,-3.5622,-3.5622,-3.5622,-3.5622,-3.5622,-3.574,-3.618,-3.6265,-3.6265,-3.6265,-3.6265,-3.6129,-3.569,-3.5622,-3.5622,-3.5622,-3.5622,-3.5622,-3.5622,-3.5622,-3.5622,-3.5622,-3.5622,-3.5622,-3.5622,-3.5622,-3.5622,-3.5622,-3.5622,-3.5622,-3.5622,-3.5622,-3.5419,-3.4996,-3.4658,-3.4455,-3.4387,-3.4134,-3.4404,-3.5098,-3.4269,-3.3761,-3.3491,-3.2983,-3.2395,-3.1809,-3.1783,-3.1533,-3.1141,-3.0505,-2.9833,-2.9164,-2.8888,-2.8304,-2.7625]}]]